[[{"header":{"parameterUnit":"m.s-1","parameterCategory":1,"la1":30.6,"la2":28.766,"lo1":-90.7593,"lo2":-88.6598,"dx":0.0162,"dy":0.0183,"nx":116,"ny":114,"refTime":"2022-12-06T06:00:00:Z","depth":0,"parameterNumber":2,"parameterNumberName":"U-component_of_WINDS"},"data":[0.0,0.0,0.0,0.0,0.0,0.0,0.0,0.0,0.0,0.0,0.0,0.0,0.0,0.0,0.0,0.0,0.0,0.0,0.0,0.0,0.0,0.0,0.0,0.0,0.0,0.0,0.0,0.0,0.0,0.0,0.0,0.0,0.0,0.0,0.0,0.0,0.0,0.0,0.0,0.0,0.0,0.0,0.0,0.0,0.0,0.0,0.0,0.0,0.0,0.0,0.0,0.0,0.0,0.0,0.0,0.0,0.0,0.0,0.0,0.0,0.0,0.0,0.0,0.0,0.0,0.0,0.0,0.0,0.0,0.0,0.0,0.0,0.0,0.0,0.0,0.0,0.0,0.0,0.0,0.0,0.0,0.0,0.0,0.0,0.0,0.0,0.0,0.0,0.0,0.0,0.0,0.0,0.0,0.0,0.0,0.0,0.0,0.0,0.0,0.0,0.0,0.0,0.0,0.0,0.0,0.0,0.0,0.0,0.0,0.0,0.0,0.0,0.0,0.0,0.0,0.0,0.0,0.0,0.0,0.0,0.0,0.0,0.0,0.0,0.0,0.0,0.0,0.0,0.0,0.0,0.0,0.0,0.0,0.0,0.0,0.0,0.0,0.0,0.0,0.0,0.0,0.0,0.0,0.0,0.0,0.0,0.0,0.0,0.0,0.0,0.0,0.0,0.0,0.0,0.0,0.0,0.0,0.0,0.0,0.0,0.0,0.0,0.0,0.0,0.0,0.0,0.0,0.0,0.0,0.0,0.0,0.0,0.0,0.0,0.0,0.0,0.0,0.0,0.0,0.0,0.0,0.0,0.0,0.0,0.0,0.0,0.0,0.0,0.0,0.0,0.0,0.0,0.0,0.0,0.0,0.0,0.0,0.0,0.0,0.0,0.0,0.0,0.0,0.0,0.0,0.0,0.0,0.0,0.0,0.0,0.0,0.0,0.0,0.0,0.0,0.0,0.0,0.0,0.0,0.0,0.0,0.0,0.0,0.0,0.0,0.0,0.0,0.0,0.0,0.0,0.0,0.0,0.0,0.0,0.0,0.0,0.0,0.0,0.0,0.0,0.0,0.0,0.0,0.0,0.0,0.0,0.0,0.0,0.0,0.0,0.0,0.0,0.0,0.0,0.0,0.0,0.0,0.0,0.0,0.0,0.0,0.0,0.0,0.0,0.0,0.0,0.0,0.0,0.0,0.0,0.0,0.0,0.0,0.0,0.0,0.0,0.0,0.0,0.0,0.0,0.0,0.0,0.0,0.0,0.0,0.0,0.0,0.0,0.0,0.0,0.0,0.0,0.0,0.0,0.0,0.0,0.0,0.0,0.0,0.0,0.0,0.0,0.0,0.0,0.0,0.0,0.0,0.0,0.0,0.0,0.0,0.0,0.0,0.0,0.0,0.0,0.0,0.0,0.0,0.0,0.0,0.0,0.0,0.0,0.0,0.0,0.0,0.0,0.0,0.0,0.0,0.0,0.0,0.0,0.0,0.0,0.0,0.0,0.0,0.0,0.0,0.0,0.0,0.0,0.0,0.0,0.0,0.0,0.0,0.0,0.0,0.0,0.0,0.0,0.0,0.0,0.0,0.0,0.0,0.0,0.0,0.0,0.0,0.0,0.0,0.0,0.0,0.0,0.0,0.0,0.0,0.0,0.0,0.0,0.0,0.0,0.0,0.0,0.0,0.0,0.0,0.0,0.0,0.0,0.0,0.0,0.0,0.0,0.0,0.0,0.0,0.0,0.0,0.0,0.0,0.0,0.0,0.0,0.0,0.0,0.0,0.0,0.0,0.0,0.0,0.0,0.0,0.0,0.0,0.0,0.0,0.0,0.0,0.0,0.0,0.0,0.0,0.0,0.0,0.0,0.0,0.0,0.0,0.0,0.0,0.0,0.0,0.0,0.0,0.0,0.0,0.0,0.0,0.0,0.0,0.0,0.0,0.0,0.0,0.0,0.0,0.0,0.0,0.0,0.0,0.0,0.0,0.0,0.0,0.0,0.0,0.0,0.0,0.0,0.0,0.0,0.0,0.0,0.0,0.0,0.0,0.0,0.0,0.0,0.0,0.0,0.0,0.0,0.0,0.0,0.0,0.0,0.0,0.0,0.0,0.0,0.0,0.0,0.0,0.0,0.0,0.0,0.0,0.0,0.0,0.0,0.0,0.0,0.0,0.0,0.0,0.0,0.0,0.0,0.0,0.0,0.0,0.0,0.0,0.0,0.0,0.0,0.0,0.0,0.0,0.0,0.0,0.0,0.0,0.0,0.0,0.0,0.0,0.0,0.0,0.0,0.0,0.0,0.0,0.0,0.0,0.0,0.0,0.0,0.0,0.0,0.0,0.0,0.0,0.0,0.0,0.0,0.0,0.0,0.0,0.0,0.0,0.0,0.0,0.0,0.0,0.0,0.0,0.0,0.0,0.0,0.0,0.0,0.0,0.0,0.0,0.0,0.0,0.0,0.0,0.0,0.0,0.0,0.0,0.0,0.0,0.0,0.0,0.0,0.0,0.0,0.0,0.0,0.0,0.0,0.0,0.0,0.0,0.0,0.0,0.0,0.0,0.0,0.0,0.0,0.0,0.0,0.0,0.0,0.0,0.0,0.0,0.0,0.0,0.0,0.0,0.0,0.0,0.0,0.0,0.0,0.0,0.0,0.0,0.0,0.0,0.0,0.0,0.0,0.0,0.0,0.0,0.0,0.0,0.0,0.0,0.0,0.0,0.0,0.0,0.0,0.0,0.0,0.0,0.0,0.0,0.0,0.0,0.0,0.0,0.0,0.0,0.0,0.0,0.0,0.0,0.0,0.0,0.0,0.0,0.0,0.0,0.0,0.0,0.0,0.0,0.0,0.0,0.0,0.0,0.0,0.0,0.0,0.0,0.0,0.0,0.0,0.0,0.0,0.0,0.0,0.0,0.0,0.0,0.0,0.0,0.0,0.0,0.0,0.0,0.0,0.0,0.0,0.0,0.0,0.0,0.0,0.0,0.0,0.0,0.0,0.0,0.0,0.0,0.0,0.0,0.0,0.0,0.0,0.0,0.0,0.0,0.0,0.0,0.0,0.0,0.0,0.0,0.0,0.0,0.0,0.0,0.0,0.0,0.0,0.0,0.0,0.0,0.0,0.0,0.0,0.0,0.0,0.0,0.0,0.0,0.0,0.0,0.0,0.0,0.0,0.0,0.0,0.0,0.0,0.0,0.0,0.0,0.0,0.0,0.0,0.0,0.0,0.0,0.0,0.0,0.0,0.0,0.0,0.0,0.0,0.0,0.0,0.0,0.0,0.0,0.0,0.0,0.0,0.0,0.0,0.0,0.0,0.0,0.0,0.0,0.0,0.0,0.0,0.0,0.0,0.0,0.0,0.0,0.0,0.0,0.0,0.0,0.0,0.0,0.0,0.0,0.0,0.0,0.0,0.0,0.0,0.0,0.0,0.0,0.0,0.0,0.0,0.0,0.0,0.0,0.0,0.0,0.0,0.0,0.0,0.0,0.0,0.0,0.0,0.0,0.0,0.0,0.0,0.0,0.0,0.0,0.0,0.0,0.0,0.0,0.0,0.0,0.0,0.0,0.0,0.0,0.0,0.0,0.0,0.0,0.0,0.0,0.0,0.0,0.0,0.0,0.0,0.0,0.0,0.0,0.0,0.0,0.0,0.0,0.0,0.0,0.0,0.0,0.0,0.0,0.0,0.0,0.0,0.0,0.0,0.0,0.0,0.0,0.0,0.0,0.0,0.0,0.0,0.0,0.0,0.0,0.0,0.0,0.0,0.0,0.0,0.0,0.0,0.0,0.0,0.0,0.0,0.0,0.0,0.0,0.0,0.0,0.0,0.0,0.0,0.0,0.0,0.0,0.0,0.0,0.0,0.0,0.0,0.0,0.0,0.0,0.0,0.0,0.0,0.0,0.0,0.0,0.0,0.0,0.0,0.0,0.0,0.0,0.0,0.0,0.0,0.0,0.0,0.0,0.0,0.0,0.0,0.0,0.0,0.0,0.0,0.0,0.0,0.0,0.0,0.0,0.0,0.0,0.0,0.0,0.0,0.0,0.0,0.0,0.0,0.0,0.0,0.0,0.0,0.0,0.0,0.0,0.0,0.0,0.0,0.0,0.0,0.0,0.0,0.0,0.0,0.0,0.0,0.0,0.0,0.0,0.0,0.0,0.0,0.0,0.0,0.0,0.0,0.0,0.0,0.0,0.0,0.0,0.0,0.0,0.0,0.0,0.0,0.0,0.0,0.0,0.0,0.0,0.0,0.0,0.0,0.0,0.0,0.0,0.0,0.0,0.0,0.0,0.0,0.0,0.0,0.0,0.0,0.0,0.0,0.0,0.0,0.0,0.0,0.0,0.0,0.0,0.0,0.0,0.0,0.0,0.0,0.0,0.0,0.0,0.0,0.0,0.0,0.0,0.0,0.0,0.0,0.0,0.0,0.0,0.0,0.0,0.0,0.0,0.0,0.0,0.0,0.0,0.0,0.0,0.0,0.0,0.0,0.0,0.0,0.0,0.0,0.0,0.0,0.0,0.0,0.0,0.0,0.0,0.0,0.0,0.0,0.0,0.0,0.0,0.0,0.0,0.0,0.0,0.0,0.0,0.0,0.0,0.0,0.0,0.0,0.0,0.0,0.0,0.0,0.0,0.0,0.0,0.0,0.0,0.0,0.0,0.0,0.0,0.0,0.0,0.0,0.0,0.0,0.0,0.0,0.0,0.0,0.0,0.0,0.0,0.0,0.0,0.0,0.0,0.0,0.0,0.0,0.0,0.0,0.0,0.0,0.0,0.0,0.0,0.0,0.0,0.0,0.0,0.0,0.0,0.0,0.0,0.0,0.0,0.0,0.0,0.0,0.0,0.0,0.0,0.0,0.0,0.0,0.0,0.0,0.0,0.0,0.0,0.0,0.0,0.0,0.0,0.0,0.0,0.0,0.0,0.0,0.0,0.0,0.0,0.0,0.0,0.0,0.0,0.0,0.0,0.0,0.0,0.0,0.0,0.0,0.0,0.0,0.0,0.0,0.0,0.0,0.0,0.0,0.0,0.0,0.0,0.0,0.0,0.0,0.0,0.0,0.0,0.0,0.0,0.0,0.0,0.0,0.0,0.0,0.0,0.0,0.0,0.0,0.0,0.0,0.0,0.0,0.0,0.0,0.0,0.0,0.0,0.0,0.0,0.0,0.0,0.0,0.0,0.0,0.0,0.0,0.0,0.0,0.0,0.0,0.0,0.0,0.0,0.0,0.0,0.0,0.0,0.0,0.0,0.0,0.0,0.0,0.0,0.0,0.0,0.0,0.0,0.0,0.0,0.0,0.0,0.0,0.0,0.0,0.0,0.0,0.0,0.0,0.0,0.0,0.0,0.0,0.0,0.0,0.0,0.0,0.0,0.0,0.0,0.0,0.0,0.0,0.0,0.0,0.0,0.0,0.0,0.0,0.0,0.0,0.0,0.0,0.0,0.0,0.0,0.0,0.0,0.0,0.0,0.0,0.0,0.0,0.0,0.0,0.0,0.0,0.0,0.0,0.0,0.0,0.0,0.0,0.0,0.0,0.0,0.0,0.0,0.0,0.0,0.0,0.0,0.0,0.0,0.0,0.0,0.0,0.0,0.0,0.0,0.0,0.0,0.0,0.0,0.0,0.0,0.0,0.0,0.0,0.0,0.0,0.0,0.0,0.0,0.0,0.0,0.0,0.0,0.0,0.0,0.0,0.0,0.0,0.0,0.0,0.0,0.0,0.0,0.0,0.0,0.0,0.0,0.0,0.0,0.0,0.0,0.0,0.0,0.0,0.0,0.0,0.0,0.0,0.0,0.0,0.0,0.0,0.0,0.0,0.0,0.0,0.0,0.0,0.0,0.0,0.0,0.0,0.0,0.0,0.0,0.0,0.0,0.0,0.0,0.0,0.0,0.0,0.0,0.0,0.0,0.0,0.0,0.0,0.0,0.0,0.0,0.0,0.0,0.0,0.0,0.0,0.0,0.0,0.0,0.0,0.0,0.0,0.0,0.0,0.0,0.0,0.0,0.0,0.0,0.0,0.0,0.0,0.0,0.0,0.0,0.0,0.0,0.0,0.0,0.0,0.0,0.0,0.0,0.0,0.0,0.0,0.0,0.0,-1.8518,-1.5884,0.0,0.0,0.0,0.0,0.0,0.0,0.0,0.0,0.0,0.0,0.0,0.0,0.0,0.0,0.0,0.0,0.0,0.0,0.0,0.0,0.0,0.0,0.0,-0.4594,-0.4934,-0.5274,-0.5473,0.0,0.0,0.0,0.0,0.0,0.0,0.0,0.0,0.0,-0.7021,-0.7473,-0.9414,-1.0973,-1.2156,-1.1855,-1.042,-0.8114,0.0,0.0,0.0,0.0,0.0,0.0,0.0,0.0,0.0,0.0,0.0,0.0,0.0,0.0,0.0,0.0,0.0,0.0,0.0,0.0,0.0,0.0,0.0,0.0,0.0,0.0,0.0,0.0,0.0,0.0,0.0,0.0,0.0,0.0,0.0,0.0,0.0,0.0,0.0,0.0,0.0,0.0,0.0,0.0,0.0,0.0,0.0,0.0,0.0,0.0,0.0,0.0,0.0,0.0,0.0,0.0,0.0,0.0,0.0,0.0,0.0,0.0,0.0,0.0,0.0,0.0,0.0,0.0,0.0,0.0,-2.2555,-2.0086,0.0,0.0,0.0,0.0,0.0,0.0,0.0,0.0,0.0,0.0,0.0,0.0,0.0,0.0,0.0,0.0,0.0,0.0,0.0,0.0,0.0,-0.4896,-0.5003,-0.5117,-0.533,-0.5759,-0.5904,-0.6035,-0.618,-0.6454,0.0,0.0,0.0,0.0,-0.7098,-0.77,-0.832,-0.8937,-1.218,-1.4855,-1.694,-1.7229,-1.5135,-1.1109,-1.104,0.0,0.0,0.0,0.0,0.0,0.0,0.0,0.0,0.0,0.0,0.0,0.0,0.0,0.0,0.0,0.0,0.0,0.0,0.0,0.0,0.0,0.0,0.0,0.0,0.0,0.0,0.0,0.0,0.0,0.0,0.0,0.0,0.0,0.0,0.0,0.0,0.0,0.0,0.0,0.0,0.0,0.0,0.0,0.0,0.0,0.0,0.0,0.0,0.0,0.0,0.0,0.0,0.0,0.0,0.0,0.0,0.0,0.0,0.0,0.0,0.0,0.0,0.0,-2.6154,-2.6667,-2.7209,-2.7291,-2.7348,-2.7346,-2.6657,-2.4796,-2.2219,-2.1955,0.0,0.0,0.0,0.0,0.0,0.0,0.0,0.0,0.0,0.0,0.0,0.0,0.0,0.0,0.0,0.0,0.0,0.0,0.0,-0.5498,-0.5513,-0.6183,-0.6719,-0.6954,-0.7301,-0.7345,-0.6972,-0.727,0.0,0.0,0.0,-0.7146,-0.7925,-0.8031,-0.9468,-1.2275,-1.5604,-1.7442,-1.7851,-1.8808,-1.8914,-1.8277,-1.6843,-1.5029,-1.2981,0.0,0.0,0.0,0.0,0.0,0.0,0.0,0.0,0.0,0.0,0.0,0.0,0.0,0.0,0.0,0.0,0.0,0.0,0.0,0.0,0.0,0.0,0.0,0.0,0.0,0.0,0.0,0.0,0.0,0.0,0.0,0.0,0.0,0.0,0.0,0.0,0.0,0.0,0.0,0.0,0.0,-1.7662,-1.6771,0.0,0.0,0.0,0.0,0.0,0.0,0.0,0.0,0.0,0.0,0.0,0.0,0.0,-2.5877,-2.5379,-2.6926,-2.7368,-2.6748,-2.8837,-2.9871,-2.9996,-3.1052,-3.1568,-3.1655,-3.1511,0.0,-2.4313,-2.3315,0.0,0.0,0.0,0.0,0.0,0.0,0.0,0.0,0.0,0.0,0.0,0.0,0.0,0.0,0.0,0.0,0.0,0.0,0.0,0.0,0.0,-0.7726,-0.8645,-0.866,-1.0339,-1.072,-0.9117,-0.9755,0.0,0.0,-0.806,-0.8529,-0.9481,-1.0344,-1.3118,-1.7835,-2.0375,-2.2349,-2.3812,-2.493,-2.55,-2.5545,-2.4315,-2.1105,-1.6548,-1.547,0.0,0.0,0.0,0.0,0.0,0.0,0.0,0.0,0.0,0.0,0.0,0.0,0.0,0.0,0.0,0.0,0.0,0.0,0.0,0.0,0.0,0.0,0.0,0.0,0.0,0.0,0.0,0.0,0.0,0.0,0.0,0.0,0.0,0.0,0.0,0.0,0.0,0.0,0.0,-1.5742,-1.73,-1.6931,-1.7792,-1.8171,0.0,0.0,0.0,0.0,0.0,0.0,0.0,0.0,0.0,-2.4728,-2.7103,-2.8201,-2.787,-2.9873,-3.0451,-2.9608,-3.063,-3.1106,-3.107,-3.1684,-3.2001,-3.2072,-3.2388,-3.1011,-2.8446,-2.7654,-2.611,-2.4199,0.0,0.0,0.0,0.0,-2.254,-2.2392,0.0,0.0,0.0,0.0,0.0,0.0,0.0,0.0,0.0,0.0,0.0,0.0,-0.7809,-0.9576,-1.0828,-1.1002,-1.3087,-1.3494,-1.1352,-1.2054,-1.1676,-0.9703,-0.9708,-1.0111,-1.0887,-1.3261,-1.7089,-2.2426,-2.463,-2.6819,-2.8989,-3.0111,-3.0691,-3.0745,-3.0177,-2.6439,-2.0446,-1.8614,-1.6911,-1.5169,0.0,0.0,0.0,0.0,0.0,0.0,0.0,0.0,0.0,0.0,0.0,0.0,0.0,0.0,0.0,0.0,0.0,0.0,0.0,0.0,0.0,0.0,0.0,0.0,0.0,0.0,0.0,0.0,0.0,0.0,0.0,0.0,0.0,0.0,0.0,0.0,0.0,-1.7308,-1.8856,-1.8485,-2.0189,-2.1311,0.0,0.0,0.0,0.0,0.0,0.0,-2.444,-2.6543,-2.7448,-2.6772,-2.9124,-3.027,-3.0005,-3.1977,-3.2644,-3.201,-3.2129,-3.2307,-3.2513,-3.2608,-3.2657,-3.2693,-3.3082,-3.2892,-3.2272,-3.0939,-2.908,-2.7059,-2.6975,-2.6578,-2.6,-2.5706,-2.5493,-2.5346,0.0,0.0,0.0,0.0,0.0,0.0,0.0,0.0,0.0,0.0,0.0,-0.9267,-1.0042,-1.1696,-1.3198,-1.4253,-1.4745,-1.4455,-1.3244,-1.3392,-1.2862,-1.1347,-1.1409,-1.1547,-1.1743,-1.6374,-2.0613,-2.4362,-2.7452,-2.9578,-3.0791,-3.1876,-3.2374,-3.2403,-3.2607,-2.9866,-2.4951,-2.3064,-2.1358,-1.9511,-1.5298,0.0,0.0,0.0,0.0,0.0,0.0,0.0,0.0,0.0,0.0,0.0,0.0,0.0,0.0,0.0,0.0,0.0,0.0,0.0,0.0,0.0,0.0,0.0,0.0,0.0,0.0,0.0,0.0,0.0,0.0,0.0,0.0,0.0,0.0,0.0,0.0,0.0,0.0,-2.4516,-2.5397,0.0,0.0,0.0,0.0,-2.6203,-2.6217,-2.619,-2.6359,-2.8596,-2.9722,-2.9422,-3.1637,-3.2424,-3.1586,-3.2278,-3.2705,-3.2834,-3.3499,-3.4262,-3.5214,-3.5214,-3.5262,-3.531,-3.5079,-3.4958,-3.4657,-3.1231,-2.9673,-2.9262,-2.7503,-2.6657,-2.6387,-2.5743,-2.5504,-2.5447,0.0,0.0,0.0,-0.298,-0.3422,-0.3973,-0.4494,-0.5291,-0.6022,-0.6558,-0.8575,-1.0205,-1.0923,-1.376,-1.6088,-1.7268,-1.8864,-1.9081,-1.7274,-1.6745,-1.5506,-1.3302,-1.2635,-1.3825,-1.7064,-2.1782,-2.5282,-2.7526,-3.0584,-3.2279,-3.2655,-3.3772,-3.4305,-3.4301,-3.3901,-3.273,-3.0833,-2.7448,-2.4716,-2.248,-1.9827,-1.7457,0.0,0.0,0.0,0.0,0.0,0.0,0.0,0.0,0.0,0.0,0.0,0.0,0.0,0.0,0.0,0.0,0.0,0.0,0.0,0.0,0.0,0.0,0.0,0.0,0.0,0.0,0.0,0.0,0.0,0.0,0.0,0.0,0.0,0.0,0.0,0.0,0.0,-2.579,-2.6944,0.0,-2.5677,-2.5445,-2.5721,-2.6478,-2.8881,-3.0076,-2.9494,-3.1743,-3.2938,-3.2827,-3.2593,-3.2781,-3.3364,-3.3588,-3.3883,-3.4317,-3.4533,-3.4834,-3.5221,-3.5291,-3.5375,-3.5424,-3.5372,-3.5372,-3.5283,-3.4089,-3.331,-3.2791,-3.1983,-3.1376,-3.0796,-2.9961,-2.9692,-2.968,0.0,0.0,0.0,-0.3495,-0.3902,-0.4341,-0.4735,-0.561,-0.6691,-0.8073,-0.995,-1.174,-1.3271,-1.625,-1.8614,-1.98,-2.1771,-2.1922,-1.9495,-1.9177,-1.7854,-1.5088,-1.499,-1.7297,-2.2264,-2.5412,-2.8222,-3.0686,-3.2638,-3.3769,-3.4125,-3.4904,-3.5285,-3.5277,-3.485,-3.4481,-3.4026,-3.1245,-2.8772,-2.6474,-2.3895,-2.0957,-1.7928,0.0,0.0,0.0,0.0,0.0,0.0,0.0,0.0,0.0,0.0,0.0,0.0,0.0,0.0,0.0,0.0,0.0,0.0,0.0,0.0,0.0,0.0,0.0,0.0,0.0,0.0,0.0,0.0,0.0,0.0,0.0,0.0,0.0,0.0,-2.5129,-2.6958,-2.6731,-2.7862,-2.8539,-2.8227,-2.8095,-2.8535,-2.9751,-3.2063,-3.3136,-3.2507,-3.3734,-3.4473,-3.4557,-3.3513,-3.346,-3.4533,-3.4554,-3.4847,-3.5492,-3.5474,-3.5634,-3.5989,-3.6059,-3.6181,-3.6249,-3.6299,-3.6299,-3.6332,-3.6402,-3.6076,-3.5485,-3.472,-3.4096,-3.3564,-3.2555,-3.2114,-3.2015,0.0,0.0,-0.4127,-0.4444,-0.4789,-0.5147,-0.5528,-0.6269,-0.7946,-1.115,-1.2261,-1.394,-1.707,-1.909,-2.0711,-2.1915,-2.3119,-2.26,-1.9765,-2.0484,-1.9712,-1.6783,-1.8673,-2.1993,-2.6767,-2.7083,-2.9306,-3.3582,-3.3504,-3.4036,-3.5105,-3.5157,-3.5223,-3.53,-3.5427,-3.5039,-3.4238,-3.4313,-3.3396,-3.1555,-2.7375,-2.4083,-2.1336,0.0,0.0,0.0,0.0,0.0,0.0,0.0,0.0,0.0,0.0,0.0,0.0,0.0,0.0,0.0,0.0,0.0,0.0,0.0,0.0,0.0,0.0,0.0,0.0,0.0,0.0,0.0,0.0,0.0,0.0,0.0,0.0,0.0,-2.5012,-2.7427,-2.8764,-2.776,-2.8521,-2.9714,-3.1242,-3.1311,-3.2674,-3.6049,-3.5515,-3.5081,-3.5227,-3.4465,-3.4192,-3.4606,-3.4532,-3.467,-3.5084,-3.5049,-3.5474,-3.6364,-3.6346,-3.6809,-3.7703,-3.7703,-3.7757,-3.7899,-3.7899,-3.7899,-3.7899,-3.7899,-3.7631,-3.7031,-3.5177,-3.4449,-3.4297,-3.3028,-3.2376,-3.2047,-0.4786,-0.4652,-0.458,-0.4578,-0.4963,-0.527,-0.5246,-0.6127,-0.8334,-1.2613,-1.336,-1.4621,-1.7607,-1.9765,-2.1917,-2.4171,-2.4449,-2.4172,-2.3369,-2.2349,-2.1301,-2.0171,-2.383,-2.6745,-2.8573,-3.0697,-3.2317,-3.3468,-3.4245,-3.4792,-3.5091,-3.5124,-3.5138,-3.5155,-3.53,-3.5244,-3.5076,-3.5143,-3.4963,-3.4361,-3.1301,-2.8515,-2.5975,0.0,0.0,0.0,0.0,0.0,0.0,0.0,0.0,0.0,0.0,0.0,0.0,0.0,0.0,0.0,0.0,0.0,0.0,0.0,0.0,0.0,0.0,0.0,0.0,0.0,0.0,0.0,0.0,0.0,0.0,0.0,-2.5314,-2.7602,-2.7844,-2.9007,-3.0191,-3.1219,-3.1532,-3.2084,-3.3107,-3.3065,-3.3421,-3.4437,-3.5303,-3.5799,-3.5872,-3.6648,-3.7085,-3.7105,-3.6483,-3.6389,-3.6934,-3.6486,-3.6559,-3.7255,-3.7146,-3.7326,-3.7703,-3.7649,-3.7739,-3.7899,-3.7899,-3.7899,-3.7899,-3.7899,-3.781,-3.7596,-3.6234,-3.5494,-3.5069,-3.4049,-3.3467,-3.323,-0.5216,-0.5055,-0.504,-0.527,-0.5499,-0.5676,-0.5755,-0.6348,-0.8484,-1.3186,-1.3811,-1.535,-1.9262,-2.107,-2.2731,-2.4513,-2.4653,-2.4445,-2.3985,-2.3289,-2.343,-2.4593,-2.7418,-2.9642,-3.1111,-3.2807,-3.3846,-3.415,-3.4792,-3.511,-3.5126,-3.5176,-3.519,-3.5239,-3.5335,-3.5412,-3.546,-3.5502,-3.58,-3.6047,-3.4214,-3.1487,-2.8397,-2.709,-2.4436,-2.1357,-2.0992,-2.0849,-2.0563,-1.868,0.0,0.0,0.0,0.0,0.0,0.0,0.0,0.0,0.0,0.0,0.0,0.0,0.0,0.0,0.0,0.0,0.0,0.0,0.0,0.0,0.0,0.0,0.0,0.0,-2.7423,-2.9777,-3.0901,-3.1158,-3.1703,-3.2981,-3.3154,-3.3466,-3.4193,-3.4192,-3.443,-3.5155,-3.6022,-3.6826,-3.7526,-3.8063,-3.8434,-3.8608,-3.8106,-3.779,-3.7648,-3.7596,-3.7542,-3.7465,-3.741,-3.7429,-3.754,-3.754,-3.7577,-3.7703,-3.7739,-3.7775,-3.7775,-3.7775,-3.7667,-3.7394,0.0,0.0,0.0,0.0,-3.4117,-3.3845,-0.5659,-0.5454,-0.5482,-0.6159,-0.6141,-0.6194,-0.6659,-0.6774,-0.8484,-1.3181,-1.401,-1.6092,-2.1219,-2.2491,-2.3202,-2.3803,-2.4138,-2.3962,-2.3059,-2.3974,-2.5958,-2.9071,-3.002,-3.1516,-3.3825,-3.3916,-3.4365,-3.52,-3.5147,-3.5145,-3.5193,-3.5261,-3.5381,-3.5532,-3.5614,-3.5713,-3.5817,-3.5867,-3.6348,-3.7007,-3.6351,-3.3712,-3.0061,-2.9172,-2.6806,-2.3864,-2.2991,-2.2674,-2.2511,-2.1347,0.0,0.0,0.0,0.0,0.0,0.0,0.0,0.0,0.0,0.0,0.0,0.0,0.0,0.0,0.0,0.0,0.0,0.0,0.0,0.0,0.0,0.0,0.0,0.0,-2.915,-3.1224,-3.3684,-3.3393,-3.3107,-3.3686,-3.3853,-3.4174,-3.4863,-3.4954,-3.5574,-3.7075,-3.7294,-3.8022,-3.9498,-3.9079,0.0,0.0,0.0,-3.8834,-3.7731,-3.8305,-3.8196,-3.7291,-3.7276,-3.7297,-3.7297,-3.7354,-3.7374,-3.7429,-3.754,-3.7594,-3.7577,-3.7577,-3.7319,-3.686,-3.6504,-3.634,-3.613,-3.5021,-3.4349,-3.4,-0.552,-0.5566,-0.5722,-0.6082,-0.6234,-0.6444,-0.6808,-0.6828,-0.8466,-1.3112,-1.4919,-1.7072,-2.0538,-2.207,-2.3185,-2.4056,-2.4036,-2.4069,-2.424,-2.6631,-2.8725,-3.0294,-3.2657,-3.4243,-3.4899,-3.4916,-3.5028,-3.52,-3.52,-3.52,-3.5198,-3.528,-3.5687,-3.6362,-3.6454,-3.6929,-3.768,-3.7683,-3.7859,-3.8105,-3.796,-3.693,-3.5352,-3.3835,-3.2407,-3.1075,-3.025,-2.9977,-2.9502,-2.6526,-2.5601,-2.4999,-2.0907,-1.8183,0.0,0.0,0.0,0.0,0.0,0.0,0.0,0.0,0.0,0.0,0.0,0.0,0.0,0.0,0.0,0.0,0.0,0.0,0.0,-2.7597,-3.0068,-3.2584,-3.4651,-3.4146,-3.3799,-3.4548,-3.4676,-3.4929,-3.5612,-3.6266,-3.6776,-3.7076,-3.8307,-3.9179,-3.9595,-4.0526,-4.08,-4.0203,-3.9983,-3.9419,-3.8427,-3.7871,-3.7494,-3.7314,-3.7203,0.0,-3.7297,-3.7203,-3.7261,-3.7392,-3.7429,-3.7503,-3.7577,-3.7577,-3.7319,-3.686,-3.6422,-3.5916,-3.5386,-3.5144,-3.4496,-3.3745,-0.5819,-0.5874,-0.5954,-0.6159,-0.6401,-0.6604,-0.6732,-0.6744,-0.769,-1.03,-1.2431,-1.4908,-1.8141,-1.9535,-2.0717,-2.1899,-2.2937,-2.4029,-2.5134,-2.7834,-3.0286,-3.2315,-3.3973,-3.4927,-3.5057,-3.5145,-3.5196,-3.5196,-3.5196,-3.5439,-3.5889,-3.5487,-3.6017,-3.734,-3.6929,-3.7317,-3.8249,-3.8294,-3.859,-3.9057,-3.9087,-3.9062,-3.8765,-3.6625,-3.524,-3.4398,-3.3962,-3.3274,-3.2402,-3.1061,-2.9822,-2.8312,-2.5189,-2.3301,-2.1487,0.0,0.0,0.0,0.0,0.0,0.0,0.0,0.0,0.0,0.0,0.0,0.0,0.0,0.0,-2.263,-2.3755,0.0,-2.8964,-2.9436,-3.1532,-3.3561,-3.4871,-3.4623,-3.4757,-3.5957,-3.6018,-3.6133,-3.649,-3.684,-3.7225,-3.7609,-3.8404,-3.9384,-4.0599,-4.1307,-4.1288,-4.0383,-4.1085,-4.0574,-3.8716,-3.8716,-3.8445,-3.7922,-3.7418,-3.7259,-3.7297,-3.7279,-3.7299,-3.7411,-3.7466,-3.754,-3.7577,-3.7577,-3.7449,-3.7243,-3.6978,-3.6274,-3.5419,-3.5419,-3.4769,-3.3899,-0.6147,-0.6183,-0.6201,-0.6295,-0.6535,-0.6672,-0.6613,-0.6647,-0.6855,-0.736,-0.9239,-1.1931,-1.5626,-1.6905,-1.8071,-1.9409,-2.1827,-2.3984,-2.5643,-2.8428,-3.1239,-3.3988,-3.448,-3.4753,-3.4908,-3.5054,-3.5157,-3.5209,-3.5209,-3.5586,-3.6316,-3.5599,-3.6195,-3.782,-3.7286,-3.7626,-3.858,-3.8811,-3.9214,-3.9735,-3.9959,-4.0324,-4.0506,-3.8233,-3.6774,-3.5937,-3.5737,-3.4274,-3.2613,-3.3606,-3.2266,-2.994,-2.8477,-2.7887,-2.6472,-1.9996,-1.9964,0.0,0.0,0.0,0.0,0.0,0.0,0.0,0.0,-2.1208,-2.2598,-2.5449,-2.5923,-2.624,-2.7616,-2.9271,-3.0613,-3.1125,-3.2837,-3.4274,-3.4824,-3.5013,-3.5647,-3.7103,-3.7035,-3.684,-3.6862,-3.6939,-3.7323,-3.8119,-3.8464,-3.955,-4.1615,-4.1868,-4.1523,-4.0635,-4.1776,-4.1248,-3.8847,-3.9349,-3.9185,-3.8336,-3.7636,-3.7297,-3.7297,-3.7354,-3.7392,-3.7429,-3.7718,-3.7826,-3.7826,-3.7826,-3.7826,-3.7809,-3.7648,-3.6821,-3.5705,-3.5705,-3.5068,-3.4201,-0.6177,-0.6331,-0.6441,-0.6401,-0.6569,-0.6672,-0.6616,-0.6609,-0.6671,-0.6778,-0.7596,-0.9936,-1.4539,-1.6145,-1.7352,-1.8467,-2.163,-2.415,-2.5539,-2.8864,-3.1808,-3.4099,-3.4245,-3.4458,-3.4889,-3.4908,-3.5019,-3.5209,-3.5209,-3.525,-3.5348,-3.525,-3.5799,-3.6895,-3.7636,-3.8549,-3.9585,-4.0387,-4.0342,-3.9862,-4.0644,-4.0506,-3.9747,-3.8721,-3.7715,-3.6781,-3.6112,-3.3258,-3.0076,-3.1717,-3.0535,-2.8352,-2.8147,-2.7522,-2.594,-2.1274,-1.9599,-1.8561,-1.5457,-1.6696,-1.8992,-1.956,-2.1526,-2.345,0.0,-2.4711,-2.577,-2.7313,-2.749,-2.7638,-2.8599,-2.9951,-3.0984,-3.1239,-3.3214,-3.4767,-3.4869,-3.5451,-3.6213,-3.7093,-3.6516,-3.6004,-3.5946,-3.658,-3.7323,-3.8119,-3.9478,-4.0691,-4.1669,-4.2375,-4.2449,-4.1742,-4.1035,-4.0131,-3.8995,-3.8258,-3.7735,-3.7421,-3.735,-3.7297,-3.7297,-3.7297,-3.7317,-3.7465,-3.8307,-3.8683,-3.8683,-3.8683,-3.8683,-3.8594,-3.7862,-3.6995,-3.613,-3.613,-3.5402,-3.4448,-0.6569,-0.6642,-0.6659,-0.6642,-0.6672,-0.6672,-0.6608,-0.6634,-0.6693,-0.6797,-0.7439,-0.8722,-1.0982,-1.2928,-1.4458,-1.5459,-1.9664,-2.2825,-2.4171,-2.8458,-3.1646,-3.3191,-3.3883,-3.4344,-3.4653,-3.4831,-3.5001,-3.5209,-3.5209,-3.5474,-3.602,-3.5971,-3.6769,-3.8215,-3.8659,-3.9431,-4.0422,-4.0873,-4.0853,-4.0583,-4.0954,-4.058,-3.9713,-3.8879,-3.7635,-3.6184,-3.4773,-3.2446,0.0,-3.1513,-3.0515,-2.8927,-2.9989,-2.9287,-2.7344,-2.3485,-2.2432,-2.2517,-2.243,-2.2064,-2.228,-2.4652,-2.6051,-2.7122,-2.8039,-2.855,-2.9476,-3.1792,-3.1765,-3.1562,-3.2401,-3.259,-3.2665,-3.2727,-3.3991,-3.4906,-3.4848,-3.5423,-3.6131,-3.6999,-3.6671,-3.6606,-3.7196,-3.7938,-3.8699,-3.9478,-4.0582,-4.1578,-4.2468,-4.2377,-4.1923,-4.1107,-4.0619,-3.995,-3.9031,-3.8526,-3.8272,-3.8217,-3.7735,-3.7466,-3.7502,-3.7982,-3.8409,-3.8874,-3.9269,-3.945,-3.945,-3.9426,-3.9198,-3.8772,-3.8451,-3.7447,-3.6214,-3.6214,-3.5464,-3.4481,-0.6858,-0.6858,-0.6824,-0.6824,-0.6791,-0.6723,-0.663,-0.6706,-0.6774,-0.6838,-0.7383,-0.7996,-0.8609,-1.0365,-1.1968,-1.314,-1.7096,-2.0608,-2.3122,-2.7202,-3.034,-3.221,-3.3019,-3.3673,-3.4191,-3.4373,-3.4699,-3.5209,-3.5209,-3.5662,-3.6584,-3.6523,-3.7364,-3.8942,-3.924,-3.981,-4.0552,-4.0656,-4.0718,-4.072,-4.0486,-3.9899,-3.9038,-3.7938,-3.6108,-3.3988,-3.2875,-3.1052,-2.9214,-2.9666,-2.8442,-2.7031,-2.8592,-2.847,-2.7055,-2.3535,-2.2736,-2.3507,-2.5723,-2.5317,-2.5065,-2.8504,-2.9896,-3.0647,-3.1518,-3.1862,-3.2611,-3.4723,-3.4587,-3.4252,-3.4768,-3.4336,-3.3868,-3.3807,-3.4458,-3.4934,-3.4819,-3.5617,-3.6399,-3.6971,-3.716,-3.7597,-3.85,-3.9079,-3.9804,-4.0782,-4.1379,-4.2104,-4.3013,-4.2287,-4.1434,-4.051,-4.0221,-3.9662,-3.8726,-3.8581,-3.8562,-3.8526,-3.7899,-3.7702,-3.7951,-3.8736,-3.9524,-4.0188,-4.0431,-4.0663,-4.0846,-4.0891,-4.0566,-4.0018,-3.9473,-3.8368,-3.7106,-3.6771,-3.5766,-3.4643,-0.6858,-0.6908,-0.6908,-0.6908,-0.6908,-0.6858,-0.6706,-0.6816,-0.685,-0.6718,-0.7123,-0.7802,-0.8781,-0.9533,-1.0684,-1.2466,-1.4126,-1.7429,-2.2944,-2.486,-2.7486,-3.1342,-3.1507,-3.2098,-3.3388,-3.3366,-3.396,-3.5209,-3.5209,-3.5649,-3.6509,-3.6509,-3.7015,-3.7986,-3.8907,-3.9433,-3.9638,-3.9704,-3.9782,-3.9763,-3.8916,-3.8055,-3.7105,-3.5449,-3.269,-2.9806,-3.0587,-2.8656,-2.5626,-2.4799,-2.2801,-2.0816,-2.1727,-2.3088,-2.3644,-2.0018,-1.8289,-1.8283,-2.173,-2.3831,-2.591,-2.9398,-3.2167,-3.4005,-3.3846,-3.4314,-3.4736,-3.4558,-3.4381,-3.4221,-3.3983,-3.4016,-3.4023,-3.3815,-3.4412,-3.4916,-3.4887,-3.6368,-3.7349,-3.7103,-3.7966,-3.8771,-3.9313,-3.9387,-4.0021,-4.156,-4.1705,-4.2049,-4.2846,-4.214,-4.1361,-4.0546,-3.9749,-3.8867,-3.7935,-3.7935,-3.7829,-3.763,-3.7594,-3.8005,-3.879,-3.9539,-4.0206,-4.0917,-4.1815,-4.2601,-4.322,-4.3346,-4.3393,-4.3173,-4.1153,-4.0027,-3.9461,-3.8217,-3.6546,-3.4883,-0.6891,-0.6874,-0.6858,-0.6891,-0.6908,-0.6891,-0.6841,-0.6837,-0.6917,-0.7139,-0.7373,0.0,0.0,0.0,0.0,0.0,-1.38,-1.6377,-1.8444,-2.2733,-2.6059,-2.8031,-2.9709,-3.1205,-3.25,-3.2519,-3.2845,-3.3532,-3.3582,-3.3735,-3.399,-3.5149,-3.5564,-3.5385,-3.6909,-3.7646,-3.7744,-3.7907,-3.8358,-3.8861,-3.8046,-3.7187,-3.6034,-3.257,-3.0528,-2.8934,0.0,-2.2664,-2.2059,-2.1845,-2.1481,-2.1307,-2.2261,-2.2481,-2.1916,-1.9467,-1.9725,-2.1441,-2.4321,-2.6395,-2.8579,-3.2026,-3.3519,-3.4236,-3.4669,-3.4802,-3.4903,-3.5188,-3.3743,-3.2582,-3.308,-3.2636,-3.2173,-3.2199,-3.3831,-3.522,-3.559,-3.6699,-3.761,-3.7927,-3.8389,-3.916,-4.0459,-4.0304,-4.0582,-4.1596,-4.2395,-4.2886,-4.3031,-4.2075,-4.1196,-4.0527,-3.91,-3.8167,-3.7703,-3.7466,-3.7392,-3.741,-3.7887,-3.8827,-4.0144,-4.0392,-4.1238,-4.2483,-4.2258,-4.2656,-4.34,-4.2894,-4.2376,-4.181,-4.0778,-3.978,-3.8828,-3.8048,-3.7172,-3.6274,-0.6891,-0.6874,-0.6858,-0.6891,-0.6908,0.0,0.0,0.0,0.0,0.0,0.0,0.0,0.0,0.0,0.0,0.0,0.0,-1.4213,-1.601,-1.9682,-2.2648,-2.4561,-2.6191,-2.764,-2.8914,-2.8933,-2.9396,-3.038,-3.1068,-3.169,-3.2271,-3.4033,-3.4737,-3.4512,-3.5718,-3.6291,-3.6366,-3.6202,-3.6338,-3.6531,-3.5081,-3.3797,-3.2331,-2.8633,-2.6437,0.0,-1.9974,-1.7978,-1.7684,-1.8406,-1.894,-1.9406,-2.0031,-2.0167,-2.0084,-2.0153,-2.1509,-2.37,-2.6918,-2.8849,-3.0733,-3.3878,-3.4628,-3.473,-3.5205,-3.5062,-3.4943,-3.5262,-3.3388,-3.1862,-3.2323,-3.1426,-3.0628,-3.0646,-3.217,-3.3813,-3.5137,-3.6159,-3.7137,-3.8022,-3.8582,-3.9412,-4.0677,-4.0808,-4.1227,-4.225,-4.2992,-4.321,-4.2723,-4.1852,-4.0937,-4.0075,-3.8668,-3.7918,-3.7875,-3.7686,-3.775,-3.8146,-3.8907,-3.981,-4.0801,-4.1102,-4.2126,-4.364,-4.3152,-4.3604,-4.4617,-4.3875,-4.323,-4.2642,-4.1428,-4.0458,-3.9634,-3.8671,-3.7987,-3.7352,-0.6908,-0.6908,-0.6908,0.0,0.0,0.0,0.0,0.0,0.0,0.0,0.0,0.0,0.0,0.0,0.0,0.0,0.0,0.0,-1.5401,-1.5801,0.0,-2.108,-2.1279,-2.188,-2.3201,-2.3172,-2.408,-2.6015,-2.7722,-2.9379,-3.0982,-3.2732,-3.3944,-3.4653,-3.4755,-3.4867,-3.4952,-3.4186,-3.3497,-3.2664,-3.0173,-2.8171,-2.6409,-2.3766,-2.0711,-1.7716,-1.6742,-1.4821,-1.2966,-1.4661,-1.5342,-1.5536,-1.5811,-1.6798,-1.8529,-2.2034,-2.3511,-2.4917,-2.92,-3.0996,-3.2267,-3.4845,-3.5493,-3.5493,-3.5493,-3.5155,-3.4775,-3.4642,-3.3145,-3.1796,-3.1436,-3.0404,-2.9513,-2.9328,-2.9927,-3.1311,-3.3919,-3.5076,-3.6147,-3.7579,-3.872,-3.961,-4.0133,-4.0917,-4.1944,-4.329,-4.3367,-4.3004,-4.2066,-4.154,-4.0648,-3.9281,-3.8469,-3.8223,-3.8451,-3.8483,-3.885,-3.9646,-4.043,-4.0801,-4.0872,-4.1651,-4.2817,-4.4227,-4.4333,-4.5205,-4.656,-4.5864,-4.5624,-4.5374,-4.2922,-4.1954,-4.1722,-3.9964,-3.8897,-3.805,0.0,0.0,0.0,0.0,0.0,0.0,0.0,0.0,0.0,0.0,0.0,0.0,0.0,0.0,0.0,0.0,0.0,0.0,-1.1448,-1.3268,0.0,0.0,0.0,0.0,0.0,0.0,0.0,-2.3367,-2.3878,-2.4328,-2.4727,-2.5837,-2.6117,-2.5729,-2.639,-2.6727,-2.6798,-2.6641,-2.6865,-2.7168,-2.5328,-2.4319,-2.3505,-1.9705,-1.7706,-1.6647,-1.4469,-1.3264,-1.2877,-1.396,-1.6014,-1.8805,-2.2662,-2.3237,-2.3018,-2.5726,-2.7119,-2.8295,-3.058,-3.234,-3.3833,-3.518,-3.5493,-3.5493,-3.5493,-3.4694,-3.3562,-3.224,-3.0395,-2.8663,-2.7394,-2.8366,-2.9375,-2.9307,-3.2106,-3.4883,-3.6615,-3.7236,-3.8033,-3.9519,-4.0173,-4.0753,-4.1399,-4.2202,-4.2828,-4.3062,-4.31,-4.2903,-4.24,-4.1345,-4.0385,-3.9537,-3.9382,-3.9246,-3.9049,-3.9365,-3.9767,-4.0267,-4.0461,-4.0848,-4.1393,-4.1604,-4.2309,-4.3324,-4.2723,-4.3068,-4.3994,-4.3289,-4.302,-4.2935,-4.1928,-4.1358,-4.0979,-4.0155,-3.9458,-3.8894,0.0,0.0,0.0,0.0,0.0,0.0,0.0,0.0,0.0,0.0,0.0,0.0,0.0,0.0,0.0,0.0,0.0,0.0,0.0,-1.1298,-1.2732,0.0,0.0,0.0,0.0,0.0,0.0,0.0,0.0,0.0,-2.0766,-2.2042,-2.2209,-2.1426,-2.227,-2.2479,-2.2221,-2.2268,0.0,0.0,0.0,-1.9817,-1.9095,-1.5598,-1.4293,-1.4089,-1.2227,-1.2796,-1.4717,-1.6704,-1.9139,-2.1913,-2.517,-2.573,-2.5637,-2.7778,-2.9278,-3.0655,-3.2653,-3.398,-3.4962,-3.582,-3.5762,-3.5185,-3.4005,-3.3127,-3.1948,-2.982,-2.7845,-2.634,-2.5837,-2.6915,-2.7998,-2.8295,-3.1289,-3.4383,-3.6609,-3.7038,-3.781,-3.9722,-4.0158,-4.0428,-4.0768,-4.1635,-4.2254,-4.2529,-4.2829,-4.2534,-4.1496,-4.0905,-4.0308,-3.9731,-3.9758,-3.9874,-4.0094,-4.062,-4.0943,-4.0972,-4.0972,-4.12,-4.1604,-4.1604,-4.2088,-4.2961,-4.2547,-4.2802,-4.3578,-4.2802,-4.251,-4.2463,-4.1629,-4.108,-4.0639,-4.0121,-3.9859,-3.9714,0.0,0.0,0.0,0.0,0.0,0.0,0.0,0.0,0.0,-0.957,-0.8589,-0.7912,0.0,0.0,0.0,0.0,0.0,0.0,0.0,0.0,-1.0316,-1.1192,0.0,0.0,0.0,0.0,0.0,0.0,0.0,0.0,0.0,0.0,0.0,0.0,0.0,0.0,0.0,0.0,0.0,0.0,-1.6356,-1.5242,-1.4329,0.0,0.0,-1.1113,-1.0371,-1.2914,-1.7112,-2.0541,-2.3032,-2.493,-2.6187,-2.6948,-2.7704,-2.9515,-3.0972,-3.2544,-3.4922,-3.5608,-3.5839,-3.6541,-3.6017,-3.4653,-3.2102,-3.1164,-3.0045,-2.7229,-2.5471,-2.4556,-2.5003,-2.5634,-2.634,-2.7135,-2.9495,-3.2369,-3.5642,-3.6063,-3.69,-3.9294,-3.9614,-3.9614,-3.9575,-4.0408,-4.1217,-4.1773,-4.2352,-4.1949,-4.0263,-4.043,-4.0477,-4.0197,-4.0197,-4.0552,-4.1318,-4.194,-4.205,-4.1604,-4.1604,-4.1604,-4.1604,-4.1604,-4.2035,-4.2837,-4.2837,-4.3253,-4.3907,-4.3217,-4.2926,-4.2802,-4.1711,-4.1042,-4.0551,-4.012,-4.016,-4.0391,0.0,0.0,0.0,0.0,0.0,0.0,0.0,0.0,0.0,0.0,-1.0311,-0.931,0.0,0.0,0.0,0.0,0.0,0.0,0.0,0.0,0.0,-1.0294,0.0,0.0,0.0,0.0,0.0,0.0,0.0,0.0,0.0,0.0,0.0,0.0,0.0,0.0,0.0,0.0,0.0,-1.338,-1.2408,-1.1933,-1.1671,0.0,0.0,0.0,-1.0205,-1.2953,-1.7103,-2.0481,-2.4173,-2.7976,-3.1678,-3.2396,-3.2201,-3.3897,-3.4552,-3.4979,-3.6157,-3.6483,-3.6541,-3.6661,-3.5556,-3.3916,-3.1949,-3.028,-2.7994,-2.3987,-2.3408,-2.3023,-2.1059,-2.3648,-2.6532,-2.7867,-3.0865,-3.4141,-3.7261,-3.7648,-3.8313,-4.0263,-4.039,-4.0363,-4.0469,-4.1278,-4.1541,-4.0892,-4.0959,-4.0867,-4.0532,-4.0449,-4.0996,-4.2254,-4.2291,-4.2349,-4.2517,-4.2623,-4.232,-4.1604,-4.1604,-4.1604,-4.1604,-4.1604,-4.1674,-4.1859,-4.1859,-4.193,-4.2097,-4.2035,-4.2009,-4.2009,-4.1909,-4.1353,-4.0576,-4.0494,-4.0475,-4.0324,0.0,0.0,0.0,0.0,0.0,0.0,0.0,-1.1756,-1.2202,-1.2827,-1.2302,-1.1448,-1.042,-0.9983,-0.9624,0.0,0.0,0.0,0.0,0.0,0.0,0.0,0.0,0.0,0.0,0.0,0.0,0.0,0.0,0.0,0.0,-1.1583,-1.1341,-1.097,-1.1397,-1.1341,0.0,0.0,-1.0997,-1.0978,-1.0618,-1.0485,0.0,0.0,0.0,0.0,0.0,-1.2956,-1.683,-1.8376,-2.3248,-2.9175,-3.2077,-3.3608,-3.4295,-3.4212,-3.5097,-3.6157,-3.655,-3.665,-3.665,-3.665,-3.5393,-3.3333,-3.0196,-2.8109,-2.5583,-2.1224,-2.0277,-2.0113,-1.9769,-2.2152,-2.4813,-2.6743,-2.9982,-3.3184,-3.5848,-3.6951,-3.8103,-3.9709,-3.9488,-3.9368,-3.9788,-3.9877,-3.9885,-3.9834,-3.9806,-3.9993,-4.0365,-4.1152,-4.1987,-4.2779,-4.3206,-4.3305,-4.3087,-4.2904,-4.2501,-4.1899,-4.1719,-4.1604,-4.1604,-4.1604,-4.1604,-4.1604,-4.1604,-4.1648,-4.1719,-4.1778,-4.177,-4.1763,-4.1653,-4.1125,-4.0525,-4.0714,-4.0809,-4.0846,0.0,0.0,0.0,0.0,0.0,0.0,0.0,-1.3044,-1.3823,-1.3918,-1.4012,-1.3464,-1.1835,-1.1013,-1.0368,0.0,0.0,0.0,0.0,0.0,0.0,0.0,0.0,0.0,0.0,0.0,0.0,0.0,0.0,0.0,0.0,0.0,0.0,0.0,-1.0443,-1.0395,-0.9808,-0.9798,-0.9805,0.0,0.0,-0.99,0.0,0.0,0.0,0.0,0.0,-1.2565,-1.5834,-1.6268,-2.1306,-2.7702,-2.9516,-3.2196,-3.4378,-3.3077,-3.4191,-3.5944,-3.6447,-3.6565,-3.6565,-3.66,-3.5345,-3.2908,-2.8383,-2.6187,-2.3743,-1.8975,-1.7629,-1.7656,-1.8812,-2.0565,-2.2612,-2.4979,-2.7983,-3.0996,-3.3805,-3.5502,-3.7063,-3.8707,-3.8346,-3.8236,-3.8961,-3.8377,-3.8263,-3.9027,-3.9389,-3.9833,-4.0452,-4.1897,-4.2798,-4.3027,-4.3503,-4.3592,-4.3283,-4.2795,-4.2379,-4.205,-4.1744,-4.1604,-4.1604,-4.1604,-4.1604,-4.1604,-4.1604,-4.1675,-4.1788,-4.1839,-4.1839,-4.1805,-4.1424,-4.093,-4.0453,-4.0656,-4.0896,-4.1143,0.0,0.0,0.0,0.0,0.0,0.0,0.0,-1.3801,-1.4595,-1.5155,-1.4913,-1.4644,-1.4438,-1.2871,-1.1666,0.0,0.0,0.0,0.0,0.0,0.0,0.0,0.0,0.0,0.0,0.0,0.0,-0.9623,-0.955,0.0,0.0,0.0,0.0,0.0,0.0,-0.9875,-0.9801,-0.9808,0.0,0.0,0.0,0.0,0.0,0.0,0.0,0.0,0.0,-1.1325,-1.3412,-1.5711,-1.8558,-2.1562,-2.4091,-2.8093,-3.184,-3.1667,-3.2321,-3.3563,-3.5886,-3.6514,-3.6514,-3.6581,-3.5335,-3.2771,-2.7669,-2.5774,-2.3434,-1.7533,-1.6841,-1.7112,-1.654,-1.8411,-2.0827,-2.3225,-2.5227,-2.8048,-3.2605,-3.4041,-3.5496,-3.7753,-3.784,-3.809,-3.8999,-3.8303,-3.8173,-3.9045,-4.0348,-4.1176,-4.1378,-4.223,-4.3045,-4.3767,-4.3231,-4.289,-4.2867,-4.2085,-4.1683,-4.1631,-4.1604,-4.1604,-4.1604,-4.1604,-4.1604,-4.1604,-4.1604,-4.1675,-4.1788,-4.1927,-4.1995,-4.1948,-4.1541,-4.1028,-4.0556,-4.0135,-4.0186,-4.0403,0.0,0.0,0.0,0.0,0.0,0.0,-1.3205,-1.4334,-1.5297,-1.5695,-1.5628,-1.5327,-1.4854,-1.3805,-1.278,-1.184,0.0,0.0,0.0,0.0,0.0,0.0,0.0,0.0,0.0,0.0,-0.9321,-0.9448,-0.9472,0.0,0.0,0.0,0.0,0.0,0.0,-0.9801,-0.9808,0.0,0.0,0.0,0.0,0.0,0.0,0.0,0.0,0.0,0.0,0.0,-1.2725,-1.3704,-1.6773,-2.0082,-1.9506,-2.2435,-2.6715,-2.9889,-3.1711,-3.3138,-3.5212,-3.5783,-3.5783,-3.5822,-3.3006,-2.9564,-2.6944,-2.3698,-2.0272,-1.6807,-1.594,-1.5855,-1.6052,-1.731,-1.9101,-2.1564,-2.3802,-2.6212,-2.9081,-3.1488,-3.3627,-3.5403,-3.5528,-3.6407,-3.8756,-3.7794,-3.7776,-3.961,-4.0792,-4.1601,-4.2036,-4.235,-4.2696,-4.3111,-4.2631,-4.2378,-4.2358,-4.2116,-4.1976,-4.1941,-4.1719,-4.1604,-4.1604,-4.1604,-4.1604,-4.1604,-4.1604,-4.1736,-4.1927,-4.1995,-4.2019,-4.2061,-4.1815,-4.1226,-4.0628,-4.0759,-4.0627,-4.0358,0.0,0.0,0.0,0.0,0.0,-1.3168,-1.3394,-1.4652,-1.571,-1.5996,-1.5996,-1.5773,-1.5237,-1.4444,-1.3633,-1.2739,-1.154,0.0,0.0,0.0,0.0,0.0,0.0,0.0,0.0,0.0,-0.996,-1.0049,-1.011,-1.0177,0.0,0.0,-1.0378,-1.04,0.0,0.0,0.0,0.0,0.0,0.0,0.0,0.0,0.0,0.0,0.0,0.0,0.0,0.0,0.0,0.0,0.0,-1.7996,-1.6601,-1.823,-2.1605,-2.6577,-2.9513,-3.1599,-3.3589,-3.4695,-3.527,-3.5308,-3.1814,-2.7982,-2.6314,-2.2369,-1.8354,-1.5875,-1.5048,-1.4916,-1.5283,-1.6428,-1.8031,-2.0277,-2.253,-2.4714,-2.68,-2.9512,-3.1797,-3.3247,-3.3568,-3.4966,-3.8256,-3.8229,-3.8719,-4.0392,-4.1299,-4.1957,-4.2368,-4.2179,-4.2193,-4.2516,-4.2011,-4.1805,-4.1938,-4.1851,-4.1902,-4.2008,-4.1762,-4.1604,-4.1604,-4.1604,-4.1604,-4.1604,-4.1604,-4.1728,-4.1937,-4.1977,-4.2083,-4.2184,-4.1733,-4.1345,-4.105,-4.0843,-4.0608,-4.0384,0.0,0.0,0.0,0.0,0.0,0.0,-1.3472,-1.468,-1.571,-1.6067,-1.6039,-1.5996,-1.5996,-1.4924,-1.4192,-1.4192,-1.2463,0.0,0.0,0.0,0.0,0.0,0.0,0.0,0.0,0.0,-1.1575,-1.1575,-1.1575,-1.1575,-1.1575,-1.1653,-1.1743,-1.1858,0.0,0.0,0.0,0.0,0.0,0.0,0.0,0.0,0.0,0.0,0.0,0.0,0.0,0.0,0.0,0.0,0.0,0.0,0.0,-1.6279,-1.7075,-2.1266,-2.4883,-2.8118,-3.0729,-3.328,-3.5226,-3.5285,-3.2679,-2.9213,-2.5863,-2.2403,-1.869,-1.4493,-1.4241,-1.456,-1.3781,-1.5629,-1.7843,-1.9544,-2.1234,-2.3454,-2.665,-2.8484,-3.0083,-3.1626,-3.2474,-3.421,-3.7479,-4.0065,-4.1494,-4.1311,-4.2018,-4.2447,-4.2386,-4.1664,-4.1572,-4.2382,-4.1427,-4.1101,-4.1484,-4.1175,-4.1221,-4.1604,-4.1604,-4.1604,-4.1604,-4.1604,-4.1604,-4.1604,-4.1604,-4.1674,-4.1789,-4.1952,-4.2185,-4.2364,-4.1254,-4.1372,-4.196,-4.0017,-3.9785,-4.0332,0.0,0.0,0.0,0.0,0.0,0.0,0.0,-1.4018,-1.5039,-1.5381,-1.5805,-1.5872,-1.5376,-1.4274,-1.3626,-1.3776,-1.2454,0.0,0.0,0.0,0.0,0.0,0.0,0.0,0.0,0.0,-1.1844,-1.2341,-1.2388,-1.2692,-1.3236,-1.2855,-1.2679,-1.2687,-1.1955,-1.1706,0.0,0.0,0.0,0.0,0.0,0.0,0.0,0.0,0.0,0.0,0.0,0.0,0.0,0.0,0.0,0.0,0.0,0.0,0.0,-1.7702,-2.0932,-2.4632,-2.7216,-2.8534,-2.9178,-2.915,-2.6155,-2.2916,-2.181,-1.889,-1.6044,-1.4701,-1.4616,-1.4719,-1.4466,-1.6005,-1.7843,-1.9532,-2.1215,-2.3041,-2.515,-2.7792,-3.0064,-3.1607,-3.5395,-3.8053,-3.8496,-4.0418,-4.1802,-4.2236,-4.2526,-4.2884,-4.3347,-4.2105,-4.1249,-4.0837,-4.0607,-4.0565,-4.0671,-4.1179,-4.1472,-4.1604,-4.1604,-4.1604,-4.1604,-4.1604,-4.1604,-4.1604,-4.1692,-4.1824,-4.1956,-4.2033,-4.1974,-4.1789,-4.1636,-4.1188,-4.0662,-4.0194,-3.986,-3.962,0.0,0.0,0.0,0.0,0.0,0.0,0.0,-1.3502,-1.4393,-1.472,-1.4898,-1.4837,-1.4364,-1.3333,-1.2715,-1.2836,-1.2209,0.0,0.0,0.0,0.0,0.0,0.0,0.0,-1.2321,-1.2641,-1.3211,-1.4026,-1.4068,-1.4341,-1.4864,-1.4456,-1.436,-1.4459,-1.3327,-1.2776,0.0,0.0,0.0,0.0,0.0,0.0,-0.9906,0.0,0.0,0.0,0.0,0.0,0.0,0.0,0.0,0.0,0.0,0.0,0.0,0.0,-1.7742,-2.0721,-2.3586,-2.5107,-2.5882,-2.5844,-2.2866,-1.9955,-1.9904,-1.7242,-1.4701,-1.441,-1.4597,-1.4794,-1.4794,-1.6174,-1.7956,-1.9939,-2.1403,-2.3064,-2.5248,-2.7849,-3.0288,-3.2418,-3.6859,-3.9404,-3.8551,-4.0937,-4.2563,-4.2693,-4.3002,-4.3262,-4.3356,-4.2477,-4.1563,-4.0681,-4.0429,-4.0455,-4.0744,-4.1321,-4.1604,-4.1604,-4.1604,-4.1604,-4.1604,-4.1604,-4.1604,-4.1604,-4.1674,-4.1807,0.0,-4.2041,-4.1964,-4.1868,-4.1612,-4.1206,-4.0759,-4.0174,-3.9897,-3.9744,0.0,0.0,0.0,0.0,0.0,0.0,0.0,-1.3124,-1.378,-1.4105,-1.359,-1.3175,-1.3128,-1.2175,-1.1521,-1.1537,0.0,0.0,0.0,0.0,0.0,0.0,0.0,0.0,-1.3578,-1.4485,-1.5436,-1.6378,-1.6431,-1.6518,-1.6622,-1.6536,-1.6647,-1.6862,-1.5189,-1.4082,0.0,0.0,0.0,0.0,-0.9906,-0.9906,0.0,0.0,0.0,0.0,0.0,0.0,0.0,0.0,0.0,0.0,0.0,0.0,0.0,0.0,0.0,0.0,0.0,-2.2562,-2.4436,-2.4467,-2.203,-1.9609,-1.9552,-1.7072,0.0,-1.3837,-1.4335,-1.4898,-1.4898,-1.6305,-1.8237,-2.0615,-2.1779,-2.348,-2.6654,-2.8725,-3.1067,-3.4173,-3.7276,-3.8915,-3.8229,-4.1679,-4.3658,-4.2841,-4.3471,-4.3582,-4.2823,-4.273,-4.2409,-4.1746,-4.0862,-4.0762,-4.1502,-4.1569,-4.1604,-4.1604,-4.1604,-4.1604,-4.1604,-4.1604,-4.1604,-4.1604,-4.1604,-4.1682,-4.1825,-4.1941,-4.2172,-4.2253,-4.1209,-4.1273,-4.1799,-3.996,-3.979,-4.0296,0.0,0.0,0.0,0.0,0.0,0.0,0.0,0.0,0.0,0.0,-1.3298,-1.299,-1.2503,-1.1419,-1.0768,0.0,0.0,0.0,0.0,0.0,0.0,0.0,0.0,0.0,-1.4502,-1.5851,-1.7076,-1.8108,-1.8673,-1.9277,-1.9863,-1.9395,-1.8878,-1.8287,-1.7266,-1.5422,0.0,0.0,0.0,0.0,-0.9906,-0.9906,0.0,0.0,0.0,0.0,-1.0589,-1.1366,0.0,0.0,0.0,0.0,0.0,0.0,0.0,0.0,-1.4954,-1.5283,-1.6092,0.0,-1.8957,-1.8367,-1.761,-1.6826,0.0,-1.5386,-1.4738,-1.456,-1.5198,-1.5789,-1.5789,-1.7667,-1.9601,-2.0802,-2.2248,-2.4339,-2.755,-3.147,-3.5199,-3.8396,-4.0044,-4.1082,-4.1489,-4.3045,-4.3931,-4.3714,-4.3862,-4.3899,-4.3695,-4.3101,-4.2909,-4.3107,-4.1939,-4.1378,-4.1559,-4.1594,-4.1604,-4.1604,-4.1604,-4.1604,-4.1604,-4.1604,-4.1604,-4.1604,-4.1692,-4.1833,-4.1964,-4.2033,-4.1729,-4.1186,-4.0888,-4.0461,-3.9927,-3.9475,-3.9441,-3.9462,0.0,0.0,0.0,0.0,0.0,0.0,0.0,0.0,0.0,0.0,0.0,-1.2097,-1.1728,-1.0712,0.0,0.0,0.0,0.0,0.0,0.0,0.0,0.0,0.0,-1.4542,-1.613,-1.711,-1.8281,-1.9661,-2.0187,-2.0675,-2.1128,-2.0777,-2.0424,-1.9993,-1.8115,-1.5746,0.0,0.0,0.0,-0.9906,-0.9906,0.0,0.0,0.0,0.0,0.0,-1.0946,-1.1903,0.0,-1.3443,-1.4128,-1.4794,0.0,0.0,0.0,0.0,-1.4794,-1.4794,-1.4794,-1.5461,-1.6042,-1.5611,-1.5508,-1.5479,-1.5404,-1.5404,-1.5498,-1.5873,-1.6324,-1.6897,-1.7667,-1.8887,-2.0314,-2.1891,-2.3514,-2.5811,-2.9394,-3.2696,-3.5843,-3.8738,-4.0174,-4.1378,-4.2594,-4.3491,-4.4005,-4.4005,-4.4005,-4.4005,-4.4005,-4.3596,-4.3478,-4.3777,-4.2721,-4.2101,-4.1967,-4.1729,-4.1604,-4.1604,-4.1604,-4.1604,-4.1604,-4.1604,-4.1604,-4.1604,-4.1674,-4.1789,-4.1903,-4.1732,-4.1455,-4.1012,-4.0573,-4.0101,-3.9594,-3.9392,-3.9358,-3.9246,0.0,0.0,0.0,0.0,0.0,0.0,0.0,0.0,0.0,0.0,0.0,0.0,0.0,0.0,0.0,0.0,0.0,0.0,0.0,0.0,0.0,0.0,0.0,-1.495,-1.7798,-1.8414,-1.9482,-2.107,-2.1408,-2.1604,-2.1666,-2.1624,-2.158,-2.1425,-1.8279,-1.5637,0.0,0.0,-1.0573,-0.9894,-0.99,0.0,0.0,0.0,0.0,0.0,0.0,0.0,0.0,-1.3743,-1.4241,-1.4794,-1.4794,0.0,0.0,0.0,0.0,0.0,-1.4794,-1.5179,-1.5489,-1.5104,-1.501,-1.5217,-1.609,-1.6278,-1.6503,-1.7318,-1.7581,-1.8144,-1.9713,-2.0201,-2.1046,-2.3164,-2.5305,-2.8034,-3.1861,-3.3852,-3.5771,-3.8118,-3.9692,-4.1193,-4.2743,-4.3565,-4.4005,-4.4005,-4.4005,-4.3955,-4.3923,-4.3974,-4.3955,-4.386,-4.3177,-4.2657,-4.2378,-4.1874,-4.1604,-4.1604,-4.1604,-4.1604,-4.1604,-4.1604,-4.1604,-4.1604,-4.1604,-4.163,-4.1683,-4.1361,-4.1186,-4.1124,-4.0324,-3.9967,-3.9831,-3.9441,-3.9375,-3.9262,0.0,0.0,0.0,0.0,0.0,0.0,0.0,0.0,0.0,0.0,0.0,0.0,0.0,0.0,0.0,0.0,0.0,0.0,0.0,0.0,0.0,0.0,-1.4918,-1.6593,-1.8115,-2.0068,-2.1458,-2.2231,-2.2955,-2.3318,-2.3322,-2.3389,-2.2666,-2.1201,-1.8157,-1.5837,-1.4023,-1.1893,-1.054,-0.9811,-0.9882,0.0,0.0,0.0,0.0,0.0,0.0,0.0,0.0,-1.4391,-1.471,-1.4794,-1.4794,0.0,0.0,0.0,0.0,0.0,-1.4794,-1.6899,-1.8606,-1.6438,-1.5902,-1.6109,-1.6924,-1.7112,-1.7337,-1.8155,-1.8906,-1.9713,-2.0633,-2.1966,-2.307,-2.3445,-2.7662,-3.1849,-3.4614,-3.7404,-3.9616,-4.0874,-4.179,-4.2687,-4.3695,-4.3931,-4.4005,-4.4005,-4.4005,-4.3841,-4.3508,-4.3809,-4.3744,-4.3159,-4.2922,-4.2657,-4.2378,-4.1874,-4.1604,-4.1604,-4.1604,-4.1604,-4.1604,-4.1604,-4.1604,-4.1604,-4.1604,-4.1468,-4.1296,-4.1243,-4.0806,-4.0188,-4.0034,-3.9764,-3.9392,-3.9342,-3.9342,-3.9143,0.0,0.0,0.0,0.0,0.0,0.0,0.0,0.0,0.0,0.0,0.0,0.0,0.0,0.0,0.0,0.0,0.0,0.0,0.0,0.0,0.0,-1.3126,-1.5826,-1.791,-1.9302,-2.1045,-2.2475,-2.3625,-2.4154,-2.44,-2.44,-2.3991,-2.2964,-2.1352,-1.9095,-1.6762,-1.4389,-1.2456,-1.0953,-0.9869,0.0,0.0,0.0,0.0,0.0,0.0,0.0,0.0,0.0,0.0,-1.4794,-1.4794,-1.4794,0.0,0.0,0.0,0.0,0.0,-1.5367,-1.6655,-1.8219,-1.9762,-2.0521,-2.1193,-2.2475,-2.2758,-2.2739,-2.2623,-2.2924,-2.3023,-2.2468,-2.3727,-2.5686,-2.826,-3.0831,-3.3352,-3.5751,-3.7357,-3.8952,-4.064,-4.1586,-4.26,-4.3875,-4.4005,-4.4005,-4.4005,-4.3809,-4.3594,-4.3406,-4.3371,-4.3212,-4.2885,-4.2619,-4.244,-4.2297,-4.1831,-4.1604,-4.1604,-4.1604,-4.1604,-4.1604,-4.1604,-4.1604,-4.1604,-4.1367,-4.1209,-4.1068,-4.0671,-4.0256,-3.9934,-3.9731,-3.9458,-3.9272,-3.9272,-3.8828,-3.8116,0.0,0.0,0.0,0.0,0.0,0.0,0.0,0.0,0.0,0.0,0.0,0.0,0.0,0.0,0.0,0.0,0.0,0.0,0.0,0.0,-1.1829,-1.3428,-1.6433,-1.8775,-2.0362,-2.1759,-2.3195,-2.4682,-2.4901,-2.5009,-2.4972,-2.4176,-2.3004,-2.1516,-2.0111,-1.7789,-1.4814,-1.3188,-1.161,-1.0132,0.0,0.0,0.0,0.0,0.0,0.0,0.0,0.0,0.0,0.0,0.0,0.0,0.0,0.0,0.0,-1.4794,-1.4935,-1.5254,-1.5921,-1.6964,-1.8772,-2.2631,-2.3658,-2.4389,-2.7062,-2.7214,-2.6783,-2.6695,-2.6679,-2.6268,-2.4907,-2.5684,-2.796,-3.2415,-3.3413,-3.4513,-3.6999,-3.7867,-3.885,-4.0581,-4.1586,-4.2649,-4.3875,-4.4005,-4.4005,-4.4005,-4.3627,-4.3371,-4.3248,-4.2996,-4.281,-4.2657,-4.24,-4.2257,-4.2198,-4.1788,-4.1604,-4.1604,-4.1604,-4.1604,-4.1604,-4.1604,-4.1604,-4.1587,-4.1253,-4.1024,-4.0771,-4.027,-3.9917,-3.9644,-3.9392,-3.9272,-3.9272,-3.9272,-3.8465,-3.732,0.0,0.0,0.0,0.0,0.0,0.0,0.0,0.0,0.0,0.0,0.0,0.0,0.0,0.0,0.0,0.0,0.0,0.0,0.0,0.0,-1.2094,-1.4309,-1.6841,-1.8965,-2.0618,-2.2357,-2.3799,-2.4968,-2.499,-2.5009,-2.4972,-2.4176,-2.298,-2.1478,-2.066,-1.8535,-1.5453,-1.4011,-1.2443,-1.0852,-1.0188,0.0,0.0,0.0,0.0,0.0,0.0,0.0,0.0,0.0,0.0,0.0,0.0,0.0,-1.4794,-1.4794,-1.5367,-1.6015,-1.6071,-1.9517,-2.314,-2.3512,-2.187,-2.1631,-2.7239,-2.6676,-2.5642,-2.7954,-2.8426,-2.8353,-2.8173,-2.809,-2.9173,-3.2624,-3.4338,-3.6318,-3.9507,-4.1327,-4.2396,-4.2508,-4.3274,-4.3875,-4.3986,-4.4005,-4.4005,-4.4005,-4.3627,-4.3248,-4.2867,-4.2922,-4.2752,-4.2239,-4.2338,-4.2338,-4.2198,-4.1788,-4.1604,-4.1604,-4.1604,-4.1604,-4.1604,-4.1604,-4.1604,-4.1604,-4.1587,-4.108,-4.0268,-4.0321,-3.9831,-3.9069,-3.9239,-3.9272,-3.9272,-3.9272,-3.8465,-3.727,0.0,0.0,0.0,0.0,0.0,0.0,0.0,0.0,0.0,0.0,0.0,0.0,0.0,0.0,0.0,0.0,0.0,0.0,0.0,0.0,-1.2119,-1.4393,-1.7051,-1.917,-2.0741,-2.2513,-2.4185,-2.5751,-2.5751,-2.5751,-2.5715,-2.4411,-2.3002,-2.1534,-2.075,-1.8672,-1.5709,-1.4672,-1.3002,-1.1086,-1.134,-1.1636,0.0,0.0,0.0,0.0,0.0,0.0,0.0,0.0,-1.4794,-1.4794,-1.4794,-1.4794,-1.4916,-1.5442,-1.5846,-1.6428,-1.7986,-2.054,-2.3291,-2.5382,-2.4764,-2.5081,-3.0483,-3.0956,-3.0691,-3.2202,-3.2089,-3.1355,-3.0189,-3.0611,-3.1894,-3.4232,-3.5887,-3.7664,-3.9896,-4.1398,-4.2369,-4.2711,-4.3571,-4.4085,-4.4005,-4.4005,-4.4005,-4.4005,-4.3627,-4.3212,-4.281,-4.2675,-4.2418,-4.1959,-4.2019,-4.2002,-4.1959,-4.1719,-4.1604,-4.1604,-4.1604,-4.1604,-4.1604,-4.1604,-4.1604,-4.1587,-4.107,-4.0637,-4.0285,-3.9882,-3.9528,-3.9189,-3.9255,-3.9272,-3.9272,-3.9272,-3.8695,-3.7783,0.0,0.0,0.0,0.0,0.0,0.0,0.0,0.0,0.0,0.0,0.0,0.0,0.0,0.0,0.0,0.0,0.0,0.0,-1.2581,-1.1679,-1.2252,-1.4824,-1.697,-1.897,-2.0849,-2.2367,-2.4011,-2.5823,-2.5823,-2.5823,-2.5787,-2.4429,-2.2984,-2.1553,-2.1024,-1.9204,-1.6497,-1.5484,-1.396,-1.2242,-1.2304,-1.2515,0.0,0.0,0.0,0.0,0.0,0.0,0.0,0.0,-1.4203,-1.4429,-1.4429,-1.4597,-1.4973,-1.5846,-1.6278,-1.6953,-1.9206,-2.1016,-2.3037,-2.612,-2.6648,-2.7603,-3.2183,-3.2807,-3.2883,-3.4547,-3.4414,-3.358,-3.2332,-3.2978,-3.4191,-3.5615,-3.7161,-3.8665,-3.9997,-4.1176,-4.2016,-4.2333,-4.2958,-4.3341,-4.3182,-4.3182,-4.3293,-4.3565,-4.3225,-4.2957,-4.2867,-4.2559,-4.2251,-4.1884,-4.1841,-4.1841,-4.178,-4.1692,-4.1648,-4.1604,-4.1604,-4.1604,-4.1604,-4.1604,-4.1604,-4.1542,-4.0886,-4.0487,-4.0312,-3.9711,-3.9408,-3.9272,-3.9272,-3.9272,-3.9272,-3.9272,-3.8728,-3.7849,0.0,0.0,0.0,0.0,0.0,0.0,0.0,0.0,0.0,0.0,0.0,0.0,0.0,0.0,0.0,0.0,0.0,0.0,-1.3295,-1.1957,-1.254,-1.5746,-1.6601,-1.8278,-2.1003,-2.1875,-2.3199,-2.5009,-2.5009,-2.5009,-2.4972,-2.4157,-2.2962,-2.1495,-2.1571,-2.0255,-1.7896,-1.6428,-1.5388,-1.4553,-1.2882,-1.2776,-1.3593,0.0,0.0,0.0,0.0,0.0,0.0,0.0,-1.2925,-1.3593,-1.3593,-1.4147,-1.4973,-1.5846,-1.6691,-1.7675,-1.9363,-2.1065,-2.2938,-2.5405,-2.6701,-2.8244,-3.1635,-3.1069,-3.0806,-3.4225,-3.4866,-3.4787,-3.4727,-3.5146,-3.5758,-3.6474,-3.7986,-3.9314,-3.9993,-4.1129,-4.1764,-4.1427,-4.1512,-4.1549,-4.1416,-4.1416,-4.1761,-4.2631,-4.2331,-4.2355,-4.2959,-4.2598,-4.2274,-4.197,-4.1987,-4.1927,-4.1762,-4.1762,-4.1719,-4.1587,-4.1604,-4.1604,-4.1604,-4.1604,-4.1604,-4.156,-4.1157,-4.07,-4.0172,-3.996,-3.9628,-3.9272,-3.9272,-3.9272,-3.9272,-3.9309,-3.8465,-3.732,0.0,0.0,0.0,0.0,0.0,0.0,0.0,0.0,0.0,0.0,0.0,0.0,0.0,0.0,0.0,0.0,0.0,0.0,-1.2626,-1.1829,-1.225,-1.434,-1.6393,-1.811,-1.9448,-2.1518,-2.3368,-2.5009,-2.5009,-2.5009,-2.4972,-2.365,-2.2491,-2.1477,-2.0934,-1.9696,-1.7917,-1.6922,-1.576,-1.4526,-1.4127,-1.3794,-1.3588,0.0,0.0,0.0,0.0,0.0,0.0,0.0,0.0,0.0,-1.3593,-1.4147,-1.5085,-1.6511,-1.7112,-1.7918,-2.0783,-2.3677,-2.6038,-2.6739,-2.8921,-3.1145,-3.2182,-3.2392,-3.3185,-3.5956,-3.65,-3.6308,-3.566,-3.6002,-3.6497,-3.6777,-3.7646,-3.8614,-3.9407,-4.0454,-4.1076,-4.0914,-4.1446,-4.1745,-4.1579,-4.1549,-4.1612,-4.1761,-4.1686,-4.1449,-4.1107,-4.107,-4.0825,-4.0259,-4.0217,-4.0217,-4.0158,-4.0662,-4.0858,-4.0814,-4.1341,-4.1604,-4.1604,-4.1604,-4.135,-4.0901,-4.0642,-4.0234,-3.9581,-3.8963,-3.897,-3.9239,-3.8698,-3.8834,-3.9259,-3.8797,-3.8452,-3.797,0.0,0.0,0.0,0.0,0.0,0.0,0.0,0.0,-1.3429,-1.3412,-1.3413,-1.3429,0.0,0.0,0.0,-1.3478,-1.237,0.0,-1.2362,-1.1749,-1.2131,-1.3842,-1.5431,-1.6956,-1.8412,-2.0607,-2.2202,-2.3125,-2.4067,-2.452,-2.4502,-2.327,-2.2274,-2.1459,-2.0662,-1.961,-1.8349,-1.7238,-1.6237,-1.5362,-1.4811,-1.4124,-1.3532,0.0,0.0,0.0,0.0,0.0,0.0,0.0,0.0,0.0,-1.3011,-1.3687,-1.4701,-1.6656,-1.7457,-1.8491,-2.207,-2.4785,-2.6987,-2.8615,-3.0563,-3.2422,-3.3736,-3.4273,-3.496,-3.6406,-3.7254,-3.7551,-3.6975,-3.7398,-3.7841,-3.786,-3.8226,-3.8712,-3.9223,-3.9895,-4.0284,-4.0162,-4.0566,-4.0811,-4.0634,-4.0548,-4.0637,-4.091,-4.0725,-4.0525,-4.0402,-4.0275,-3.9976,-3.9534,-3.9511,-3.9488,-3.9488,-3.9905,-4.0067,-4.0024,-4.0481,-4.0691,-4.0795,-4.1411,-4.1341,-4.0726,-4.0374,-3.9885,-3.9308,-3.8841,-3.8884,-3.9206,-3.8474,-3.8441,-3.8758,-3.8184,-3.782,-3.7486,0.0,0.0,0.0,0.0,0.0,0.0,0.0,-1.3562,-1.3496,-1.3429,-1.3429,-1.3477,0.0,0.0,0.0,-1.3617,-1.2953,-1.2502,-1.2444,-1.1765,-1.2107,-1.3806,-1.3964,-1.5162,-1.7636,-1.9177,-2.0047,-2.0192,-2.2473,-2.3578,-2.356,-2.2835,-2.2093,-2.1369,-2.0554,-1.9775,-1.8978,-1.7382,-1.6737,-1.6661,-1.4971,-1.3934,-1.3382,-1.3412,0.0,0.0,0.0,0.0,0.0,0.0,0.0,0.0,-1.2136,-1.2944,-1.4063,-1.644,-1.7845,-1.9444,-2.3196,-2.5058,-2.6884,-3.0664,-3.1779,-3.2723,-3.571,-3.6325,-3.6241,-3.6255,-3.7423,-3.8437,-3.8465,-3.8989,-3.9395,-3.9324,-3.9324,-3.9324,-3.9324,-3.9464,-3.9508,-3.9343,-3.9324,-3.9245,-3.9129,-3.896,-3.9206,-3.9986,-3.9585,-3.9545,-4.0185,-3.9743,-3.9434,-3.9368,-3.9282,-3.9276,-3.9276,-3.9347,-3.9324,-3.9199,-3.9269,-3.9346,-3.9523,-4.1004,-4.1428,-4.0913,-4.0103,-3.9525,-3.9172,-3.9106,-3.909,-3.9043,-3.8302,-3.8051,-3.803,-3.7436,-3.6885,-3.6396,0.0,0.0,0.0,0.0,0.0,0.0,-1.3487,-1.3593,-1.3562,-1.3562,-1.3591,-1.3652,-1.3684,-1.3756,0.0,-1.3751,-1.3074,-1.2693,-1.279,-1.2097,-1.1891,-1.2342,-1.2979,-1.4149,-1.5976,-1.6968,-1.8089,-1.9359,-2.1133,-2.1984,-2.1984,-2.1188,-2.0717,-2.0518,-1.9721,-1.925,-1.8978,-1.7382,-1.6708,-1.6537,-1.4391,-1.3458,-1.3278,-1.2813,-1.2094,0.0,0.0,0.0,0.0,0.0,0.0,0.0,-1.2136,-1.2944,-1.4072,-1.6547,-1.908,-2.1615,-2.3781,-2.7243,-3.0471,-3.1385,-3.3099,-3.476,-3.5414,-3.6493,-3.7511,-3.8007,-3.805,-3.8156,-3.8819,-3.9275,-3.9533,-3.9533,-3.9552,-3.9552,-3.9552,-3.9439,-3.9413,-3.9508,-3.9413,-3.9298,-3.9272,-3.898,-3.8773,-3.8706,-3.847,-3.8186,-3.7931,-3.7891,-3.7795,-3.7598,-3.7558,-3.7519,-3.7519,-3.8116,-3.8415,-3.8374,-3.9006,-3.9322,-3.9381,-4.0398,-4.0725,-4.048,-3.9377,-3.8671,-3.8236,-3.7758,-3.7562,-3.75,-3.6771,-3.6887,-3.7419,-3.6835,-3.653,-3.6421,0.0,0.0,0.0,0.0,0.0,0.0,0.0,0.0,-1.258,-1.2552,-1.2634,-1.2731,-1.2772,-1.2816,0.0,0.0,-1.2799,-1.2687,-1.2377,-1.2018,-1.1668,-1.1382,-1.2136,-1.2941,-1.3763,-1.456,-1.5574,-1.6805,-1.8037,-1.9612,-2.1477,-2.068,-2.03,-2.0264,-1.9449,-1.8888,-1.8451,-1.7219,-1.6476,-1.5986,-1.4411,-1.3552,-1.3172,-1.2938,-1.2304,-1.153,-1.1217,0.0,0.0,0.0,0.0,0.0,0.0,0.0,-1.3415,-1.5388,-1.7924,-2.0855,-2.4318,-2.7376,-3.007,-3.1968,-3.4348,-3.6054,-3.564,-3.6728,-3.793,-3.8287,-3.829,-3.8358,-3.882,-3.9027,-3.911,-3.911,-3.9256,-3.9362,-3.9362,-3.9413,-3.9464,-3.9577,-3.942,-3.9324,-3.9439,-3.8998,-3.867,-3.856,-3.8083,-3.7667,-3.7411,-3.7279,-3.7126,-3.7009,-3.6987,-3.6987,-3.6987,-3.7374,-3.7567,-3.7567,-3.8028,-3.8385,-3.8649,-3.9129,-3.9399,-3.9371,-3.8254,-3.7683,-3.7546,-3.7251,-3.7102,-3.7019,-3.6355,-3.637,-3.6703,-3.6162,-3.6017,-3.598,0.0,0.0,0.0,0.0,0.0,0.0,0.0,0.0,0.0,-1.1436,-1.1552,-1.1694,-1.1797,-1.1783,-1.1777,0.0,0.0,0.0,-1.2064,-1.2039,-1.1747,-1.1049,-1.1658,-1.1975,-1.1926,-1.2579,-1.3292,-1.4076,-1.4891,-1.7062,-2.0463,-2.0065,-1.9884,-1.9866,-1.934,-1.8634,-1.7853,-1.7037,-1.6226,-1.5415,-1.45,-1.3733,-1.3138,-1.3104,-1.2686,-1.2067,-1.1471,-1.122,-1.1073,-1.0345,0.0,0.0,0.0,0.0,-1.2464,-1.4048,-1.641,-1.9499,-2.4148,-2.6566,-2.8757,-3.2651,-3.5113,-3.6435,-3.5928,-3.6841,-3.7821,-3.7966,-3.8346,-3.8609,-3.8609,-3.8609,-3.8609,-3.8609,-3.8836,-3.8998,-3.8998,-3.921,-3.9406,-3.9413,-3.9264,-3.9219,-3.9413,-3.8884,-3.8535,-3.8591,-3.7948,-3.7521,-3.7447,-3.7164,-3.6987,-3.6987,-3.6987,-3.6987,-3.6987,-3.6987,-3.6987,-3.6987,-3.7069,-3.7263,-3.7607,-3.7617,-3.786,-3.822,-3.7286,-3.6884,-3.6853,-3.6887,-3.6837,-3.6638,-3.6181,-3.598,-3.5937,-3.5572,-3.5446,-3.5492,0.0,0.0,0.0,0.0,0.0,0.0,0.0,0.0,0.0,0.0,-1.1745,-1.1841,-1.1794,-1.1898,-1.1968,-1.1965,-1.2056,-1.2365,-1.2968,0.0,0.0,-1.1955,-1.1971,-1.2006,-1.1994,-1.2084,-1.251,-1.3256,-1.4058,-1.509,-1.632,-1.762,-1.8234,-1.8252,-1.8833,-1.8634,-1.7853,-1.7037,-1.6226,-1.5361,-1.3925,-1.3315,-1.3201,-1.2518,-1.2271,-1.2257,-1.2039,-1.1591,-1.1083,-1.0916,-1.0398,0.0,0.0,0.0,-1.1636,-1.3912,-1.7187,-2.0384,-2.1826,-2.5768,-3.0278,-3.361,-3.4679,-3.5077,-3.5675,-3.6392,-3.7172,-3.7857,-3.8135,-3.8281,-3.8281,-3.8455,-3.8609,-3.8609,-3.864,-3.8688,-3.8688,-3.8615,-3.8585,-3.8718,-3.8615,-3.8585,-3.8718,-3.8378,-3.805,-3.7703,-3.7485,-3.7182,-3.6846,-3.6948,-3.6987,-3.6987,-3.6987,-3.6987,-3.6987,-3.6987,-3.6987,-3.6987,-3.7069,-3.6891,-3.6513,-3.6173,-3.6644,-3.7682,-3.7103,-3.6536,-3.5993,-3.6075,-3.5744,-3.5181,-3.5096,-3.5157,-3.5238,-3.5185,-3.5245,-3.5354,0.0,0.0,0.0,0.0,0.0,0.0,0.0,0.0,0.0,0.0,0.0,-0.9985,-0.9958,-0.9573,-0.9322,-0.9359,-0.9737,-1.0339,-1.1178,-1.1653,-1.1544,-1.072,-1.0675,-1.0658,-1.0649,-1.1095,-1.1705,-1.2481,-1.3297,-1.4083,0.0,-1.6008,-1.6787,-1.7237,-1.7599,-1.7294,-1.6534,-1.6171,-1.5556,-1.4777,-1.412,-1.4995,-1.6431,-1.4276,-1.4655,-1.6026,-1.3669,-1.2668,-1.2292,-1.1325,-1.0759,-1.0469,-1.0364,0.0,0.0,0.0,-1.4664,-1.7975,-2.2335,-2.7574,-3.2162,-3.3574,-3.5276,-3.6363,-3.5367,-3.6403,-3.7546,-3.7471,-3.7778,-3.8034,-3.7931,-3.8016,-3.8117,-3.8117,-3.8216,-3.8346,-3.8378,-3.8442,-3.8535,-3.8579,-3.8504,-3.8523,-3.864,-3.8314,-3.8068,-3.8016,-3.7792,-3.7484,-3.7087,-3.7164,-3.7164,-3.7009,-3.6987,-3.6987,-3.6987,-3.7391,-3.791,-3.847,-3.7976,-3.7484,-3.6928,-3.6697,-3.6452,-3.6245,-3.5761,-3.5465,-3.5283,-3.5379,-3.5197,-3.4899,-3.4994,-3.5041,-3.5105,-3.5182,-3.5291,-3.54,0.0,0.0,0.0,0.0,0.0,0.0,0.0,0.0,0.0,0.0,0.0,-0.8571,-0.8791,0.0,0.0,0.0,-0.7916,-0.8477,-0.9349,-1.0149,-1.0306,-0.9649,-0.9631,-0.9524,-0.9299,-1.0074,-1.0785,-1.1386,-1.2404,-1.3291,-1.4034,-1.4831,-1.5551,-1.6127,-1.653,-1.6258,-1.5501,-1.5488,-1.5049,-1.4427,-1.5496,-1.742,-1.9381,-1.7201,-1.7918,-1.9619,-1.5702,-1.4068,-1.3598,-1.2315,-1.148,-1.0874,-1.0279,-1.0343,0.0,0.0,0.0,-1.5814,-2.2348,-2.7182,-3.0822,-3.2632,-3.4588,-3.591,-3.5349,-3.629,-3.7214,-3.7033,-3.7398,-3.7695,-3.7522,-3.7613,-3.7703,-3.7757,-3.788,-3.8034,-3.8101,-3.83,-3.841,-3.841,-3.8364,-3.8382,-3.8504,-3.8234,-3.8086,-3.8186,-3.7967,-3.7739,-3.7411,-3.7374,-3.7279,-3.7105,-3.7027,-3.6987,-3.6987,-3.7725,-3.8385,-3.8934,-3.8373,-3.7755,-3.6974,-3.6816,-3.6134,-3.5021,-3.4724,-3.474,-3.4899,-3.4899,-3.4899,-3.4899,-3.4994,-3.5041,-3.5041,-3.5152,-3.5245,-3.5337,0.0,0.0,0.0,0.0,0.0,0.0,0.0,0.0,0.0,0.0,0.0,-0.8791,-0.9551,-0.892,-0.8443,-0.8443,-0.777,-0.7702,-0.8516,-0.9313,-0.9735,-0.9698,-0.9698,0.0,-0.8486,-0.9249,-0.968,-0.9729,-1.1295,-1.2466,-1.3266,-1.4071,-1.4471,-1.458,-1.6055,-1.6254,-1.5501,-1.5501,-1.5067,-1.4738,-1.8624,-2.0333,-2.0602,-2.1193,-2.1609,-2.143,-1.796,-1.5772,-1.4515,-1.4357,-1.2792,-1.0902,-1.0865,-1.0308,-0.981,0.0,0.0,0.0,-2.0336,-2.1912,-2.3759,-3.055,-3.1238,-3.1383,-3.5869,-3.5783,-3.5204,-3.6671,-3.7015,-3.7,-3.6883,-3.7307,-3.7757,-3.7864,-3.7792,-3.7757,-3.7899,-3.7934,-3.7934,-3.7934,-3.7934,-3.7934,-3.7934,-3.7934,-3.7828,-3.7667,-3.7667,-3.7631,-3.7413,-3.7354,-3.7297,-3.7297,-3.7105,-3.6987,-3.6987,-3.7725,-3.7777,-3.715,-3.7474,-3.7008,-3.5888,-3.547,-3.5038,-3.456,-3.4771,-3.4899,-3.4899,-3.4899,-3.4899,-3.4899,-3.4899,-3.4899,-3.4899,-3.4899,-3.4947,-3.4899,0.0,0.0,0.0,0.0,0.0,0.0,0.0,0.0,0.0,0.0,0.0,0.0,0.0,-0.821,-0.7739,-0.7739,-0.7469,-0.7187,-0.6914,-0.7678,-0.8162,-0.8162,-0.8162,-0.8008,-0.7702,-0.8484,-0.9136,-0.9607,-1.0685,-1.1915,-1.3216,-1.3489,-1.3937,-1.449,-1.4994,-1.5059,-1.4779,-1.4785,-1.4943,-1.5441,-1.8492,-2.134,-2.3602,-2.2348,-2.4173,-2.6797,-2.2408,0.0,-1.9059,-1.7945,-1.5637,-1.2947,-1.1388,-1.0656,-1.0429,-1.0713,-1.1737,-1.3709,-1.8018,-2.0318,-2.26,-2.72,-3.0242,-3.2288,-3.2977,-3.5095,-3.6635,-3.5657,-3.6689,-3.7594,-3.7036,-3.746,-3.7915,-3.7967,-3.7881,-3.7846,-3.7933,-3.7934,-3.7899,-3.7899,-3.7951,-3.7967,-3.7967,-3.8038,-3.8072,-3.8003,-3.8003,-3.7951,-3.7721,-3.7703,-3.7576,-3.7297,-3.722,-3.7373,-3.769,-3.797,-3.8135,-3.8279,-3.7826,-3.7136,-3.6299,-3.5537,-3.4935,-3.4512,-3.4611,-3.4691,-3.4769,-3.4866,-3.4899,-3.4899,-3.4899,-3.4899,-3.4899,-3.4899,-3.4947,-3.4994,0.0,0.0,0.0,0.0,0.0,0.0,0.0,0.0,-0.9099,-0.9625,0.0,0.0,0.0,0.0,-0.7996,-0.7721,-0.7187,-0.6612,-0.6033,-0.6295,-0.6465,-0.6465,-0.6465,-0.6465,-0.6465,-0.725,-0.8179,-0.9228,-1.0017,-1.1233,-1.28,-1.28,-1.3114,-1.3666,-1.3922,-1.4191,-1.4435,-1.4405,-1.4872,-1.5968,-1.9822,-2.3179,-2.5779,-2.4727,-2.6665,-2.9377,-2.4982,-2.3052,-2.2464,-2.1637,-1.9748,-1.7252,-1.4249,-1.2149,-1.0757,-1.0485,-1.0939,-1.2234,-1.5424,-1.7656,-2.0047,-2.4031,-2.7453,-3.017,-3.1492,-3.3864,-3.562,-3.5113,-3.6272,-3.7232,-3.6689,-3.7181,-3.7763,-3.8034,-3.7985,-3.7951,-3.8036,-3.8038,-3.8003,-3.8003,-3.802,-3.807,-3.807,-3.814,-3.8192,-3.8192,-3.8192,-3.8158,-3.8021,-3.7934,-3.7721,-3.7297,-3.7544,-3.7839,-3.8134,-3.8292,-3.8412,-3.8529,-3.7585,-3.678,-3.6038,-3.5232,-3.4717,-3.4431,-3.4464,-3.4562,-3.4642,-3.4787,-3.4851,-3.4851,-3.4899,-3.4899,-3.4899,-3.4899,-3.4899,-3.4787,0.0,0.0,0.0,0.0,0.0,0.0,0.0,0.0,-0.7929,-0.9504,0.0,0.0,0.0,0.0,0.0,-0.8571,-0.6987,-0.6033,-0.5997,-0.5255,-0.4793,-0.4793,-0.4793,-0.4793,-0.4793,-0.557,-0.6767,-0.8424,-0.9173,-1.0355,-1.1928,-1.1964,-1.1983,-1.2038,-1.2884,-1.3699,-1.4464,-1.4447,-1.4934,-1.629,-2.283,-2.5943,-2.6866,-2.8544,-2.9208,-2.8817,-2.5551,-2.4373,-2.4503,-2.5293,-2.4905,-2.34,-1.9289,-1.4689,-1.0656,-0.9873,-1.0167,-1.1112,0.0,0.0,0.0,-2.1115,-2.258,-2.4538,-3.151,-3.1981,-3.1854,-3.5023,-3.5711,-3.5747,-3.5802,-3.6435,-3.7229,-3.7993,-3.8016,-3.7964,-3.8119,-3.8119,-3.8119,-3.8119,-3.8138,-3.8156,-3.8119,-3.8156,-3.8174,-3.8156,-3.8174,-3.8192,-3.8192,-3.8021,-3.7703,-3.7317,-3.7969,-3.832,-3.8201,-3.8579,-3.8322,-3.7542,-3.6608,-3.5785,-3.4975,-3.4529,-3.4284,-3.4301,-3.4431,-3.4481,-3.448,-3.4627,-3.4691,-3.4691,-3.4851,-3.4899,-3.4899,-3.4899,-3.4643,-3.425,0.0,0.0,0.0,0.0,0.0,-0.9111,-0.9326,-0.9178,-0.9197,0.0,0.0,0.0,-0.9971,-0.9835,-0.9386,-0.8571,-0.7549,-0.6668,-0.6033,-0.5255,-0.4793,-0.4793,-0.4793,-0.4793,-0.4793,-0.5013,-0.5644,-0.6694,-0.7525,-0.8755,-1.0343,-1.0921,-1.1507,-1.2085,-1.2315,-1.2884,-1.371,-1.4849,-1.5819,-1.7137,-2.3658,-2.6438,-2.6993,-2.9775,-3.1658,-3.2418,-2.9568,-2.8633,-2.8759,-2.8864,-2.6007,-2.1639,-1.6977,-1.3332,-1.0766,-1.0538,-1.0201,-1.0157,-1.1167,0.0,0.0,0.0,0.0,0.0,-2.5226,-2.7978,-3.0532,-3.2017,-3.3248,-3.4425,-3.5602,-3.5983,-3.62,-3.6435,-3.6421,-3.6421,-3.6472,-3.6472,-3.6472,-3.6472,-3.6979,-3.7087,-3.6526,-3.7522,-3.7938,-3.7359,-3.7848,-3.8192,-3.8192,-3.8021,-3.7559,-3.688,-3.7248,-3.7105,-3.6348,-3.7265,-3.709,-3.5876,-3.6092,-3.5593,-3.448,-3.4366,-3.4267,-3.4134,-3.4184,-3.4249,-3.4364,-3.4578,-3.4706,-3.4704,-3.4866,-3.4899,-3.4899,-3.4994,-3.4994,-3.4851,0.0,0.0,-0.8169,-0.8921,-0.9428,-0.9743,-0.9747,-0.9747,-0.9728,0.0,0.0,0.0,-1.0242,-1.0283,-1.0069,-0.9577,-0.8501,-0.7608,-0.7084,-0.5955,-0.5291,-0.5291,-0.4976,-0.4958,-0.5291,-0.5291,-0.5882,-0.7042,-0.7549,-0.8449,-0.9717,-1.0186,-1.0645,-1.1104,-1.1452,-1.204,-1.2913,-1.4524,-1.585,-1.7444,-2.3621,-2.6323,-2.7006,-3.0341,-3.2199,-3.2736,-3.06,-3.0485,-3.1352,-3.125,-2.7677,-2.2703,-1.9161,-1.5423,-1.2149,-1.1141,-1.0483,-1.021,-1.0667,-1.1486,-1.2648,-1.4574,0.0,0.0,-2.3526,-2.6584,-2.95,-3.1981,-3.3773,-3.5095,-3.5693,-3.6073,-3.62,-3.5856,-3.553,-3.5421,-3.5765,-3.6381,-3.6562,-3.5892,-3.683,-3.7065,-3.591,-3.6975,-3.7392,-3.6544,-3.7232,-3.783,-3.8174,-3.809,-3.7753,-3.7216,-3.7574,-3.7394,-3.6663,-3.7016,-3.6729,-3.5676,-3.5573,-3.5021,-3.4201,-3.4234,-3.4184,-3.4101,-3.4151,-3.4217,-3.4315,-3.4611,-3.4723,-3.469,-3.4835,-3.4899,-3.4899,-3.5041,-3.4994,-3.4851,0.0,0.0,-0.7945,-0.9522,-0.9801,-0.9794,-0.9798,-0.9798,-0.9809,0.0,-0.9977,-1.0387,-1.1159,-1.1164,-1.1072,-1.1012,-0.9618,-0.8687,-0.8531,-0.7125,-0.62,-0.6034,-0.5322,-0.5277,-0.5997,-0.6015,-0.6791,-0.8369,-0.8461,-0.8865,-0.957,-0.9661,-0.9698,-0.9735,-1.0461,-1.126,-1.2187,-1.3637,-1.5447,-1.7831,-2.3419,-2.6043,-2.7001,-3.0572,-3.1763,-3.1385,-2.9972,-3.0775,-3.2507,-3.2316,-2.9499,-2.5697,-2.3547,-1.951,-1.5001,-1.214,-1.1324,-1.126,-1.0913,-1.0813,-1.1322,-1.3452,-1.4683,0.0,-2.351,-2.5683,-2.7652,-3.2216,-3.4353,-3.5258,-3.4824,-3.5313,-3.5566,-3.486,-3.4516,-3.4624,-3.5421,-3.6761,-3.7123,-3.5711,-3.6949,-3.7312,-3.5833,-3.6549,-3.6767,-3.6014,-3.6703,-3.7464,-3.8171,-3.8174,-3.8018,-3.7755,-3.8238,-3.8217,-3.7772,-3.7189,-3.6678,-3.6195,-3.5036,-3.4349,-3.4101,-3.4101,-3.4101,-3.4117,-3.425,-3.4333,-3.4366,-3.4594,-3.4707,-3.4724,-3.4851,-3.4899,-3.4947,-3.5088,-3.4899,-3.4643,-0.6547,-0.7638,-0.865,-0.9634,-0.9801,-0.9801,-0.9801,-0.9794,-1.0035,-1.0666,-1.1382,-1.1906,-1.2121,-1.1559,-1.1143,-1.1098,-1.0207,-0.936,-0.8703,-0.8301,-0.7523,-0.6225,-0.5958,-0.591,-0.608,-0.608,-0.6557,-0.7537,-0.8192,-0.8589,-0.8755,-0.9404,-0.9698,-0.9698,-0.9864,-1.0737,-1.2113,-1.2444,-1.5491,-2.0546,-2.539,-2.7034,-2.7108,-3.1654,-3.3043,-3.2395,-3.0891,-3.1107,-3.1896,-3.0442,-3.006,-2.9255,-2.3768,-2.2152,-2.1198,-1.546,-1.4261,-1.4187,-1.1581,-1.084,-1.0913,-1.1387,-1.3081,0.0,-1.6327,-1.8268,-2.0554,-2.3451,-2.4827,-2.6023,-2.7761,-2.8196,-2.8268,-2.8105,-3.0712,-3.3027,-3.3844,-3.4166,-3.4268,-3.4058,-3.4848,-3.5321,-3.5034,-3.6328,-3.7111,-3.6934,-3.7676,-3.8204,-3.835,-3.7984,-3.7522,-3.6858,-3.6973,-3.6528,-3.5518,-3.5681,-3.5505,-3.505,-3.4562,-3.43,-3.425,-3.4151,-3.4133,-3.4248,-3.4283,-3.4431,-3.4644,-3.4676,-3.4706,-3.4688,-3.4866,-3.4947,-3.5088,-3.5198,-3.5291,-3.5253,-0.7025,-0.7666,-0.8334,-0.9578,-0.9801,-0.9801,-0.9801,-1.0135,-1.0566,-1.0983,-1.2225,-1.3244,-1.3742,-1.3437,-1.282,-1.1876,-1.1427,-1.0846,-0.9997,-0.9131,-0.8495,-0.8102,-0.6855,-0.654,-0.7378,-0.6933,-0.7298,-0.8545,-0.8925,-0.9099,-0.911,-0.9515,-0.9698,-0.9698,-0.9698,-1.0598,-1.2132,-1.2527,-1.6054,-2.1668,-2.5282,-2.7545,-2.9113,-3.2434,-3.3709,-3.3452,-3.1578,-3.1332,-3.188,-3.179,-3.0512,-2.865,-2.6631,-2.4887,-2.2721,-1.8207,-1.6903,-1.6114,-1.248,-1.1178,-1.094,-1.1352,-1.2036,0.0,0.0,-1.6791,-1.8738,-2.1532,-2.3073,-2.4251,-2.5389,-2.5932,-2.6204,-2.6204,-2.9305,-3.1274,-3.0075,-3.3346,-3.5466,-3.4335,-3.5264,-3.552,-3.4316,-3.5175,-3.5973,-3.6309,-3.6558,-3.7151,-3.8346,-3.7792,-3.7308,-3.7076,-3.6784,-3.6201,-3.5301,-3.5357,-3.527,-3.5038,-3.4691,-3.4578,-3.4738,-3.4431,-3.4333,-3.4415,-3.4464,-3.4578,-3.4708,-3.4756,-3.4818,-3.4927,-3.4977,-3.5041,-3.5135,-3.5354,-3.5194,-3.4835,-0.7763,-0.7727,-0.7839,-0.9504,-0.9801,-0.9801,-0.9801,-1.0488,-1.1203,-1.177,-1.3417,-1.4897,-1.5824,-1.6074,-1.5664,-1.4354,-1.4526,-1.4009,-1.2332,-1.123,-1.0404,-0.9801,-0.7947,-0.7494,-0.8675,-0.7952,-0.8317,-0.9818,-0.9608,-0.9559,-0.971,-0.954,-0.9551,-0.9735,-1.0506,-1.1315,-1.2205,-1.3794,-1.7628,-2.2802,-2.4869,-2.8017,-3.1669,-3.3482,-3.4475,-3.4614,-3.243,-3.1883,-3.2291,-3.3231,-3.0898,-2.7779,-2.8929,-2.7236,-2.4135,-2.0407,-1.9305,-1.8313,-1.3783,-1.1966,-1.1443,-1.1783,-1.1471,-1.1854,0.0,0.0,0.0,-2.0118,-2.1787,-2.2785,-2.2729,-2.3361,-2.3904,-2.3904,-2.6799,-2.8136,-2.5536,-3.149,-3.544,-3.3651,-3.5462,-3.5992,-3.3852,-3.4152,-3.4798,-3.5497,-3.4934,-3.5574,-3.7874,-3.7309,-3.7049,-3.7377,-3.6821,-3.6291,-3.5759,-3.5588,-3.5453,-3.5407,-3.4961,-3.4913,-3.5098,-3.4658,-3.4497,-3.4546,-3.4643,-3.4691,-3.4756,-3.4899,-3.4994,-3.5088,-3.5088,-3.5135,-3.5198,-3.5446,-3.4987,-3.4324,-0.7787,-0.7767,-0.7898,-0.9511,-0.9801,-0.9801,-0.9801,-1.0488,-1.185,-1.4232,-1.6082,-1.7528,-1.847,-1.9265,-1.9931,-2.0441,-2.1835,-2.076,-1.6202,-1.7049,-1.5101,-0.9195,-0.9348,-0.9292,-0.8713,-0.859,-0.8985,-0.9881,-0.9095,-0.9096,-0.9777,-0.8998,-0.9011,-0.9845,-1.3427,-1.393,-1.2388,-1.6757,-2.1313,-2.5623,-2.5677,-2.8823,-3.3681,-3.5539,-3.6285,-3.6093,-3.4071,-3.3355,-3.3186,-3.175,-3.1208,-3.0506,-2.7046,-2.8548,-2.9968,-2.1711,-2.134,-2.2221,-1.5925,-1.3637,-1.2711,-1.137,-1.1498,-1.1874,-1.1543,0.0,-1.2774,-1.3132,0.0,-1.4532,-1.4471,0.0,0.0,-1.5655,-1.9006,-2.148,-2.1116,-2.4986,-2.8004,-2.8456,-3.2446,-3.4824,-3.3872,-3.4485,-3.5137,-3.5652,-3.4279,-3.4339,-3.6503,-3.609,-3.6141,-3.696,-3.6509,-3.6165,-3.5958,-3.5932,-3.5711,-3.5337,-3.5152,-3.4947,-3.4739,-3.4594,-3.4562,-3.4692,-3.4707,-3.4756,-3.4899,-3.4994,-3.5105,-3.5088,-3.5088,-3.5245,-3.5446,-3.5492,-3.5093,-3.4344,-0.6898,-0.7268,-0.7815,-0.8959,-0.958,-0.9925,-0.9925,-1.1459,-1.356,-1.6178,-1.8064,-1.9492,-2.0361,-2.1235,-2.1889,-2.2226,-2.2474,-2.1493,-1.8881,-1.7939,-1.6016,-1.2661,-1.0933,-1.011,-1.0259,-0.9267,-0.9144,-0.9965,-0.9552,-0.9513,-0.9793,-0.943,-0.9407,-0.9913,-1.4565,-1.6092,-1.5423,-1.9292,-2.3416,-2.7405,-2.7717,-3.0339,-3.4087,-3.4664,-3.4867,-3.4773,-3.4293,-3.3763,-3.3205,-3.2866,-3.1296,-2.9591,-3.0564,-3.007,-2.8507,-2.5159,-2.4208,-2.3125,-1.7968,-1.7032,-1.6757,-1.3736,-1.36,-1.36,-1.137,-1.0756,-1.0784,-1.1223,0.0,0.0,0.0,0.0,0.0,0.0,-1.6642,-1.851,-1.7049,-2.1206,-2.5063,-2.6816,-2.879,-3.0549,-3.1929,-3.2206,-3.3262,-3.5525,-3.3194,-3.294,-3.5861,-3.5608,-3.5526,-3.5861,-3.5848,-3.5711,-3.535,-3.535,-3.5396,-3.547,-3.5228,-3.5165,-3.5333,-3.5008,-3.4883,-3.4916,-3.4851,-3.4899,-3.4994,-3.5088,-3.5198,-3.5337,-3.5337,-3.54,-3.5492,-3.5566,-3.4851,-3.3769,-0.5987,-0.6759,-0.7745,-0.8565,-0.942,-1.0147,-1.0622,-1.2666,-1.5069,-1.7616,-1.9523,-2.1023,-2.21,-2.3389,-2.437,-2.4832,-2.4995,-2.4186,-2.2158,-2.0296,-1.8358,-1.633,-1.3195,-1.1791,-1.2425,-1.0511,-0.9565,-0.969,-0.9639,-0.9444,-0.9169,-0.9395,-0.9463,-0.961,-1.4877,-1.7286,-1.7642,-2.1736,-2.5662,-2.9189,-2.9664,-3.1408,-3.3773,-3.415,-3.4222,-3.4144,-3.4605,-3.4107,-3.3318,-3.3564,-3.1244,-2.8802,-3.1964,-3.0473,-2.7545,-2.7405,-2.6661,-2.4925,-2.0611,-2.0134,-1.9895,-1.5839,-1.5105,-1.4646,-1.1865,-1.0608,-1.0178,-1.0693,-1.063,0.0,0.0,0.0,-1.1521,0.0,0.0,-1.5369,-1.3576,-1.7107,0.0,0.0,0.0,-2.6581,-2.9355,-2.9242,-3.0356,-3.3689,-3.1396,-3.1338,-3.4835,-3.4946,-3.4956,-3.5169,-3.5548,-3.5605,-3.5211,-3.5211,-3.5304,-3.5498,-3.5274,-3.5321,-3.5605,-3.5241,-3.5118,-3.5088,-3.5041,-3.5058,-3.5091,-3.5198,-3.5291,-3.5508,-3.5537,-3.552,-3.5503,-3.5357,-3.4506,-3.333,-0.5294,-0.6423,-0.7745,-0.8565,-0.9411,-1.0543,-1.2173,-1.3921,-1.5971,-1.8513,-2.0384,-2.21,-2.3841,-2.6246,-2.839,-3.0013,-3.2391,-3.1679,-2.6717,-2.6313,-2.4062,-1.9088,-1.6407,-1.5055,-1.5074,-1.2618,-1.0536,-0.8937,-0.8869,-0.8398,-0.7593,-0.8372,-0.8666,-0.8792,-1.4476,-1.713,-1.7726,-2.4204,-2.8631,-3.1295,-3.1111,-3.1642,-3.2809,-3.5205,-3.5799,-3.534,-3.5364,-3.4772,-3.3821,-3.2854,-3.1166,-2.9304,-2.8489,-2.9093,-2.9617,-2.7244,-2.8227,-2.9052,-2.4172,-2.2318,-2.0792,-1.6683,-1.5105,-1.4102,-1.2444,-1.1443,-1.0848,-1.0812,-1.0182,-0.9644,-0.9668,0.0,0.0,0.0,0.0,0.0,0.0,0.0,0.0,0.0,0.0,0.0,0.0,-2.587,-2.6519,-2.9315,-2.8488,-2.946,-3.3101,-3.3813,-3.4478,-3.529,-3.5928,-3.6174,-3.5975,-3.5975,-3.5756,-3.5291,-3.5291,-3.5245,-3.5135,-3.5105,-3.5071,-3.5102,-3.5228,-3.5202,-3.5127,-3.5388,-3.5508,-3.548,-3.5549,-3.5577,-3.5537,-3.4793,-3.4049,-3.322,-0.611,-0.6829,-0.7658,-0.7922,-0.8691,-1.0037,-1.23,-1.4066,-1.6495,-2.0197,-2.2207,-2.4173,-2.6497,-2.7475,-2.8655,-3.0376,-3.0791,-2.9989,-2.7672,-2.6483,-2.4582,-2.1702,-1.8043,-1.6336,-1.6913,-1.3282,-1.1118,-1.056,-0.9414,-0.8697,-0.8367,-0.8597,-0.867,-0.8905,-1.5328,-1.92,-2.1149,-2.5525,-2.9265,-3.211,-3.0352,-3.082,-3.2638,-3.3239,-3.3805,-3.4339,-3.4772,-3.4718,-3.4396,-3.3979,-3.2336,-3.0603,-3.1235,-2.9999,-2.8315,-2.8503,-2.8821,-2.8633,-2.6437,-2.7619,-2.794,-2.1529,-2.097,-2.0658,-1.5624,-1.3453,-1.248,-1.2452,-1.1379,-1.0455,-1.0401,0.0,0.0,0.0,0.0,0.0,0.0,0.0,0.0,0.0,0.0,0.0,0.0,0.0,-2.6823,-3.0058,-2.9479,-3.0262,-3.3175,-3.3447,-3.3761,-3.4364,-3.5057,-3.5566,-3.5871,-3.5783,-3.5667,-3.5503,-3.5594,-3.5503,-3.5304,-3.5396,-3.5367,-3.5228,-3.5304,-3.5337,-3.5375,-3.5463,-3.5537,-3.5566,-3.5577,-3.5318,-3.4844,-3.459,-3.4032,-3.3136,-0.6615,-0.7057,-0.7596,-0.7596,-0.8585,-1.0225,-1.2764,-1.4343,-1.6999,-2.1881,-2.3758,-2.5623,-2.8229,-2.8753,-2.9373,-3.0505,-3.0377,-2.9702,-2.8509,-2.7733,-2.666,-2.52,-2.1929,-2.0559,-2.1413,-1.6648,-1.3682,-1.2752,-1.0771,-0.9141,-0.7924,-0.8796,-0.8862,-0.8523,-1.4076,-1.8837,-2.2863,-2.5872,-2.9685,-3.3459,-3.0919,-3.0676,-3.1818,-3.1911,-3.2716,-3.3887,-3.4691,-3.4962,-3.4907,-3.4813,-3.3506,-3.2089,-3.3033,-3.1355,-2.9204,-3.0187,-3.015,-2.9602,-2.8834,-3.033,-3.0825,-2.5374,-2.519,-2.4825,-1.8938,-1.6762,-1.5577,-1.4044,-1.2672,-1.1654,-1.1288,-1.0565,0.0,0.0,0.0,0.0,0.0,-0.9265,0.0,0.0,0.0,0.0,0.0,0.0,0.0,0.0,-2.8802,0.0,-3.1602,-3.2892,-3.3613,-3.374,-3.4605,-3.5256,-3.5522,-3.5664,-3.5711,-3.5622,-3.5684,-3.5667,-3.5577,-3.5622,-3.5577,-3.5412,-3.547,-3.5487,-3.552,-3.552,-3.5425,-3.5182,-3.5216,-3.4759,-3.4117,-3.4117,-3.3389,-3.2228,-0.6845,-0.7173,-0.7732,-0.7732,-0.909,-1.1066,-1.3612,-1.4782,-1.7512,-2.3533,-2.4989,-2.6505,-2.9206,-3.0156,-3.0602,-3.0591,-3.1366,-3.1088,-2.9331,-3.0044,-3.0141,-2.9255,-2.7655,-2.7179,-2.7981,-2.217,-1.7862,-1.533,-1.2656,-0.9636,-0.6427,-0.8886,-0.913,-0.7643,-1.1005,-1.6204,-2.2593,-2.5222,-2.9778,-3.5045,-3.262,-3.1168,-3.056,-3.1441,-3.264,-3.4029,-3.5103,-3.5416,-3.5315,-3.5315,-3.4563,-3.3634,-3.3634,-3.2939,-3.2128,-3.2147,-3.2165,-3.2034,-3.1311,-3.0627,-2.975,-2.8041,-2.7627,-2.6536,-2.2262,-2.121,-1.9985,-1.5876,-1.4378,-1.3486,-1.2493,-1.1653,-1.1041,0.0,0.0,0.0,0.0,0.0,0.0,0.0,0.0,0.0,0.0,0.0,0.0,0.0,0.0,0.0,0.0,-3.2088,-3.3793,-3.3401,-3.4588,-3.5169,-3.505,-3.5685,-3.5888,-3.5622,-3.5622,-3.5667,-3.5773,-3.5817,-3.5728,-3.5577,-3.5677,-3.5644,-3.5442,-3.5459,-3.5091,-3.444,-3.4447,-3.3998,-3.3313,-3.3313,-3.2177,-3.0609,-0.835,-0.8955,-0.9538,-0.9538,-0.9906,-1.1066,-1.3612,-1.5294,-1.8642,-2.5259,-2.6313,-2.7918,-3.1856,-3.1312,-3.0678,-3.0672,-3.0872,-3.0535,-2.9421,-2.9569,-2.9601,-2.9353,-2.7709,-2.7191,-2.8063,-2.2185,-1.8446,-1.7134,-1.2622,-0.9348,-0.7295,-0.8598,-0.863,-0.772,-1.1072,-1.5306,-2.0096,-2.2661,-2.683,-3.166,-3.1056,-3.0941,-3.1257,-3.2275,-3.3185,-3.4048,-3.51,-3.5474,-3.5446,-3.5446,-3.4822,-3.4045,-3.4045,-3.3422,-3.2699,-3.2755,-3.3187,-3.3485,-3.2691,-3.3722,-3.4088,-3.0232,-3.0209,-3.0111,-2.6258,-2.487,-2.4076,-2.2989,-2.1623,-1.9834,-1.7117,-1.5944,-1.4405,0.0,0.0,0.0,0.0,0.0,0.0,0.0,0.0,0.0,0.0,0.0,0.0,0.0,0.0,0.0,0.0,-3.0836,-3.1115,-3.3315,-3.4178,-3.4883,-3.5382,-3.5939,-3.6088,-3.5888,-3.6045,-3.5888,-3.5429,-3.5817,-3.5711,-3.535,-3.4986,-3.4803,-3.4701,-3.4167,-3.3838,-3.3668,-3.3786,-3.3178,-3.2295,-3.2211,-3.1331,-3.0156,-0.8974,-0.9303,-1.0096,-1.1605,-1.2194,-1.3193,-1.5375,-1.6837,-2.0022,-2.6514,-2.7678,-2.8973,-3.1851,-3.1948,-3.1488,-3.0755,-3.0691,-3.0328,-2.9454,-3.0108,-3.0361,-2.9991,-3.0113,-3.0241,-3.0319,-2.5913,-2.2243,-1.9457,-1.5077,-1.1308,-0.8194,-0.9037,-0.8979,-0.829,-1.1301,-1.5016,-1.9338,-2.4523,-2.7941,-3.0012,-3.1532,-3.1931,0.0,-3.3063,-3.4013,-3.4716,-3.5341,-3.5515,-3.5493,-3.5493,-3.518,-3.4776,-3.4776,-3.4173,-3.3487,-3.3523,-3.3595,-3.366,-3.3585,-3.4326,-3.4604,-3.2382,-3.2503,-3.2336,-2.9082,-2.8214,-2.7656,-2.6176,-2.4767,-2.3263,-2.1507,-1.8894,-1.5784,0.0,0.0,0.0,0.0,0.0,0.0,0.0,0.0,0.0,0.0,0.0,0.0,0.0,0.0,0.0,0.0,0.0,-3.0014,-3.176,-3.2454,-3.3355,-3.4547,-3.438,-3.4582,-3.5194,-3.5294,-3.517,-3.4831,-3.5069,-3.5086,-3.4771,-3.4415,-3.4252,-3.4226,-3.3643,-3.3152,-3.2722,-3.2203,-3.1624,-3.1014,-3.1132,-3.057,-2.975,-0.9538,-0.9582,-1.0634,-1.35,-1.5326,-1.6927,-1.8507,-1.9419,-2.2017,-2.7838,-2.9101,-2.9873,-3.0916,-3.2128,-3.229,-3.0827,-3.0691,-3.0387,-2.9627,-3.0989,-3.1482,-3.0722,-3.2997,-3.393,-3.3227,-3.071,-2.6954,-2.1946,-1.8454,-1.4119,-0.9075,-0.9767,-0.9671,-0.9017,-1.1564,-1.522,-1.9992,-2.7566,-3.0248,-2.962,-3.2731,-3.3156,-3.2149,-3.3828,-3.4948,-3.5604,-3.5604,-3.5554,-3.5507,-3.5507,-3.5507,-3.5493,-3.5493,-3.4982,-3.4366,-3.4366,-3.3884,-3.3485,-3.4121,-3.3832,-3.3481,-3.3978,-3.4225,-3.3665,-3.1082,-3.1066,-3.0763,-2.7794,-2.6439,-2.5778,-2.5684,-2.1124,-1.6416,-1.3415,0.0,0.0,0.0,0.0,0.0,0.0,0.0,0.0,0.0,0.0,0.0,0.0,0.0,0.0,0.0,0.0,-2.9542,-3.007,-3.0785,-3.1774,-3.3016,-3.2357,-3.2607,-3.3827,-3.4012,-3.4098,-3.412,-3.4159,-3.4177,-3.4138,-3.3876,-3.3825,-3.3808,-3.3359,-3.2655,-3.1741,-3.054,-3.0081,-3.0091,-3.0251,-2.9995,-2.9572,-1.2012,-1.3238,-1.4136,-1.402,-1.8254,-2.201,-2.302,-2.3864,-2.6029,-3.0623,-3.0729,-3.0978,-3.2582,-3.1794,-3.1018,-3.0734,-3.0695,-3.0644,-3.0477,-3.0769,-3.086,-3.071,-3.1825,-3.2714,-3.3276,-3.0736,-2.7543,-2.3734,-1.961,-1.4956,-0.9902,-1.0037,-0.9671,-0.9017,-1.1564,-1.6202,-2.2282,-2.4504,-2.7276,-3.0306,-3.1684,-3.2458,-3.2979,-3.472,-3.5465,-3.5589,-3.5604,-3.5547,-3.5502,-3.5502,-3.5495,-3.5493,-3.5493,-3.5411,-3.527,-3.5271,-3.5156,-3.495,-3.445,-3.4712,-3.4824,-3.3474,-3.4093,-3.4508,-3.2554,-3.2657,-3.3045,-3.2502,-3.2289,-3.1581,-2.9579,-2.3873,-1.9009,-1.76,-1.6704,0.0,0.0,0.0,0.0,0.0,0.0,0.0,0.0,0.0,0.0,0.0,0.0,0.0,0.0,0.0,-2.777,0.0,-3.2919,-3.283,-3.1183,-3.2838,-3.3046,-3.182,-3.3438,-3.4002,-3.3639,-3.4019,-3.4098,-3.3831,-3.3291,-3.3093,-3.3118,-3.2269,-3.1812,-3.1598,-3.0918,-3.0747,-3.0828,-3.046,-3.0081,-2.975,-1.4515,-1.5429,-1.6548,-1.8358,-2.1823,-2.5234,-2.7893,-2.9018,-2.9967,-3.1138,-3.1278,-3.1255,-3.1224,-3.1282,-3.1313,-3.1313,-3.1313,-3.1515,-3.1981,-3.1988,-3.1817,-3.1391,-3.2175,-3.2622,-3.2636,-3.1385,-2.8599,-2.42,-2.1258,-1.6944,-1.1445,-1.0983,-1.0579,-1.0367,-1.4239,-1.8761,-2.3629,-2.5803,-2.8172,-3.0568,-3.2378,-3.3076,-3.3252,-3.4944,-3.5612,-3.5643,-3.5651,-3.5608,-3.5553,-3.5496,-3.5495,-3.5493,-3.5493,-3.5501,-3.5509,-3.5547,-3.554,-3.5469,-3.511,-3.5005,-3.4762,-3.3851,-3.3846,-3.3928,-3.3484,-3.3298,-3.3383,-3.3906,-3.358,-3.245,-2.9888,-2.6051,-2.2972,-2.2119,-2.0072,0.0,0.0,0.0,0.0,0.0,0.0,0.0,0.0,0.0,0.0,0.0,0.0,0.0,0.0,0.0,-2.6563,0.0,-3.1389,-3.1614,-3.1427,-3.1595,-3.1694,-3.1746,-3.2582,-3.2928,-3.2831,-3.3075,-3.3058,-3.291,-3.2547,-3.2412,-3.2377,-3.1661,-3.1278,-3.1123,-3.0707,-3.0584,-3.0666,-3.046,-3.0309,-3.014,-1.7093,-1.7433,-1.8778,-2.3086,-2.5266,-2.7634,-3.1209,-3.2793,-3.3084,-3.1691,-3.174,-3.139,-3.0101,-3.0971,-3.1643,-3.1615,-3.1615,-3.1917,-3.2598,-3.2654,-3.2388,-3.1751,-3.2322,-3.255,-3.2286,-3.2273,-3.0076,-2.557,-2.3512,-1.9706,-1.4309,-1.269,-1.2343,-1.3219,-1.7414,-2.1602,-2.5639,-2.8145,-2.988,-3.1122,-3.3188,-3.3635,-3.3263,-3.4963,-3.5643,-3.5704,-3.5704,-3.5662,-3.5589,-3.554,-3.5509,-3.5501,-3.5501,-3.5495,-3.5502,-3.556,-3.5584,-3.5589,-3.5673,-3.5171,-3.461,-3.4372,-3.3925,-3.3624,-3.3913,-3.3569,-3.3364,-3.3928,-3.3518,-3.2263,-2.9627,-2.8234,-2.7094,-2.5866,-2.3635,-2.2756,0.0,0.0,0.0,0.0,0.0,0.0,0.0,0.0,0.0,0.0,0.0,0.0,0.0,0.0,0.0,0.0,-2.9557,-3.0024,-3.1064,-3.037,-3.056,-3.1585,-3.1827,-3.2055,-3.2179,-3.2232,-3.2214,-3.2161,-3.2055,-3.202,-3.1984,-3.1528,-3.1206,-3.0965,-3.0625,-3.0418,-3.0418,-3.0477,-3.0435,-3.0309,-1.9802,-2.0135,-2.1495,-2.5781,-2.7986,-2.9542,-3.073,-3.2934,-3.4393,-3.4172,-3.284,-3.186,-3.1767,-3.1188,-3.0789,-3.0726,-3.0726,-3.0757,-3.0836,-3.0889,-3.0894,-3.0836,-3.0892,-3.1637,-3.3145,-3.3179,-3.2162,-3.0098,-2.6773,-2.3263,-1.9585,-1.5617,-1.5419,-1.8426,-1.9709,-2.3898,-2.9949,-2.9439,-3.0586,-3.2775,-3.3022,-3.308,-3.3191,-3.4932,-3.5643,-3.5704,-3.5704,-3.5651,-3.5604,-3.5591,-3.5547,-3.5502,-3.5502,-3.5495,-3.5501,-3.5502,-3.5515,-3.5509,-3.5589,-3.5554,-3.5303,-3.4571,-3.4886,-3.4979,-3.3518,-3.371,-3.3997,-3.3335,-3.381,-3.349,-3.0743,-3.0878,-3.0453,-2.7657,-2.8433,-2.9421,-2.9489,0.0,0.0,0.0,0.0,0.0,0.0,-1.6218,0.0,0.0,0.0,0.0,0.0,0.0,0.0,-2.9747,-2.9852,-2.9164,-2.7663,-3.0623,-3.139,-2.9935,-3.1446,-3.2179,-3.2214,-3.2319,-3.2388,-3.2354,-3.2354,-3.2354,-3.2354,-3.2214,-3.2002,-3.1671,-3.1201,-3.0908,-3.0707,-3.0543,-3.0225,-2.9837,-2.4891,-2.5543,-2.6775,-2.9541,-3.1001,-3.2065,-3.2959,-3.3496,-3.3636,-3.3125,-3.2418,-3.1762,-3.1265,-3.0915,-3.0891,-3.1403,-3.1435,-3.1657,-3.2132,-3.2198,-3.1965,-3.1437,-3.1425,-3.1771,-3.2497,-3.2511,-3.2154,-3.141,-2.7433,-2.4277,-2.1836,-1.9128,-1.967,-2.3005,-2.4365,-2.7055,-3.0623,-3.0762,-3.141,-3.2377,-3.2828,-3.3029,-3.3244,-3.4909,-3.5577,-3.5643,-3.5643,-3.5662,-3.5651,-3.5608,-3.556,-3.5501,-3.5501,-3.5501,-3.5507,-3.5502,-3.5528,-3.5572,-3.5589,-3.5631,-3.5577,-3.5259,-3.5422,-3.5488,-3.4805,-3.4088,-3.3488,-3.318,-3.3005,-3.3089,-3.3547,-3.2183,-3.1323,-3.228,-3.1727,-3.1695,-3.3179,0.0,0.0,0.0,0.0,0.0,0.0,0.0,0.0,0.0,0.0,0.0,0.0,0.0,0.0,-2.7411,-3.0044,-3.0501,-2.8644,-3.1028,-3.1882,-3.1202,-3.1882,-3.2232,-3.2319,-3.2371,-3.2406,-3.2388,-3.2267,-3.2161,-3.2018,-3.2001,-3.1783,-3.1423,-3.1235,-3.0878,-3.0426,-3.0342,-2.9897,-2.938,-2.8739,-2.9255,-3.0289,-3.2775,-3.3285,-3.3532,-3.414,-3.3721,-3.2947,-3.1867,-3.168,-3.1403,-3.08,-3.0701,-3.095,-3.1567,-3.163,-3.1854,-3.2427,-3.2467,-3.2195,-3.1559,-3.155,-3.1693,-3.202,-3.2,-3.2221,-3.2698,-2.8897,-2.6405,-2.5168,-2.3644,-2.4406,-2.7062,-2.7993,-2.9668,-3.177,-3.1851,-3.2044,-3.2335,-3.2822,-3.3218,-3.3634,-3.5005,-3.5577,-3.5623,-3.5612,-3.5631,-3.5654,-3.5612,-3.5572,-3.5534,-3.5501,-3.5501,-3.5501,-3.5502,-3.5528,-3.5572,-3.5589,-3.545,-3.5345,-3.5626,-3.551,-3.5317,-3.5317,-3.4369,-3.3335,-3.2851,-3.2305,-3.2474,-3.4337,-3.2994,-3.225,-3.4244,-3.3625,-3.3248,-3.4248,-3.4582,0.0,0.0,-2.7393,-2.5243,-2.5061,-2.0303,0.0,0.0,0.0,0.0,0.0,0.0,0.0,-2.7385,-3.0224,-3.1115,-2.9809,-3.1563,-3.237,-3.2267,-3.2267,-3.2319,-3.2406,-3.2406,-3.2388,-3.2422,-3.2284,-3.2179,-3.2073,-3.2037,-3.1765,-3.1329,-3.1213,-3.0757,-3.0189,-3.0017,-2.9515,-2.8967,-3.0423,-3.008,-3.0841,-3.5115,-3.4496,-3.341,-3.3419,-3.3414,-3.2791,-3.1042,-3.0828,-3.0806,-3.0797,-3.0742,-3.0703,-3.0702,-3.0719,-3.0714,-3.0735,-3.0735,-3.0735,-3.07,-3.0717,-3.1158,-3.2072,-3.2026,-3.2839,-3.4567,-3.1918,-3.0619,-3.0583,-2.9421,-2.9518,-3.0603,-2.9771,-3.132,-3.4443,-3.2652,-3.2404,-3.3175,-3.3131,-3.3616,-3.4468,-3.5295,-3.5635,-3.5697,-3.5623,-3.5601,-3.5601,-3.5601,-3.5608,-3.5591,-3.5515,-3.5502,-3.5502,-3.5502,-3.5515,-3.5528,-3.5589,-3.4963,-3.453,-3.5472,-3.5046,-3.4408,-3.4408,-3.4409,-3.3907,-3.2255,-3.1903,-3.193,-3.2023,-3.3371,-3.3843,-3.195,-3.3953,-3.4766,-3.1954,-3.3828,-3.4465,-3.1714,-2.826,-2.7648,-3.1616,-2.5107,0.0,0.0,0.0,0.0,0.0,0.0,0.0,-3.1009,-3.0479,-3.0184,-3.029,-3.2229,-3.293,-3.2406,-3.2406,-3.2406,-3.2406,-3.2406,-3.2457,-3.2489,-3.2573,-3.269,-3.2773,-3.2639,-3.2231,-3.164,-3.1278,-3.074,-3.0146,-2.9531,-2.9044,-2.8701,-3.4134,-3.4055,-3.4294,-3.5655,-3.5466,-3.4725,-3.3575,-3.3395,-3.2771,-3.1033,-3.0808,-3.0774,-3.0739,-3.0755,-3.0742,-3.0703,-3.0743,-3.0778,-3.0762,-3.0775,-3.0762,-3.0771,-3.0763,-3.091,-3.1211,-3.1785,-3.2615,-3.3702,-3.1148,-2.9877,-2.9868,-2.8904,-2.9886,-3.2421,-3.1573,-3.1792,-3.279,-3.2207,-3.1799,-3.1585,-3.2718,-3.3333,-3.374,-3.5076,-3.528,-3.4817,-3.4797,-3.4429,-3.3965,-3.3906,-3.3895,-3.3881,-3.3817,-3.4198,-3.4564,-3.3966,-3.4222,-3.4573,-3.4044,-3.4124,-3.4301,-3.4002,-3.4176,-3.4234,-3.3654,-3.3093,-3.2541,-3.2006,-3.1895,-3.226,-3.3487,-3.4148,-3.4489,-3.4466,-3.5211,-3.5471,-3.4555,-3.4139,-3.2909,-3.0171,-2.7769,-2.6829,-2.7967,-2.4216,-2.2963,0.0,0.0,0.0,0.0,0.0,-2.7991,-2.7798,-3.098,-3.207,-3.0794,-3.2236,-3.2908,-3.2669,-3.2507,-3.2406,-3.2406,-3.2406,-3.2439,-3.2539,-3.23,-3.2127,-3.202,-3.1714,-3.13,-3.0861,-3.074,-3.0368,-2.9853,-2.9287,-2.881,-2.84,-3.5771,-3.5857,-3.5911,-3.5911,-3.5903,-3.5324,-3.3648,-3.3395,-3.2771,-3.1033,-3.0794,-3.0784,-3.0734,-3.0764,-3.0764,-3.0703,-3.074,-3.0751,-3.0755,-3.0756,-3.0761,-3.0801,-3.0786,-3.078,-3.0795,-3.1331,-3.2023,-3.2859,-3.1558,-3.093,-3.0921,-3.0396,-3.1289,-3.3262,-3.2421,-3.2046,-3.2026,-3.1679,-3.1407,-3.1284,-3.2336,-3.2947,-3.3347,-3.4342,-3.44,-3.3943,-3.3953,-3.3624,-3.3186,-3.3149,-3.3149,-3.3063,-3.2706,-3.2956,-3.3411,-3.3481,-3.3867,-3.4199,-3.3677,-3.3738,-3.3779,-3.3237,-3.3267,-3.3286,-3.2774,-3.2019,-3.1418,-3.1416,-3.1413,-3.1845,-3.3258,-3.379,-3.4295,-3.5177,-3.5585,-3.5566,-3.4928,-3.3891,-3.2288,-2.9843,-2.8302,-2.7713,-2.8411,-2.6688,-2.6314,-2.8217,0.0,0.0,0.0,-2.8479,-2.9156,-2.9609,-3.2569,-3.3412,-3.1855,-3.2672,-3.3014,-3.2716,-3.2489,-3.2406,-3.2406,-3.2406,-3.2371,-3.2318,-3.2056,-3.1823,-3.1623,-3.1359,-3.1027,-3.0757,-3.0757,-3.0452,-2.9968,-2.921,-2.8623,-2.8161,-3.556,-3.5735,-3.5864,-3.5872,-3.5846,-3.524,-3.3648,-3.3356,-3.2713,-3.1013,-3.0799,-3.0799,-3.0808,-3.0803,-3.0767,-3.0704,-3.0711,-3.0691,-3.07,-3.0696,-3.0732,-3.0798,-3.0742,-3.0741,-3.0801,-3.08,-3.1207,-3.2005,-3.2765,-3.3126,-3.3132,-3.3197,-3.318,-3.3083,-3.2334,-3.2002,-3.1958,-3.1142,-3.1223,-3.1928,-3.198,-3.2486,-3.323,-3.3208,-3.3177,-3.3133,-3.3188,-3.3169,-3.3126,-3.3126,-3.3167,-3.3051,-3.219,-3.1957,-3.2249,-3.3641,-3.4087,-3.4125,-3.4133,-3.3572,-3.3012,-3.3005,-3.2348,-3.1739,-3.1864,-3.1215,-3.0604,-3.0602,-3.0707,-3.1025,-3.1845,-3.2757,-3.3658,-3.4459,-3.5174,-3.5049,-3.3428,-3.3095,-3.2335,-3.0518,-2.9583,-2.9928,-3.2017,-3.1501,-3.1921,-3.4097,-3.4301,0.0,-3.3323,-3.0241,-3.0525,-3.5039,-3.4782,-3.4179,-3.3291,-3.3419,-3.3196,-3.2606,-3.2473,-3.2388,-3.2406,-3.2406,-3.2232,-3.1894,-3.1858,-3.1714,-3.1459,-3.1422,-3.1266,-3.1044,-3.1044,-3.0781,-3.0284,-2.9178,-2.8497,-2.8066,-3.5412,-3.5495,-3.5566,-3.5726,-3.5189,-3.445,-3.3546,-3.2835,-3.2012,-3.0935,-3.0799,-3.0799,-3.0808,-3.0803,-3.0778,-3.071,-3.0691,-3.0691,-3.071,-3.0755,-3.0778,-3.0789,-3.0771,-3.078,-3.0804,-3.0801,-3.0891,-3.1113,-3.1307,-3.1425,-3.1465,-3.1424,-3.1403,-3.1385,-3.1182,-3.1116,-3.1094,-3.0897,-3.0911,-3.1142,-3.1819,-3.2202,-3.2452,-3.306,-3.2892,-3.2433,-3.3057,-3.284,-3.2271,-3.2287,-3.2732,-3.3122,-3.2253,-3.2397,-3.2717,-3.1745,-3.1912,-3.2396,-3.2386,-3.2251,-3.2116,-3.2116,-3.1487,-3.1043,-3.169,-3.1187,-3.0604,-3.0602,-3.1665,-3.266,-3.2916,-3.4179,-3.5255,-3.5465,-3.4548,-3.3677,-3.325,-3.205,-3.1021,-3.0436,-3.0148,-3.0427,-3.1516,-3.1233,-3.0978,-3.094,-3.141,-3.1871,-3.2323,-3.1551,-3.1986,-3.3872,-3.4274,-3.434,-3.413,-3.3671,-3.3154,-3.2606,-3.2573,-3.2507,-3.2406,-3.2406,-3.2232,-3.1894,-3.1562,-3.1278,-3.0931,-3.0642,-3.0535,-3.0551,-3.0225,-3.0011,-2.9705,-2.8748,-2.8225,-2.7883,-3.5247,-3.5336,-3.5425,-3.5535,-3.4894,-3.4098,-3.3366,-3.2577,-3.1743,-3.0862,-3.0774,-3.0799,-3.0794,-3.0794,-3.0789,-3.0753,-3.0716,-3.0704,-3.0691,-3.0736,-3.0742,-3.0742,-3.074,-3.0759,-3.0759,-3.0778,-3.0794,-3.0804,-3.0796,-3.0813,-3.0858,-3.0813,-3.0796,-3.0792,-3.08,-3.0801,-3.08,-3.0797,-3.103,-3.1422,-3.1884,-3.2055,-3.2114,-3.2569,-3.224,-3.1558,-3.2009,-3.2107,-3.1987,-3.1595,-3.2024,-3.259,-3.1684,-3.1725,-3.1901,-3.093,-3.1495,-3.2343,-3.1931,-3.1824,-3.1754,-3.1352,-3.0926,-3.0714,-3.1159,-3.0917,-3.0703,-3.1108,-3.1958,-3.2857,-3.3685,-3.4598,-3.5344,-3.5729,-3.4345,-3.3178,-3.3121,-3.1603,-3.0771,-3.1465,-3.1469,-3.1884,-3.3019,-3.2966,-3.2618,-3.2128,-3.237,-3.2737,-3.3168,-3.3208,-3.3604,-3.4389,-3.4524,-3.4454,-3.4232,-3.3688,-3.3273,-3.2908,-3.2784,-3.2657,-3.2507,-3.2507,-3.2161,-3.1507,-3.1317,-3.0925,-3.041,-3.0258,-3.0274,-3.0359,-2.9941,-2.9766,-2.9572,-2.8384,-2.7849,-2.7615,-3.507,-3.512,-3.5144,-3.5172,-3.4453,-3.3634,-3.2967,-3.2225,-3.1488,-3.0763,-3.0728,-3.0769,-3.0799,-3.0799,-3.0799,-3.0808,-3.0742,-3.0717,-3.0691,-3.0704,-3.0697,-3.069,-3.0697,-3.0695,-3.0695,-3.075,-3.0786,-3.0794,-3.079,-3.0786,-3.0802,-3.0798,-3.0801,-3.0794,-3.0791,-3.0799,-3.0799,-3.0797,-3.1229,-3.1892,-3.1835,-3.1814,-3.1833,-3.1875,-3.1445,-3.082,-3.0957,-3.1464,-3.1992,-3.125,-3.1582,-3.2128,-3.121,-3.1034,-3.1152,-3.0953,-3.1906,-3.2868,-3.205,-3.1856,-3.1709,-3.082,-3.0621,-3.0621,-3.0621,-3.0604,-3.0847,-3.1726,-3.2008,-3.2598,-3.4193,-3.4609,-3.4842,-3.5324,-3.394,-3.2763,-3.2648,-3.136,-3.1039,-3.2725,-3.309,-3.3719,-3.507,-3.5069,-3.4927,-3.4809,-3.4687,-3.4623,-3.4602,-3.4645,-3.488,-3.5371,-3.498,-3.452,-3.4049,-3.3707,-3.3458,-3.3343,-3.3068,-3.2802,-3.2555,-3.2555,-3.2003,-3.1044,-3.1083,-3.0658,-3.0017,-3.0146,-3.0274,-3.0359,-2.9941,-2.9766,-2.9572,-2.8192,-2.7615,-2.7429,-3.4926,-3.4413,-3.4006,-3.4106,-3.2881,-3.184,-3.1827,-3.1107,-3.0559,-3.0521,-3.0545,-3.06,-3.0774,-3.0799,-3.0799,-3.0799,-3.0784,-3.0767,-3.0698,-3.0691,-3.0704,-3.069,-3.0704,-3.0704,-3.0704,-3.0711,-3.0742,-3.0808,-3.0745,-3.0735,-3.0802,-3.0793,-3.0808,-3.0808,-3.0794,-3.0801,-3.0804,-3.0801,-3.0884,-3.0999,-3.0984,-3.0985,-3.0985,-3.0999,-3.0916,-3.0891,-3.163,-3.1998,-3.2072,-3.1948,-3.2469,-3.3048,-3.2165,-3.2394,-3.2837,-3.2027,-3.202,-3.2209,-3.1958,-3.1936,-3.178,-3.0895,-3.068,-3.068,-3.068,-3.0638,-3.086,-3.1785,-3.2524,-3.3303,-3.4315,-3.5103,-3.5163,-3.3821,-3.2094,-3.0926,-3.0959,-3.0734,-3.1183,-3.288,-3.4218,-3.5053,-3.5181,-3.5032,-3.487,-3.4809,-3.4788,-3.4727,-3.4623,-3.4623,-3.468,-3.4833,-3.4636,-3.4427,-3.4179,-3.3876,-3.3662,-3.3458,-3.322,-3.2816,-3.2352,-3.2352,-3.1787,-3.0845,-3.0958,-3.0634,-3.0017,-3.0146,-3.0274,-3.0359,-2.9941,-2.9633,-2.9289,-2.8732,-2.8174,-2.7675,-3.4849,-3.4226,-3.3712,-3.3779,-3.2454,-3.1422,-3.1487,-3.0784,-3.0279,-3.0325,-3.0337,-3.0423,-3.062,-3.0639,-3.0684,-3.0789,-3.0808,-3.0794,-3.0753,-3.073,-3.0691,-3.0704,-3.0697,-3.069,-3.069,-3.069,-3.073,-3.0755,-3.0724,-3.073,-3.0748,-3.0759,-3.0739,-3.0745,-3.0789,-3.0798,-3.0802,-3.0801,-3.1081,-3.1503,-3.1493,-3.1499,-3.1496,-3.151,-3.1214,-3.0843,-3.1269,-3.1691,-3.2023,-3.1568,-3.1978,-3.2557,-3.1669,-3.1682,-3.1913,-3.1477,-3.1356,-3.1327,-3.1269,-3.1282,-3.1209,-3.0799,-3.0704,-3.0704,-3.0708,-3.0674,-3.1047,-3.2428,-3.2961,-3.3628,-3.4996,-3.5543,-3.5238,-3.3526,-3.251,-3.1961,-3.1941,-3.1949,-3.2551,-3.4206,-3.5044,-3.5456,-3.5311,-3.522,-3.5114,-3.4964,-3.4926,-3.4851,-3.4708,-3.4666,-3.4666,-3.4687,-3.4561,-3.4386,-3.4093,-3.3902,-3.3762,-3.3662,-3.3154,-3.2766,-3.2454,-3.2231,-3.1714,-3.0965,-3.0998,-3.0692,-3.0231,-3.0274,-3.0189,-2.9941,-2.9572,-2.9166,-2.8701,-2.8125,-2.776,-2.7488,-3.4221,-3.3582,-3.3089,-3.3107,-3.1979,-3.1055,-3.1039,-3.0534,-3.0138,-3.0158,-3.0145,-3.021,-3.0414,-3.0421,-3.0498,-3.0689,-3.072,-3.072,-3.0764,-3.073,-3.0691,-3.0691,-3.0697,-3.069,-3.069,-3.069,-3.069,-3.069,-3.069,-3.069,-3.069,-3.0698,-3.0691,-3.0691,-3.0739,-3.0774,-3.0774,-3.0782,-3.1196,-3.1792,-3.1796,-3.1802,-3.1802,-3.1799,-3.1373,-3.0791,-3.0804,-3.1227,-3.1691,-3.1022,-3.124,-3.1685,-3.1008,-3.0794,-3.081,-3.079,-3.0753,-3.0722,-3.0717,-3.0722,-3.072,-3.0721,-3.0721,-3.0721,-3.0722,-3.0701,-3.1185,-3.2936,-3.3256,-3.3762,-3.5577,-3.5846,-3.5247,-3.3541,-3.3222,-3.3179,-3.3122,-3.3141,-3.3761,-3.5398,-3.56,-3.5588,-3.5476,-3.5469,-3.5374,-3.5187,-3.5111,-3.5028,-3.487,-3.4811,-3.4711,-3.4626,-3.4539,-3.4344,-3.4049,-3.3876,-3.3807,-3.3788,-3.3232,-3.283,-3.2654,-3.2351,-3.1842,-3.1201,-3.114,-3.0821,-3.03,-3.0274,-2.9941,-2.9454,-2.9212,-2.8779,-2.824,-2.7645,-2.7473,-2.7386,-3.2541,-3.1751,-3.124,-3.1366,-3.0625,-3.0018,-3.0004,-2.9948,-2.9937,-2.9999,-3.0009,-3.006,-3.021,-3.0221,-3.0285,-3.0414,-3.0443,-3.0507,-3.0691,-3.0704,-3.0697,-3.0691,-3.0697,-3.069,-3.069,-3.069,-3.069,-3.069,-3.069,-3.069,-3.069,-3.0697,-3.0697,-3.0697,-3.071,-3.0703,-3.0709,-3.0774,-3.0843,-3.0901,-3.0907,-3.0898,-3.0898,-3.0891,-3.0855,-3.0794,-3.0791,-3.084,-3.0884,-3.0827,-3.084,-3.0888,-3.0813,-3.0796,-3.0791,-3.0801,-3.0794,-3.0794,-3.079,-3.079,-3.079,-3.0782,-3.0798,-3.0798,-3.0798,-3.074,-3.1188,-3.2944,-3.33,-3.3829,-3.5576,-3.5851,-3.5221,-3.3478,-3.3191,-3.3211,-3.3184,-3.3245,-3.392,-3.5658,-3.5768,-3.5678,-3.5676,-3.5621,-3.5535,-3.5393,-3.5374,-3.5268,-3.4992,-3.4975,-3.4794,-3.4334,-3.4435,-3.4386,-3.4197,-3.3921,-3.3807,-3.3807,-3.3491,-3.3147,-3.2813,-3.2894,-3.2419,-3.1582,-3.1493,-3.0864,-2.9919,-2.9865,-2.9572,-2.912,-2.912,-2.8779,-2.8288,-2.8255,-2.7929,-2.7575,-3.2981,-3.2277,-3.1638,-3.1163,-3.0423,-2.9907,-2.9891,-2.9876,-2.9859,-2.9869,-2.9839,-2.9867,-3.007,-3.0092,-3.0132,-3.0265,-3.0316,-3.0366,-3.0442,-3.0528,-3.061,-3.0691,-3.0711,-3.0704,-3.0704,-3.0704,-3.0691,-3.0704,-3.0691,-3.0704,-3.0704,-3.0697,-3.069,-3.069,-3.0704,-3.0691,-3.0698,-3.0728,-3.0739,-3.0739,-3.0789,-3.0798,-3.0798,-3.0801,-3.0807,-3.0804,-3.0794,-3.0791,-3.0804,-3.0794,-3.0791,-3.0804,-3.0796,-3.0799,-3.0796,-3.0794,-3.0791,-3.0804,-3.0794,-3.0794,-3.081,-3.0798,-3.0793,-3.0945,-3.1476,-3.1592,-3.2053,-3.3761,-3.4101,-3.4467,-3.5674,-3.5875,-3.5301,-3.3544,-3.414,-3.4445,-3.342,-3.4212,-3.5158,-3.5827,-3.5866,-3.5791,-3.5704,-3.5749,-3.5704,-3.5546,-3.556,-3.5442,-3.5139,-3.4978,-3.4754,-3.4435,-3.4476,-3.4293,-3.3895,-3.3815,-3.3726,-3.3549,-3.3268,-3.3068,-3.2925,-3.2749,-3.2368,-3.1823,-3.1274,-3.0864,-3.0518,-2.9689,-2.9257,-2.9074,-2.8732,-2.8304,-2.7894,-2.7894,-2.781,-2.7625,-3.2216,-3.1708,-3.128,-3.0732,-3.0217,-2.9888,-2.9888,-2.9857,-2.9825,-2.9808,-2.9737,-2.9736,-2.9905,-2.9918,-2.9954,-3.0094,-3.0152,-3.0201,-3.026,-3.0372,-3.0501,-3.0651,-3.0656,-3.0649,-3.0671,-3.0622,-3.063,-3.0672,-3.063,-3.0622,-3.0664,-3.0626,-3.0626,-3.0668,-3.0642,-3.0649,-3.0704,-3.0698,-3.0704,-3.0691,-3.0759,-3.0769,-3.0774,-3.0798,-3.0806,-3.081,-3.0781,-3.0778,-3.0771,-3.0778,-3.0774,-3.0771,-3.0785,-3.0794,-3.0799,-3.0799,-3.0796,-3.0794,-3.0801,-3.0798,-3.0794,-3.0798,-3.0793,-3.0964,-3.1554,-3.1899,-3.2508,-3.3922,-3.442,-3.4879,-3.5734,-3.5903,-3.5509,-3.4311,-3.5095,-3.5449,-3.4275,-3.5143,-3.5903,-3.5911,-3.5891,-3.5853,-3.5776,-3.5813,-3.5779,-3.5631,-3.566,-3.5538,-3.5283,-3.4925,-3.4693,-3.4564,-3.4431,-3.4173,-3.3726,-3.378,-3.3671,-3.3422,-3.3238,-3.3117,-3.3006,-3.2813,-3.2468,-3.202,-3.1425,-3.1077,-3.0804,-2.9777,-2.915,-2.8873,-2.8415,-2.7944,-2.7625,-2.7625,-2.756,-2.7408,-2.9706,-2.9511,-2.9645,-2.9773,-2.9857,-2.9888,-2.9888,-2.991,-2.9878,-2.9808,-2.9735,-2.97,-2.9701,-2.9701,-2.9738,-2.9895,-2.9895,-2.9988,-3.019,-3.0263,-3.0394,-3.0595,-3.053,-3.053,-3.0602,-3.0472,-3.0472,-3.0602,-3.0472,-3.0472,-3.0602,-3.0462,-3.0472,-3.0602,-3.0539,-3.0563,-3.0691,-3.0697,-3.069,-3.0697,-3.071,-3.0703,-3.0703,-3.0769,-3.0799,-3.0799,-3.073,-3.0695,-3.0703,-3.0703,-3.071,-3.0704,-3.0784,-3.0798,-3.0794,-3.0794,-3.0804,-3.0798,-3.0798,-3.0798,-3.0794,-3.0808,-3.0799,-3.0818,-3.0818,-3.1486,-3.2362,-3.3239,-3.4057,-3.4871,-3.574,-3.5908,-3.5898,-3.5895,-3.5957,-3.5974,-3.5914,-3.5899,-3.5895,-3.5891,-3.5903,-3.5903,-3.5911,-3.5779,-3.5693,-3.5693,-3.565,-3.5531,-3.5405,-3.4887,-3.4632,-3.4713,-3.4321,-3.3998,-3.3788,-3.3807,-3.3698,-3.3509,-3.3509,-3.3375,-3.3117,-3.316,-3.2848,-3.2179,-3.2056,-3.1476,-3.064,-3.0021,-2.9316,-2.8544,-2.8171,-2.784,-2.7625,-2.7625,-2.7291,-2.6901,-3.0254,-3.0123,-3.0144,-2.9795,-2.9823,-2.9888,-2.9888,-2.991,-2.9878,-2.9808,-2.9735,-2.97,-2.9701,-2.9701,-2.972,-2.9775,-2.9773,-2.9839,-3.0045,-3.0022,-3.0103,-3.0317,-3.0351,-3.0413,-3.053,-3.0482,-3.0492,-3.0539,-3.0492,-3.0482,-3.053,-3.0432,-3.0413,-3.0472,-3.0433,-3.0453,-3.0482,-3.0501,-3.0482,-3.0482,-3.0482,-3.0463,-3.0434,-3.0481,-3.0518,-3.0518,-3.0505,-3.0494,-3.0485,-3.0485,-3.0496,-3.0505,-3.0614,-3.0725,-3.0798,-3.0798,-3.0802,-3.0806,-3.0798,-3.0774,-3.0728,-3.0736,-3.1138,-3.1709,-3.2225,-3.3091,-3.4017,-3.4845,-3.5275,-3.5597,-3.5854,-3.5896,-3.5898,-3.5898,-3.5918,-3.5918,-3.5909,-3.5906,-3.589,-3.5894,-3.5908,-3.5897,-3.5892,-3.5859,-3.5801,-3.5702,-3.5599,-3.5432,-3.52,-3.4943,-3.4733,-3.4564,-3.4363,-3.4124,-3.3868,-3.3815,-3.3671,-3.3422,-3.3256,-3.3147,-3.3086,-3.2943,-3.2468,-3.1754,-3.1257,-3.0784,-3.0284,-2.9227,-2.8858,-2.8919,-2.8477,-2.8103,-2.784,-2.7408,-2.7291,-2.724,-3.0294,-3.0118,-3.0046,-2.9563,-2.9551,-2.968,-2.9841,-2.9841,-2.9825,-2.9842,-2.9771,-2.9699,-2.9701,-2.9701,-2.9701,-2.9701,-2.9718,-2.977,-2.9891,-2.9891,-2.9953,-3.008,-3.0131,-3.0209,-3.0333,-3.0285,-3.0309,-3.0381,-3.0352,-3.0364,-3.0419,-3.0333,-3.0314,-3.037,-3.0367,-3.0389,-3.0432,-3.0413,-3.0392,-3.0389,-3.0398,-3.0386,-3.0337,-3.0359,-3.0351,-3.0351,-3.0353,-3.0364,-3.0364,-3.0372,-3.0364,-3.0366,-3.047,-3.0556,-3.0633,-3.0633,-3.0639,-3.0639,-3.0646,-3.0583,-3.0613,-3.0944,-3.1416,-3.1928,-3.2426,-3.35,-3.4572,-3.5057,-3.547,-3.5791,-3.5814,-3.5832,-3.5876,-3.5901,-3.5927,-3.593,-3.5896,-3.5918,-3.5929,-3.59,-3.5895,-3.5908,-3.5905,-3.5846,-3.5757,-3.5591,-3.5483,-3.5355,-3.5193,-3.5013,-3.4774,-3.4526,-3.4279,-3.4012,-3.3753,-3.3671,-3.3577,-3.3422,-3.3147,-3.2961,-3.2898,-3.2435,-3.1915,-3.1346,-3.0807,-3.0452,-3.0258,-2.9319,-2.9044,-2.9166,-2.8605,-2.8266,-2.7955,-2.7458,-2.7188,-2.6878,-2.999,-2.9735,-2.9617,-2.9144,-2.9114,-2.928,-2.9644,-2.9681,-2.9717,-2.9842,-2.9771,-2.9699,-2.9699,-2.9701,-2.9701,-2.9701,-2.9755,-2.9771,-2.9717,-2.9842,-2.9893,-2.9907,-2.9888,-2.9934,-3.008,-2.9984,-2.9996,-3.0157,-3.0109,-3.0133,-3.0266,-3.0147,-3.0142,-3.0278,-3.0273,-3.0355,-3.0471,-3.0411,-3.0381,-3.037,-3.0367,-3.0364,-3.0364,-3.0302,-3.0271,-3.0259,-3.0273,-3.026,-3.0248,-3.026,-3.0273,-3.0279,-3.0279,-3.0344,-3.0385,-3.0385,-3.0395,-3.0404,-3.0501,-3.0449,-3.0595,-3.1399,-3.1754,-3.192,-3.1978,-3.3235,-3.4406,-3.4406,-3.5035,-3.5609,-3.5679,-3.5745,-3.5781,-3.585,-3.5919,-3.594,-3.589,-3.5953,-3.5976,-3.5915,-3.589,-3.5895,-3.5899,-3.5772,-3.5621,-3.5457,-3.535,-3.5311,-3.5296,-3.5062,-3.4794,-3.4538,-3.4134,-3.3813,-3.3549,-3.3422,-3.3422,-3.3481,-3.3099,-3.2816,-3.2521,-3.1771,-3.1227,-3.0845,-3.0543,-3.0435,-3.0293,-2.9924,-2.9572,-2.9287,-2.8653,-2.8201,-2.7905,-2.7575,-2.6864,-2.6068,-2.9761,-2.9521,-2.9385,-2.887,-2.8851,-2.8905,-2.8993,-2.918,-2.9341,-2.9418,-2.9589,-2.9701,-2.9699,-2.9701,-2.9701,-2.97,-2.9754,-2.9825,-2.9859,-2.9842,-2.9842,-2.9893,-2.9859,-2.9841,-2.9855,-2.994,-2.9969,-2.9984,-2.9937,-2.9953,-2.9981,-2.9953,-3.0,-3.0138,-3.0128,-3.0185,-3.0266,-3.0247,-3.0202,-3.0174,-3.0161,-3.0118,-3.0094,-3.006,-3.0026,-2.9981,-3.0,-3.0,-3.0,-2.9984,-3.0071,-3.0144,-3.0144,-3.0234,-3.0321,-3.0321,-3.0332,-3.0466,-3.116,-3.1282,-3.1418,-3.2168,-3.2885,-3.3436,-3.3504,-3.437,-3.5175,-3.5175,-3.5403,-3.5599,-3.5609,-3.56,-3.5562,-3.5582,-3.5687,-3.5753,-3.5756,-3.5851,-3.5913,-3.5895,-3.5897,-3.5906,-3.5907,-3.5775,-3.5704,-3.5715,-3.5546,-3.5418,-3.5316,-3.5149,-3.4962,-3.4754,-3.4338,-3.4074,-3.3899,-3.3419,-3.3238,-3.3422,-3.2766,-3.2299,-3.2022,-3.1304,-3.0567,-2.9924,-2.9924,-2.9705,-2.9257,-2.9243,-2.9106,-2.8858,-2.8685,-2.8091,-2.724,-2.6678,-2.6254,-2.5783,-3.0089,-2.9816,-2.954,-2.8575,-2.8442,-2.8524,-2.8717,-2.8874,-2.8986,-2.9055,-2.9175,-2.9316,-2.9495,-2.9474,-2.9531,-2.9701,-2.9773,-2.9808,-2.9842,-2.9754,-2.9717,-2.9754,-2.9626,-2.9551,-2.9494,-2.9681,-2.9806,-2.9891,-2.9857,-2.9874,-2.9888,-2.9888,-2.994,-2.9988,-2.9988,-3.0053,-3.0161,-3.0161,-3.0142,-3.0138,-3.0109,-3.0079,-3.0049,-3.0053,-3.0022,-2.9988,-2.9956,-2.994,-2.9888,-2.9888,-2.9953,-2.9996,-2.988,-2.9908,-2.9935,-2.9839,-3.019,-3.0685,-3.1142,-3.16,-3.2118,-3.292,-3.3475,-3.3819,-3.3887,-3.4626,-3.5311,-3.5311,-3.5369,-3.5418,-3.5495,-3.5495,-3.5463,-3.55,-3.5611,-3.5678,-3.5659,-3.5795,-3.5908,-3.5903,-3.5894,-3.5894,-3.5907,-3.5768,-3.5713,-3.5757,-3.5599,-3.5477,-3.5399,-3.5311,-3.5138,-3.4944,-3.4576,-3.4297,-3.4104,-3.3496,-3.325,-3.3327,-3.2435,-3.195,-3.1771,-3.0834,-3.0225,-2.987,-2.9544,-2.9227,-2.9013,-2.9075,-2.8685,-2.8124,-2.8244,-2.7633,-2.6644,-2.6366,-2.5563,-2.4446,-3.0561,-3.0229,-2.9779,-2.8276,-2.8047,-2.8156,-2.8478,-2.8578,-2.8634,-2.8699,-2.8735,-2.8888,-2.918,-2.9193,-2.9272,-2.955,-2.9645,-2.9718,-2.9754,-2.9608,-2.9532,-2.9513,-2.9375,-2.9272,-2.9209,-2.9373,-2.957,-2.9808,-2.979,-2.9825,-2.9874,-2.9874,-2.9874,-2.9872,-2.9872,-2.994,-3.0072,-3.0072,-3.0098,-3.019,-3.0109,-3.0094,-3.0094,-3.0098,-3.0102,-3.0087,-3.0022,-2.9956,-2.9888,-2.9888,-2.9872,-2.9822,-2.9662,-2.9589,-2.9532,-2.9522,-3.0144,-3.0902,-3.1183,-3.1863,-3.2694,-3.362,-3.3847,-3.3884,-3.3992,-3.4628,-3.5193,-3.5209,-3.5209,-3.5223,-3.534,-3.5336,-3.535,-3.5432,-3.5527,-3.5572,-3.5574,-3.5702,-3.5839,-3.5866,-3.5879,-3.5896,-3.5907,-3.5795,-3.5741,-3.5725,-3.562,-3.5538,-3.5519,-3.547,-3.535,-3.5155,-3.4851,-3.4536,-3.4204,-3.3597,-3.3255,-3.3124,-3.2162,-3.1694,-3.1603,-3.0567,-3.007,-3.0017,-2.9243,-2.8967,-2.9075,-2.8967,-2.8389,-2.7519,-2.7686,-2.7086,-2.6119,-2.5863,-2.4471,-2.2602,-3.0606,-3.0305,-2.9761,-2.8053,-2.7853,-2.7929,-2.7858,-2.802,-2.8219,-2.8358,-2.8529,-2.8676,-2.8842,-2.8952,-2.902,-2.902,-2.9233,-2.9415,-2.9514,-2.9357,-2.923,-2.9163,-2.9206,-2.923,-2.9293,-2.9251,-2.9312,-2.9472,-2.9626,-2.9719,-2.9719,-2.9719,-2.9774,-2.9806,-2.9806,-2.9857,-2.994,-2.994,-3.0007,-3.0117,-3.0102,-3.0098,-3.0109,-3.0094,-3.0098,-3.0087,-3.0022,-2.9956,-2.9888,-2.9888,-2.9769,-2.9644,-2.9608,-2.9494,-2.9465,-3.0148,-3.0445,-3.0857,-3.2251,-3.2739,-3.3086,-3.4124,-3.4438,-3.4563,-3.4849,-3.507,-3.5198,-3.5193,-3.5209,-3.5209,-3.5212,-3.5072,-3.5037,-3.5212,-3.5149,-3.5174,-3.5388,-3.5451,-3.5527,-3.5718,-3.5786,-3.584,-3.5895,-3.588,-3.5866,-3.5875,-3.5794,-3.5706,-3.56,-3.5574,-3.5515,-3.5364,-3.5207,-3.4832,-3.4199,-3.3603,-3.301,-3.2437,-3.1984,-3.1691,-3.1435,-3.0747,-3.0054,-2.9396,-2.9167,-2.9013,-2.8904,-2.8543,-2.8194,-2.7777,-2.7384,-2.6715,-2.5751,-2.4257,-2.2305,-2.0473,-3.0878,-3.0683,-3.0208,-2.8675,-2.8488,-2.8317,-2.7801,-2.78,-2.7897,-2.7954,-2.8047,-2.821,-2.8478,-2.87,-2.8814,-2.8724,-2.8805,-2.8879,-2.8927,-2.88,-2.8718,-2.8766,-2.8688,-2.8682,-2.8779,-2.8915,-2.9007,-2.9075,-2.9228,-2.9312,-2.9312,-2.9272,-2.9275,-2.9297,-2.9297,-2.9358,-2.9456,-2.9456,-2.9514,-2.9607,-2.9607,-2.9588,-2.9624,-2.9817,-2.9801,-2.9715,-2.9857,-2.9771,-2.9645,-2.9698,-2.9608,-2.9415,-2.9293,-2.9542,-2.9898,-3.0063,-3.087,-3.188,-3.2533,-3.3167,-3.3733,-3.4176,-3.4321,-3.4413,-3.4545,-3.4772,-3.4982,-3.5209,-3.5226,-3.5176,-3.5056,-3.4945,-3.4889,-3.483,-3.4925,-3.5028,-3.5119,-3.5283,-3.5469,-3.5621,-3.5678,-3.5747,-3.5891,-3.5906,-3.5908,-3.5896,-3.5801,-3.5704,-3.5611,-3.5566,-3.5451,-3.5239,-3.5107,-3.4851,-3.4423,-3.3862,-3.3364,-3.289,-3.2553,-3.195,-3.1223,-3.0666,-3.0097,-2.9544,-2.8858,-2.8559,-2.8559,-2.8061,-2.739,-2.6722,-2.6836,-2.6229,-2.5036,-2.3197,-2.1722,-2.0633]},{"header":{"parameterUnit":"m.s-1","parameterCategory":1,"la1":30.6,"la2":28.766,"lo1":-90.7593,"lo2":-88.6598,"dx":0.0162,"dy":0.0183,"nx":116,"ny":114,"refTime":"2022-12-06T06:00:00:Z","depth":0,"parameterNumber":3,"parameterNumberName":"V-component_of_WINDS"},"data":[0.0,0.0,0.0,0.0,0.0,0.0,0.0,0.0,0.0,0.0,0.0,0.0,0.0,0.0,0.0,0.0,0.0,0.0,0.0,0.0,0.0,0.0,0.0,0.0,0.0,0.0,0.0,0.0,0.0,0.0,0.0,0.0,0.0,0.0,0.0,0.0,0.0,0.0,0.0,0.0,0.0,0.0,0.0,0.0,0.0,0.0,0.0,0.0,0.0,0.0,0.0,0.0,0.0,0.0,0.0,0.0,0.0,0.0,0.0,0.0,0.0,0.0,0.0,0.0,0.0,0.0,0.0,0.0,0.0,0.0,0.0,0.0,0.0,0.0,0.0,0.0,0.0,0.0,0.0,0.0,0.0,0.0,0.0,0.0,0.0,0.0,0.0,0.0,0.0,0.0,0.0,0.0,0.0,0.0,0.0,0.0,0.0,0.0,0.0,0.0,0.0,0.0,0.0,0.0,0.0,0.0,0.0,0.0,0.0,0.0,0.0,0.0,0.0,0.0,0.0,0.0,0.0,0.0,0.0,0.0,0.0,0.0,0.0,0.0,0.0,0.0,0.0,0.0,0.0,0.0,0.0,0.0,0.0,0.0,0.0,0.0,0.0,0.0,0.0,0.0,0.0,0.0,0.0,0.0,0.0,0.0,0.0,0.0,0.0,0.0,0.0,0.0,0.0,0.0,0.0,0.0,0.0,0.0,0.0,0.0,0.0,0.0,0.0,0.0,0.0,0.0,0.0,0.0,0.0,0.0,0.0,0.0,0.0,0.0,0.0,0.0,0.0,0.0,0.0,0.0,0.0,0.0,0.0,0.0,0.0,0.0,0.0,0.0,0.0,0.0,0.0,0.0,0.0,0.0,0.0,0.0,0.0,0.0,0.0,0.0,0.0,0.0,0.0,0.0,0.0,0.0,0.0,0.0,0.0,0.0,0.0,0.0,0.0,0.0,0.0,0.0,0.0,0.0,0.0,0.0,0.0,0.0,0.0,0.0,0.0,0.0,0.0,0.0,0.0,0.0,0.0,0.0,0.0,0.0,0.0,0.0,0.0,0.0,0.0,0.0,0.0,0.0,0.0,0.0,0.0,0.0,0.0,0.0,0.0,0.0,0.0,0.0,0.0,0.0,0.0,0.0,0.0,0.0,0.0,0.0,0.0,0.0,0.0,0.0,0.0,0.0,0.0,0.0,0.0,0.0,0.0,0.0,0.0,0.0,0.0,0.0,0.0,0.0,0.0,0.0,0.0,0.0,0.0,0.0,0.0,0.0,0.0,0.0,0.0,0.0,0.0,0.0,0.0,0.0,0.0,0.0,0.0,0.0,0.0,0.0,0.0,0.0,0.0,0.0,0.0,0.0,0.0,0.0,0.0,0.0,0.0,0.0,0.0,0.0,0.0,0.0,0.0,0.0,0.0,0.0,0.0,0.0,0.0,0.0,0.0,0.0,0.0,0.0,0.0,0.0,0.0,0.0,0.0,0.0,0.0,0.0,0.0,0.0,0.0,0.0,0.0,0.0,0.0,0.0,0.0,0.0,0.0,0.0,0.0,0.0,0.0,0.0,0.0,0.0,0.0,0.0,0.0,0.0,0.0,0.0,0.0,0.0,0.0,0.0,0.0,0.0,0.0,0.0,0.0,0.0,0.0,0.0,0.0,0.0,0.0,0.0,0.0,0.0,0.0,0.0,0.0,0.0,0.0,0.0,0.0,0.0,0.0,0.0,0.0,0.0,0.0,0.0,0.0,0.0,0.0,0.0,0.0,0.0,0.0,0.0,0.0,0.0,0.0,0.0,0.0,0.0,0.0,0.0,0.0,0.0,0.0,0.0,0.0,0.0,0.0,0.0,0.0,0.0,0.0,0.0,0.0,0.0,0.0,0.0,0.0,0.0,0.0,0.0,0.0,0.0,0.0,0.0,0.0,0.0,0.0,0.0,0.0,0.0,0.0,0.0,0.0,0.0,0.0,0.0,0.0,0.0,0.0,0.0,0.0,0.0,0.0,0.0,0.0,0.0,0.0,0.0,0.0,0.0,0.0,0.0,0.0,0.0,0.0,0.0,0.0,0.0,0.0,0.0,0.0,0.0,0.0,0.0,0.0,0.0,0.0,0.0,0.0,0.0,0.0,0.0,0.0,0.0,0.0,0.0,0.0,0.0,0.0,0.0,0.0,0.0,0.0,0.0,0.0,0.0,0.0,0.0,0.0,0.0,0.0,0.0,0.0,0.0,0.0,0.0,0.0,0.0,0.0,0.0,0.0,0.0,0.0,0.0,0.0,0.0,0.0,0.0,0.0,0.0,0.0,0.0,0.0,0.0,0.0,0.0,0.0,0.0,0.0,0.0,0.0,0.0,0.0,0.0,0.0,0.0,0.0,0.0,0.0,0.0,0.0,0.0,0.0,0.0,0.0,0.0,0.0,0.0,0.0,0.0,0.0,0.0,0.0,0.0,0.0,0.0,0.0,0.0,0.0,0.0,0.0,0.0,0.0,0.0,0.0,0.0,0.0,0.0,0.0,0.0,0.0,0.0,0.0,0.0,0.0,0.0,0.0,0.0,0.0,0.0,0.0,0.0,0.0,0.0,0.0,0.0,0.0,0.0,0.0,0.0,0.0,0.0,0.0,0.0,0.0,0.0,0.0,0.0,0.0,0.0,0.0,0.0,0.0,0.0,0.0,0.0,0.0,0.0,0.0,0.0,0.0,0.0,0.0,0.0,0.0,0.0,0.0,0.0,0.0,0.0,0.0,0.0,0.0,0.0,0.0,0.0,0.0,0.0,0.0,0.0,0.0,0.0,0.0,0.0,0.0,0.0,0.0,0.0,0.0,0.0,0.0,0.0,0.0,0.0,0.0,0.0,0.0,0.0,0.0,0.0,0.0,0.0,0.0,0.0,0.0,0.0,0.0,0.0,0.0,0.0,0.0,0.0,0.0,0.0,0.0,0.0,0.0,0.0,0.0,0.0,0.0,0.0,0.0,0.0,0.0,0.0,0.0,0.0,0.0,0.0,0.0,0.0,0.0,0.0,0.0,0.0,0.0,0.0,0.0,0.0,0.0,0.0,0.0,0.0,0.0,0.0,0.0,0.0,0.0,0.0,0.0,0.0,0.0,0.0,0.0,0.0,0.0,0.0,0.0,0.0,0.0,0.0,0.0,0.0,0.0,0.0,0.0,0.0,0.0,0.0,0.0,0.0,0.0,0.0,0.0,0.0,0.0,0.0,0.0,0.0,0.0,0.0,0.0,0.0,0.0,0.0,0.0,0.0,0.0,0.0,0.0,0.0,0.0,0.0,0.0,0.0,0.0,0.0,0.0,0.0,0.0,0.0,0.0,0.0,0.0,0.0,0.0,0.0,0.0,0.0,0.0,0.0,0.0,0.0,0.0,0.0,0.0,0.0,0.0,0.0,0.0,0.0,0.0,0.0,0.0,0.0,0.0,0.0,0.0,0.0,0.0,0.0,0.0,0.0,0.0,0.0,0.0,0.0,0.0,0.0,0.0,0.0,0.0,0.0,0.0,0.0,0.0,0.0,0.0,0.0,0.0,0.0,0.0,0.0,0.0,0.0,0.0,0.0,0.0,0.0,0.0,0.0,0.0,0.0,0.0,0.0,0.0,0.0,0.0,0.0,0.0,0.0,0.0,0.0,0.0,0.0,0.0,0.0,0.0,0.0,0.0,0.0,0.0,0.0,0.0,0.0,0.0,0.0,0.0,0.0,0.0,0.0,0.0,0.0,0.0,0.0,0.0,0.0,0.0,0.0,0.0,0.0,0.0,0.0,0.0,0.0,0.0,0.0,0.0,0.0,0.0,0.0,0.0,0.0,0.0,0.0,0.0,0.0,0.0,0.0,0.0,0.0,0.0,0.0,0.0,0.0,0.0,0.0,0.0,0.0,0.0,0.0,0.0,0.0,0.0,0.0,0.0,0.0,0.0,0.0,0.0,0.0,0.0,0.0,0.0,0.0,0.0,0.0,0.0,0.0,0.0,0.0,0.0,0.0,0.0,0.0,0.0,0.0,0.0,0.0,0.0,0.0,0.0,0.0,0.0,0.0,0.0,0.0,0.0,0.0,0.0,0.0,0.0,0.0,0.0,0.0,0.0,0.0,0.0,0.0,0.0,0.0,0.0,0.0,0.0,0.0,0.0,0.0,0.0,0.0,0.0,0.0,0.0,0.0,0.0,0.0,0.0,0.0,0.0,0.0,0.0,0.0,0.0,0.0,0.0,0.0,0.0,0.0,0.0,0.0,0.0,0.0,0.0,0.0,0.0,0.0,0.0,0.0,0.0,0.0,0.0,0.0,0.0,0.0,0.0,0.0,0.0,0.0,0.0,0.0,0.0,0.0,0.0,0.0,0.0,0.0,0.0,0.0,0.0,0.0,0.0,0.0,0.0,0.0,0.0,0.0,0.0,0.0,0.0,0.0,0.0,0.0,0.0,0.0,0.0,0.0,0.0,0.0,0.0,0.0,0.0,0.0,0.0,0.0,0.0,0.0,0.0,0.0,0.0,0.0,0.0,0.0,0.0,0.0,0.0,0.0,0.0,0.0,0.0,0.0,0.0,0.0,0.0,0.0,0.0,0.0,0.0,0.0,0.0,0.0,0.0,0.0,0.0,0.0,0.0,0.0,0.0,0.0,0.0,0.0,0.0,0.0,0.0,0.0,0.0,0.0,0.0,0.0,0.0,0.0,0.0,0.0,0.0,0.0,0.0,0.0,0.0,0.0,0.0,0.0,0.0,0.0,0.0,0.0,0.0,0.0,0.0,0.0,0.0,0.0,0.0,0.0,0.0,0.0,0.0,0.0,0.0,0.0,0.0,0.0,0.0,0.0,0.0,0.0,0.0,0.0,0.0,0.0,0.0,0.0,0.0,0.0,0.0,0.0,0.0,0.0,0.0,0.0,0.0,0.0,0.0,0.0,0.0,0.0,0.0,0.0,0.0,0.0,0.0,0.0,0.0,0.0,0.0,0.0,0.0,0.0,0.0,0.0,0.0,0.0,0.0,0.0,0.0,0.0,0.0,0.0,0.0,0.0,0.0,0.0,0.0,0.0,0.0,0.0,0.0,0.0,0.0,0.0,0.0,0.0,0.0,0.0,0.0,0.0,0.0,0.0,0.0,0.0,0.0,0.0,0.0,0.0,0.0,0.0,0.0,0.0,0.0,0.0,0.0,0.0,0.0,0.0,0.0,0.0,0.0,0.0,0.0,0.0,0.0,0.0,0.0,0.0,0.0,0.0,0.0,0.0,0.0,0.0,0.0,0.0,0.0,0.0,0.0,0.0,0.0,0.0,0.0,0.0,0.0,0.0,0.0,0.0,0.0,0.0,0.0,0.0,0.0,0.0,0.0,0.0,0.0,0.0,0.0,0.0,0.0,0.0,0.0,0.0,0.0,0.0,0.0,0.0,0.0,0.0,0.0,0.0,0.0,0.0,0.0,0.0,0.0,0.0,0.0,0.0,0.0,0.0,0.0,0.0,0.0,0.0,0.0,0.0,0.0,0.0,0.0,0.0,0.0,0.0,0.0,0.0,0.0,0.0,0.0,0.0,0.0,0.0,0.0,0.0,0.0,0.0,0.0,0.0,0.0,0.0,0.0,0.0,0.0,0.0,0.0,0.0,0.0,0.0,0.0,0.0,0.0,0.0,0.0,0.0,0.0,0.0,0.0,0.0,0.0,0.0,0.0,0.0,0.0,0.0,0.0,0.0,0.0,0.0,0.0,0.0,0.0,0.0,0.0,0.0,0.0,0.0,0.0,0.0,0.0,0.0,0.0,0.0,0.0,0.0,0.0,0.0,0.0,0.0,0.0,0.0,0.0,0.0,0.0,0.0,0.0,0.0,0.0,0.0,0.0,0.0,0.0,0.0,0.0,0.0,0.0,0.0,0.0,0.0,0.0,0.0,0.0,0.0,0.0,0.0,0.0,0.0,0.0,0.0,0.0,0.0,0.0,0.0,0.0,0.0,0.0,0.0,0.0,0.0,0.0,0.0,0.0,0.0,0.0,0.0,0.0,0.0,0.0,0.0,0.0,0.0,0.0,0.0,0.0,0.0,0.0,0.0,0.0,0.0,0.0,0.0,0.0,0.0,0.0,0.0,0.0,0.0,0.0,0.0,-1.1348,-0.9926,0.0,0.0,0.0,0.0,0.0,0.0,0.0,0.0,0.0,0.0,0.0,0.0,0.0,0.0,0.0,0.0,0.0,0.0,0.0,0.0,0.0,0.0,0.0,-0.5854,-0.5906,-0.5631,-0.5354,0.0,0.0,0.0,0.0,0.0,0.0,0.0,0.0,0.0,-0.3558,-0.3746,-0.449,-0.5029,-0.5349,-0.4911,-0.4343,-0.3719,0.0,0.0,0.0,0.0,0.0,0.0,0.0,0.0,0.0,0.0,0.0,0.0,0.0,0.0,0.0,0.0,0.0,0.0,0.0,0.0,0.0,0.0,0.0,0.0,0.0,0.0,0.0,0.0,0.0,0.0,0.0,0.0,0.0,0.0,0.0,0.0,0.0,0.0,0.0,0.0,0.0,0.0,0.0,0.0,0.0,0.0,0.0,0.0,0.0,0.0,0.0,0.0,0.0,0.0,0.0,0.0,0.0,0.0,0.0,0.0,0.0,0.0,0.0,0.0,0.0,0.0,0.0,0.0,0.0,0.0,-1.3619,-1.249,0.0,0.0,0.0,0.0,0.0,0.0,0.0,0.0,0.0,0.0,0.0,0.0,0.0,0.0,0.0,0.0,0.0,0.0,0.0,0.0,0.0,-0.6238,-0.6178,-0.6235,-0.6132,-0.5759,-0.5554,-0.5293,-0.4938,-0.454,0.0,0.0,0.0,0.0,-0.3578,-0.3902,-0.4148,-0.4311,-0.5391,-0.6191,-0.6716,-0.6228,-0.5471,-0.4517,-0.4045,0.0,0.0,0.0,0.0,0.0,0.0,0.0,0.0,0.0,0.0,0.0,0.0,0.0,0.0,0.0,0.0,0.0,0.0,0.0,0.0,0.0,0.0,0.0,0.0,0.0,0.0,0.0,0.0,0.0,0.0,0.0,0.0,0.0,0.0,0.0,0.0,0.0,0.0,0.0,0.0,0.0,0.0,0.0,0.0,0.0,0.0,0.0,0.0,0.0,0.0,0.0,0.0,0.0,0.0,0.0,0.0,0.0,0.0,0.0,0.0,0.0,0.0,0.0,-1.2265,-1.2364,-1.2543,-1.3237,-1.4085,-1.5003,-1.5624,-1.5046,-1.3682,-1.392,0.0,0.0,0.0,0.0,0.0,0.0,0.0,0.0,0.0,0.0,0.0,0.0,0.0,0.0,0.0,0.0,0.0,0.0,0.0,-0.6882,-0.687,-0.7176,-0.7301,-0.7077,-0.6661,-0.6136,-0.5447,-0.4973,0.0,0.0,0.0,-0.37,-0.3844,-0.3895,-0.4466,-0.5562,-0.6424,-0.6827,-0.6852,-0.6202,-0.5738,-0.5414,-0.523,-0.4416,-0.3237,0.0,0.0,0.0,0.0,0.0,0.0,0.0,0.0,0.0,0.0,0.0,0.0,0.0,0.0,0.0,0.0,0.0,0.0,0.0,0.0,0.0,0.0,0.0,0.0,0.0,0.0,0.0,0.0,0.0,0.0,0.0,0.0,0.0,0.0,0.0,0.0,0.0,0.0,0.0,0.0,0.0,-0.6691,-0.6396,0.0,0.0,0.0,0.0,0.0,0.0,0.0,0.0,0.0,0.0,0.0,0.0,0.0,-1.1793,-1.1233,-1.2271,-1.2617,-1.219,-1.2539,-1.2756,-1.281,-1.3906,-1.4888,-1.5782,-1.7198,0.0,-1.3546,-1.3871,0.0,0.0,0.0,0.0,0.0,0.0,0.0,0.0,0.0,0.0,0.0,0.0,0.0,0.0,0.0,0.0,0.0,0.0,0.0,0.0,0.0,-0.8285,-0.8645,-0.7866,-0.8522,-0.8263,-0.6624,-0.6244,0.0,0.0,-0.4353,-0.4299,-0.4346,-0.4714,-0.5636,-0.7161,-0.7115,-0.7315,-0.768,-0.6797,-0.6063,-0.5605,-0.5726,-0.4872,-0.3404,-0.375,0.0,0.0,0.0,0.0,0.0,0.0,0.0,0.0,0.0,0.0,0.0,0.0,0.0,0.0,0.0,0.0,0.0,0.0,0.0,0.0,0.0,0.0,0.0,0.0,0.0,0.0,0.0,0.0,0.0,0.0,0.0,0.0,0.0,0.0,0.0,0.0,0.0,0.0,0.0,-0.6241,-0.6598,-0.71,-0.737,-0.7527,0.0,0.0,0.0,0.0,0.0,0.0,0.0,0.0,0.0,-1.1204,-1.2067,-1.2482,-1.2263,-1.3144,-1.3478,-1.326,-1.3557,-1.3687,-1.3671,-1.4024,-1.4415,-1.487,-1.6237,-1.5801,-1.4338,-1.6047,-1.6079,-1.5121,0.0,0.0,0.0,0.0,-1.4778,-1.4541,0.0,0.0,0.0,0.0,0.0,0.0,0.0,0.0,0.0,0.0,0.0,0.0,-0.8016,-0.9288,-0.9749,-0.879,-0.9862,-0.967,-0.7549,-0.7243,-0.6572,-0.5296,-0.5081,-0.4932,-0.479,-0.5698,-0.6818,-0.8052,-0.7943,-0.8072,-0.8381,-0.7438,-0.6664,-0.6116,-0.6071,-0.5139,-0.3605,-0.3829,-0.3672,-0.3224,0.0,0.0,0.0,0.0,0.0,0.0,0.0,0.0,0.0,0.0,0.0,0.0,0.0,0.0,0.0,0.0,0.0,0.0,0.0,0.0,0.0,0.0,0.0,0.0,0.0,0.0,0.0,0.0,0.0,0.0,0.0,0.0,0.0,0.0,0.0,0.0,0.0,-0.6687,-0.7285,-0.8134,-0.8622,-0.8827,0.0,0.0,0.0,0.0,0.0,0.0,-0.9999,-1.1199,-1.1864,-1.185,-1.2663,-1.3162,-1.3281,-1.3987,-1.4364,-1.4252,-1.4558,-1.4638,-1.4561,-1.4348,-1.4284,-1.43,-1.5339,-1.5513,-1.5134,-1.7062,-1.7129,-1.6019,-1.6611,-1.6287,-1.5622,-1.6063,-1.5852,-1.5532,0.0,0.0,0.0,0.0,0.0,0.0,0.0,0.0,0.0,0.0,0.0,-0.8988,-0.9364,-1.0034,-1.0358,-1.012,-0.9993,-0.9298,-0.7763,-0.7385,-0.6803,-0.5907,-0.5657,-0.5415,-0.5076,-0.6657,-0.7553,-0.7623,-0.9052,-0.9397,-0.8684,-0.7947,-0.7548,-0.7332,-0.6264,-0.5065,-0.3896,-0.4275,-0.4152,-0.3616,-0.3182,0.0,0.0,0.0,0.0,0.0,0.0,0.0,0.0,0.0,0.0,0.0,0.0,0.0,0.0,0.0,0.0,0.0,0.0,0.0,0.0,0.0,0.0,0.0,0.0,0.0,0.0,0.0,0.0,0.0,0.0,0.0,0.0,0.0,0.0,0.0,0.0,0.0,0.0,-0.9967,-0.9813,0.0,0.0,0.0,0.0,-0.9667,-1.0129,-1.0251,-0.9921,-1.0906,-1.1783,-1.2413,-1.3592,-1.4183,-1.4146,-1.4795,-1.4991,-1.4705,-1.5178,-1.5434,-1.5311,-1.5311,-1.515,-1.4988,-1.5618,-1.5839,-1.5794,-1.5317,-1.5201,-1.5314,-1.5245,-1.5313,-1.5466,-1.593,-1.6092,-1.629,0.0,0.0,0.0,-0.4398,-0.4732,-0.5321,-0.5857,-0.6447,-0.7083,-0.7781,-0.8688,-0.9475,-0.9965,-1.1495,-1.2401,-1.2148,-1.2724,-1.1923,-0.9281,-0.8903,-0.7943,-0.5992,-0.5993,-0.6447,-0.7287,-0.7767,-0.8398,-0.9077,-0.877,-0.8498,-0.8369,-0.7565,-0.7135,-0.7057,-0.636,-0.5698,-0.509,-0.484,-0.4358,-0.3762,-0.363,-0.3235,0.0,0.0,0.0,0.0,0.0,0.0,0.0,0.0,0.0,0.0,0.0,0.0,0.0,0.0,0.0,0.0,0.0,0.0,0.0,0.0,0.0,0.0,0.0,0.0,0.0,0.0,0.0,0.0,0.0,0.0,0.0,0.0,0.0,0.0,0.0,0.0,0.0,-1.0094,-1.0141,0.0,-0.9792,-0.9959,-1.0002,-0.9768,-1.087,-1.1245,-1.0735,-1.2026,-1.2892,-1.3014,-1.3334,-1.3746,-1.4421,-1.4691,-1.5086,-1.5549,-1.5829,-1.5875,-1.5682,-1.562,-1.5381,-1.5219,-1.5289,-1.5289,-1.525,-1.4911,-1.5356,-1.6349,-1.7637,-1.8115,-1.814,-1.8092,-1.8825,-2.0019,0.0,0.0,0.0,-0.4992,-0.5155,-0.5556,-0.6115,-0.6715,-0.7431,-0.8359,-0.9319,-1.0251,-1.1136,-1.2639,-1.3524,-1.3292,-1.3736,-1.2849,-1.0094,-0.9771,-0.866,-0.6443,-0.6324,-0.7032,-0.8546,-0.838,-0.8628,-0.9455,-0.8745,-0.8263,-0.8035,-0.7419,-0.7019,-0.6857,-0.6381,-0.6002,-0.577,-0.5229,-0.4621,-0.4016,-0.3571,-0.3272,-0.304,0.0,0.0,0.0,0.0,0.0,0.0,0.0,0.0,0.0,0.0,0.0,0.0,0.0,0.0,0.0,0.0,0.0,0.0,0.0,0.0,0.0,0.0,0.0,0.0,0.0,0.0,0.0,0.0,0.0,0.0,0.0,0.0,0.0,0.0,-0.9583,-0.9879,-1.0261,-1.0417,-1.0388,-1.0274,-1.0295,-1.0456,-1.0828,-1.167,-1.1979,-1.1591,-1.2445,-1.3147,-1.3525,-1.3455,-1.3945,-1.5015,-1.5114,-1.5515,-1.6175,-1.626,-1.6239,-1.6023,-1.596,-1.5732,-1.5574,-1.5408,-1.5408,-1.5329,-1.5264,-1.5874,-1.702,-1.8364,-1.89,-1.8893,-1.9464,-2.0656,-2.2004,0.0,0.0,-0.6541,-0.6259,-0.6048,-0.6134,-0.6706,-0.7308,-0.8156,-0.9439,-1.0243,-1.1339,-1.2981,-1.3429,-1.3579,-1.343,-1.2881,-1.1828,-1.0125,-0.9771,-0.8931,-0.7297,-0.6658,-0.7146,-0.8762,-0.8345,-0.8265,-0.8607,-0.9134,-0.8802,-0.7783,-0.7633,-0.7326,-0.6942,-0.6486,-0.61,-0.5806,-0.5588,-0.514,-0.4365,-0.2998,-0.2904,-0.3379,0.0,0.0,0.0,0.0,0.0,0.0,0.0,0.0,0.0,0.0,0.0,0.0,0.0,0.0,0.0,0.0,0.0,0.0,0.0,0.0,0.0,0.0,0.0,0.0,0.0,0.0,0.0,0.0,0.0,0.0,0.0,0.0,0.0,-1.0042,-1.0186,-1.0398,-1.0795,-1.0664,-1.0815,-1.1526,-1.1165,-1.141,-1.2765,-1.2576,-1.2337,-1.2216,-1.2205,-1.2784,-1.3982,-1.4215,-1.4895,-1.6081,-1.625,-1.6354,-1.6381,-1.6468,-1.6485,-1.6394,-1.6394,-1.6319,-1.6087,-1.6087,-1.6087,-1.6087,-1.6087,-1.6558,-1.7268,-1.7252,-1.7269,-1.7569,-2.0042,-2.1328,-2.1923,-0.781,-0.748,-0.7086,-0.633,-0.6556,-0.6837,-0.6806,-0.7301,-0.8155,-0.9419,-1.0532,-1.1893,-1.3756,-1.4098,-1.4233,-1.438,-1.3622,-1.2316,-1.0466,-1.0303,-0.954,-0.7946,-0.7686,-0.8049,-0.9078,-0.8657,-0.8659,-0.8968,-0.8618,-0.8273,-0.8021,-0.7787,-0.7629,-0.7553,-0.6942,-0.6612,-0.6343,-0.596,-0.5225,-0.4295,-0.4051,-0.3817,-0.3651,0.0,0.0,0.0,0.0,0.0,0.0,0.0,0.0,0.0,0.0,0.0,0.0,0.0,0.0,0.0,0.0,0.0,0.0,0.0,0.0,0.0,0.0,0.0,0.0,0.0,0.0,0.0,0.0,0.0,0.0,0.0,-0.9591,-1.0389,-1.041,-1.0701,-1.0989,-1.1132,-1.1243,-1.144,-1.1886,-1.2116,-1.2164,-1.211,-1.2762,-1.2941,-1.2264,-1.352,-1.4515,-1.4992,-1.5018,-1.5446,-1.6348,-1.5959,-1.6086,-1.6587,-1.6831,-1.6716,-1.6394,-1.6566,-1.6409,-1.6087,-1.6087,-1.6087,-1.6087,-1.6087,-1.6245,-1.6542,-1.8066,-1.9071,-1.9841,-2.1691,-2.2787,-2.3268,-0.807,-0.7709,-0.7367,-0.7058,-0.7006,-0.704,-0.7202,-0.7498,-0.8337,-1.0118,-1.0937,-1.2265,-1.4713,-1.4549,-1.4411,-1.4948,-1.3455,-1.2121,-1.1185,-1.0308,-0.9526,-0.8951,-0.8252,-0.8151,-0.8774,-0.8485,-0.836,-0.8594,-0.8273,-0.8025,-0.7868,-0.7638,-0.748,-0.7249,-0.6868,-0.6563,-0.6412,-0.5702,-0.5031,-0.4346,-0.405,-0.3657,-0.3173,-0.2728,-0.2568,-0.267,-0.2903,-0.2791,-0.257,-0.2917,0.0,0.0,0.0,0.0,0.0,0.0,0.0,0.0,0.0,0.0,0.0,0.0,0.0,0.0,0.0,0.0,0.0,0.0,0.0,0.0,0.0,0.0,0.0,0.0,-1.0253,-1.0985,-1.1094,-1.1187,-1.1461,-1.2004,-1.1985,-1.2098,-1.2614,-1.2784,-1.2873,-1.2882,-1.3468,-1.3769,-1.3566,-1.4421,-1.514,-1.5599,-1.559,-1.5944,-1.6762,-1.6445,-1.6519,-1.7074,-1.7147,-1.7057,-1.6812,-1.6812,-1.673,-1.6492,-1.6409,-1.6327,-1.6327,-1.6327,-1.6574,-1.7041,0.0,0.0,0.0,0.0,-2.3012,-2.3479,-0.8551,-0.7935,-0.7581,-0.8026,-0.7417,-0.7063,-0.7694,-0.7724,-0.8558,-1.106,-1.1345,-1.246,-1.5487,-1.4746,-1.4358,-1.5018,-1.297,-1.1687,-1.1876,-1.0053,-0.9256,-0.9939,-0.8467,-0.7858,-0.8199,-0.7986,-0.7776,-0.7804,-0.7953,-0.7872,-0.7561,-0.7334,-0.7038,-0.6666,-0.644,-0.6217,-0.6074,-0.5121,-0.4624,-0.438,-0.334,-0.2801,-0.263,-0.2232,-0.2404,-0.293,-0.3539,-0.3541,-0.3314,-0.3429,0.0,0.0,0.0,0.0,0.0,0.0,0.0,0.0,0.0,0.0,0.0,0.0,0.0,0.0,0.0,0.0,0.0,0.0,0.0,0.0,0.0,0.0,0.0,0.0,-1.1044,-1.1519,-1.2011,-1.1661,-1.1886,-1.3015,-1.2742,-1.2777,-1.3383,-1.3418,-1.3656,-1.4325,-1.4409,-1.4691,-1.5261,-1.5099,0.0,0.0,0.0,-1.6484,-1.7195,-1.7255,-1.7306,-1.7588,-1.7481,-1.7392,-1.7392,-1.7221,-1.7131,-1.7057,-1.6812,-1.6738,-1.673,-1.673,-1.7204,-1.8078,-1.87,-1.9018,-1.9413,-2.1461,-2.2628,-2.315,-0.8665,-0.8449,-0.8249,-0.8182,-0.7943,-0.7748,-0.7798,-0.765,-0.8466,-1.1051,-1.1293,-1.229,-1.5128,-1.4746,-1.4348,-1.4383,-1.3118,-1.2,-1.1239,-1.0356,-0.9681,-0.9334,-0.875,-0.83,-0.7897,-0.7821,-0.7766,-0.7804,-0.7804,-0.7804,-0.7723,-0.7338,-0.7099,-0.6904,-0.651,-0.5932,-0.5128,-0.4961,-0.4146,-0.2999,-0.2571,-0.2988,-0.3716,-0.3183,-0.3335,-0.3816,-0.3113,-0.2689,-0.2516,-0.2671,-0.2691,-0.2627,-0.2799,-0.2677,0.0,0.0,0.0,0.0,0.0,0.0,0.0,0.0,0.0,0.0,0.0,0.0,0.0,0.0,0.0,0.0,0.0,0.0,0.0,-1.0456,-1.1542,-1.2508,-1.2441,-1.2344,-1.2553,-1.3003,-1.3051,-1.3321,-1.3938,-1.4194,-1.4394,-1.4698,-1.509,-1.5433,-1.5497,-1.6168,-1.6484,-1.655,-1.7075,-1.7345,-1.7411,-1.7359,-1.7384,-1.74,-1.7546,0.0,-1.7392,-1.7546,-1.7375,-1.7139,-1.7057,-1.6894,-1.673,-1.673,-1.7204,-1.8078,-1.8859,-1.9806,-2.074,-2.1221,-2.2295,-2.3519,-0.8467,-0.8428,-0.8348,-0.8174,-0.8011,-0.787,-0.7812,-0.7724,-0.8318,-1.0166,-1.0617,-1.1595,-1.367,-1.3678,-1.3712,-1.4153,-1.3511,-1.2509,-1.1256,-1.1034,-1.0725,-1.0266,-0.9342,-0.8627,-0.8255,-0.7872,-0.7642,-0.7642,-0.7642,-0.7533,-0.7383,-0.7301,-0.6838,-0.6081,-0.5932,-0.5328,-0.4358,-0.394,-0.3291,-0.256,-0.2048,-0.2475,-0.3306,-0.3124,-0.3471,-0.3995,-0.402,-0.3497,-0.2977,-0.3608,-0.3266,-0.2664,-0.3037,-0.3171,-0.3163,0.0,0.0,0.0,0.0,0.0,0.0,0.0,0.0,0.0,0.0,0.0,0.0,0.0,0.0,-0.8461,-0.9238,0.0,-1.1629,-1.1226,-1.1868,-1.2464,-1.2692,-1.2859,-1.3168,-1.3803,-1.3916,-1.4052,-1.4374,-1.4604,-1.4851,-1.51,-1.5322,-1.5712,-1.6197,-1.6689,-1.6891,-1.6831,-1.7228,-1.7432,-1.7339,-1.7339,-1.7419,-1.7482,-1.7548,-1.7473,-1.7392,-1.7383,-1.7294,-1.7049,-1.6976,-1.6812,-1.673,-1.673,-1.6968,-1.7367,-1.7836,-1.9186,-2.076,-2.076,-2.1832,-2.3298,-0.8232,-0.8205,-0.8191,-0.8094,-0.7927,-0.7812,-0.7811,-0.7782,-0.8169,-0.9294,-0.9865,-1.0743,-1.2263,-1.2452,-1.2772,-1.3654,-1.3573,-1.2887,-1.1551,-1.1703,-1.1758,-1.1372,-1.0132,-0.915,-0.8703,-0.8093,-0.7633,-0.7484,-0.7484,-0.7402,-0.7141,-0.7243,-0.6627,-0.5399,-0.5406,-0.4787,-0.363,-0.2714,-0.2227,-0.1996,-0.1308,-0.1496,-0.2211,-0.259,-0.3217,-0.3936,-0.4626,-0.436,-0.3788,-0.4499,-0.389,-0.2883,-0.3497,-0.3795,-0.3897,-0.3571,-0.3745,0.0,0.0,0.0,0.0,0.0,0.0,0.0,0.0,-0.6585,-0.7179,-0.8577,-0.918,-0.968,-1.0463,-1.0944,-1.137,-1.1948,-1.2114,-1.239,-1.2934,-1.3265,-1.3684,-1.4522,-1.4588,-1.4604,-1.4706,-1.4831,-1.5079,-1.5401,-1.554,-1.5979,-1.6813,-1.6916,-1.6987,-1.6936,-1.7091,-1.7191,-1.7093,-1.7212,-1.7344,-1.7471,-1.745,-1.7392,-1.7392,-1.7221,-1.7139,-1.7057,-1.6892,-1.6841,-1.6841,-1.6841,-1.6841,-1.6833,-1.6762,-1.8158,-2.0304,-2.0304,-2.1385,-2.2852,-0.8234,-0.8066,-0.7954,-0.8011,-0.7899,-0.7812,-0.7885,-0.7738,-0.8093,-0.9416,-0.938,-0.9979,-1.1932,-1.2001,-1.1925,-1.205,-1.2614,-1.2572,-1.1639,-1.2178,-1.2131,-1.1162,-1.0962,-1.0207,-0.8699,-0.8623,-0.8246,-0.7484,-0.7484,-0.7573,-0.7675,-0.7573,-0.704,-0.6257,-0.5709,-0.4648,-0.3115,-0.1852,-0.088,-0.0261,0.0089,-0.0353,-0.1214,-0.1945,-0.2968,-0.3947,-0.3159,-0.3642,-0.4495,-0.3544,-0.3209,-0.323,-0.3768,-0.3868,-0.3761,-0.3512,-0.3677,-0.3988,-0.3962,-0.4163,-0.4472,-0.4786,-0.4871,-0.5306,0.0,-0.7144,-0.7695,-0.9405,-1.0073,-1.0402,-1.0622,-1.1572,-1.2205,-1.1758,-1.2501,-1.3086,-1.3037,-1.3431,-1.3901,-1.4332,-1.42,-1.4273,-1.4523,-1.4779,-1.5079,-1.5401,-1.595,-1.644,-1.6835,-1.7121,-1.7043,-1.6548,-1.6683,-1.6725,-1.6653,-1.6734,-1.6998,-1.7449,-1.7416,-1.7392,-1.7392,-1.7392,-1.7302,-1.7074,-1.7155,-1.7223,-1.7223,-1.7223,-1.7223,-1.7183,-1.6857,-1.7844,-1.9413,-1.9413,-2.075,-2.2478,-0.7899,-0.7812,-0.7797,-0.7812,-0.7812,-0.7812,-0.7841,-0.7767,-0.7871,-0.8319,-0.8595,-0.8954,-0.9546,-1.0101,-1.0504,-1.0575,-1.1525,-1.1819,-1.1015,-1.1934,-1.2227,-1.1591,-1.1255,-1.0582,-0.9448,-0.8927,-0.8322,-0.7484,-0.7484,-0.7459,-0.7328,-0.7564,-0.7064,-0.6053,-0.5175,-0.4144,-0.2915,-0.1427,-0.0713,-0.0443,-0.0447,-0.0708,-0.104,-0.1443,-0.2137,-0.3007,-0.3425,-0.3697,0.0,-0.3243,-0.3207,-0.336,-0.3351,-0.3791,-0.427,-0.4141,-0.436,-0.4632,-0.4665,-0.4791,-0.499,-0.5296,-0.5478,-0.5889,-0.7186,-0.785,-0.8801,-1.0792,-1.1171,-1.1332,-1.1713,-1.2104,-1.2294,-1.2074,-1.254,-1.3051,-1.3203,-1.3775,-1.4324,-1.4574,-1.4816,-1.4976,-1.5028,-1.5328,-1.5635,-1.595,-1.6396,-1.6799,-1.6943,-1.6907,-1.6726,-1.64,-1.6618,-1.665,-1.6568,-1.6852,-1.704,-1.7115,-1.6998,-1.6976,-1.6992,-1.721,-1.7403,-1.7512,-1.7586,-1.7564,-1.7564,-1.776,-1.7555,-1.7262,-1.7119,-1.7761,-1.8752,-1.8752,-2.0372,-2.2499,-0.765,-0.765,-0.7679,-0.7679,-0.7709,-0.7768,-0.7797,-0.7783,-0.7724,-0.7562,-0.7883,-0.7996,-0.7718,-0.8582,-0.9267,-0.946,-1.0528,-1.0957,-1.0537,-1.1546,-1.2028,-1.1724,-1.1369,-1.0698,-0.9723,-0.921,-0.8491,-0.7484,-0.7484,-0.7418,-0.7194,-0.7597,-0.7178,-0.6081,-0.5253,-0.4272,-0.3014,-0.1509,-0.0622,-0.0444,-0.0442,-0.0522,-0.0596,-0.0911,-0.134,-0.193,-0.3166,-0.3332,-0.3071,-0.3249,-0.3303,-0.3259,-0.3005,-0.3559,-0.4346,-0.4415,-0.4729,-0.505,-0.5233,-0.5266,-0.5328,-0.567,-0.5879,-0.6305,-0.7349,-0.824,-0.9351,-1.1199,-1.1489,-1.1627,-1.2227,-1.2159,-1.2077,-1.2305,-1.2627,-1.2974,-1.3279,-1.3761,-1.4338,-1.475,-1.5013,-1.5286,-1.5555,-1.5789,-1.6082,-1.6477,-1.6718,-1.6904,-1.7052,-1.6764,-1.653,-1.6367,-1.6455,-1.6428,-1.6438,-1.6775,-1.6867,-1.6852,-1.6775,-1.6786,-1.6897,-1.7247,-1.7494,-1.7683,-1.8001,-1.8105,-1.8079,-1.8313,-1.8274,-1.7922,-1.7989,-1.8506,-1.9111,-1.8736,-2.0235,-2.2283,-0.765,-0.7605,-0.7605,-0.7605,-0.7605,-0.765,-0.7783,-0.7738,-0.7709,-0.7695,-0.7376,-0.7212,-0.7401,-0.7964,-0.8499,-0.8892,-0.9618,-1.0164,-1.0456,-1.1198,-1.1526,-1.1253,-1.1312,-1.074,-0.9259,-0.941,-0.8862,-0.7484,-0.7484,-0.7577,-0.776,-0.776,-0.7531,-0.704,-0.6424,-0.5279,-0.3642,-0.182,-0.0521,0.0434,0.0849,0.0913,0.0567,-0.0077,-0.0571,-0.1041,-0.1871,-0.2318,-0.2637,-0.3596,-0.3357,-0.2741,-0.286,-0.3142,-0.3534,-0.3982,-0.4391,-0.4814,-0.5367,-0.5392,-0.5389,-0.5781,-0.5962,-0.6226,-0.704,-0.8001,-0.8983,-1.0073,-1.0594,-1.1037,-1.1868,-1.1713,-1.1632,-1.2224,-1.2695,-1.2968,-1.3044,-1.3147,-1.3594,-1.4522,-1.4289,-1.4592,-1.5784,-1.5913,-1.617,-1.6791,-1.685,-1.6989,-1.7311,-1.7026,-1.6711,-1.6382,-1.606,-1.6,-1.6102,-1.6102,-1.635,-1.6754,-1.6738,-1.6921,-1.727,-1.7604,-1.7691,-1.7474,-1.8399,-1.8745,-1.8793,-1.9186,-1.932,-1.9335,-1.9519,-2.0175,-2.0762,-1.9683,-2.0362,-2.1797,-0.762,-0.7635,-0.765,-0.762,-0.7605,-0.762,-0.7665,-0.7694,-0.7649,-0.7523,-0.7182,0.0,0.0,0.0,0.0,0.0,-0.8581,-0.8846,-0.8649,-0.9826,-1.0528,-1.0411,-1.0887,-1.0517,-0.9243,-0.9248,-0.8571,-0.7204,-0.7062,-0.7094,-0.7302,-0.7391,-0.7316,-0.7119,-0.6176,-0.5375,-0.4467,-0.2485,-0.1256,-0.0678,-0.0249,-0.0162,-0.0236,-0.0711,-0.1066,-0.1327,0.0,-0.2232,-0.2562,-0.2537,-0.278,-0.3042,-0.2684,-0.311,-0.3815,-0.4138,-0.4599,-0.5148,-0.5615,-0.555,-0.549,-0.5863,-0.6061,-0.6268,-0.6504,-0.7795,-0.9271,-1.0423,-1.0801,-1.1139,-1.1552,-1.1637,-1.171,-1.164,-1.2063,-1.2645,-1.3395,-1.3267,-1.3503,-1.4559,-1.4162,-1.4156,-1.4926,-1.5775,-1.6396,-1.6911,-1.6487,-1.6462,-1.7059,-1.5626,-1.53,-1.6271,-1.5996,-1.6005,-1.6492,-1.6976,-1.7139,-1.7147,-1.7466,-1.7899,-1.8401,-1.8514,-1.8685,-1.8915,-1.9036,-1.9103,-1.9209,-1.9098,-1.9201,-1.9497,-1.9669,-2.0488,-2.1523,-2.1199,-2.1787,-2.2666,-0.762,-0.7635,-0.765,-0.762,-0.7605,0.0,0.0,0.0,0.0,0.0,0.0,0.0,0.0,0.0,0.0,0.0,0.0,-0.7838,-0.7808,-0.8711,-0.9323,-0.9428,-0.9923,-0.9652,-0.8496,-0.8502,-0.8014,-0.6805,-0.6675,-0.6664,-0.6933,-0.7002,-0.7067,-0.71,-0.6298,-0.5586,-0.4788,-0.3247,-0.2223,-0.1515,-0.1072,-0.0885,-0.0917,-0.1062,-0.1212,0.0,-0.1616,-0.1969,-0.2289,-0.2016,-0.2326,-0.2814,-0.2415,-0.3014,-0.3949,-0.41,-0.4768,-0.5526,-0.5722,-0.5738,-0.5765,-0.605,-0.6184,-0.628,-0.6287,-0.7613,-0.9118,-1.0028,-1.0367,-1.0584,-1.1051,-1.0898,-1.0696,-1.0702,-1.1313,-1.2057,-1.2876,-1.2627,-1.2787,-1.4027,-1.3568,-1.3379,-1.4205,-1.5055,-1.5826,-1.643,-1.6074,-1.6048,-1.6721,-1.4924,-1.4698,-1.6191,-1.5918,-1.6193,-1.7161,-1.7573,-1.7804,-1.7788,-1.8143,-1.8564,-1.9026,-1.9166,-1.942,-1.9773,-1.9665,-1.9757,-1.9981,-1.9534,-1.9587,-1.9884,-2.043,-2.1174,-2.2083,-2.2666,-2.3051,-2.3227,-0.7605,-0.7605,-0.7605,0.0,0.0,0.0,0.0,0.0,0.0,0.0,0.0,0.0,0.0,0.0,0.0,0.0,0.0,0.0,-0.7847,-0.7921,0.0,-0.8357,-0.8543,-0.8181,-0.7149,-0.7306,-0.7076,-0.6426,-0.6337,-0.6446,-0.6798,-0.6734,-0.6752,-0.6893,-0.6677,-0.5835,-0.4602,-0.4122,-0.3225,-0.2141,-0.1581,-0.1353,-0.1384,-0.1038,-0.1131,-0.1433,-0.1354,-0.1558,-0.1909,-0.206,-0.2122,-0.2149,-0.2152,-0.2924,-0.3854,-0.3935,-0.4837,-0.581,-0.5676,-0.5955,-0.6272,-0.6301,-0.6338,-0.6338,-0.6338,-0.7553,-0.8751,-0.8878,-0.9114,-0.9494,-1.0442,-0.9441,-0.8812,-0.96,-1.0451,-1.1165,-1.1514,-1.1312,-1.1745,-1.3123,-1.2487,-1.2394,-1.3623,-1.3989,-1.4545,-1.5543,-1.5677,-1.5759,-1.6148,-1.4812,-1.4694,-1.607,-1.5836,-1.6323,-1.7828,-1.7945,-1.8219,-1.8593,-1.8853,-1.9026,-1.9059,-1.9422,-1.9739,-2.0039,-2.0087,-2.0482,-2.0852,-2.054,-2.0313,-2.044,-2.1635,-2.219,-2.2418,-2.3894,-2.407,-2.3546,0.0,0.0,0.0,0.0,0.0,0.0,0.0,0.0,0.0,0.0,0.0,0.0,0.0,0.0,0.0,0.0,0.0,0.0,-0.6379,-0.687,0.0,0.0,0.0,0.0,0.0,0.0,0.0,-0.5826,-0.5623,-0.5672,-0.5936,-0.5906,-0.591,-0.594,-0.6032,-0.5681,-0.5027,-0.4458,-0.3776,-0.3095,-0.2272,-0.1914,-0.1798,-0.1551,-0.1549,-0.175,-0.1713,-0.1746,-0.1838,-0.1993,-0.2251,-0.2601,-0.2783,-0.3059,-0.3491,-0.4363,-0.4904,-0.5308,-0.5944,-0.5994,-0.5966,-0.6203,-0.6338,-0.6338,-0.6338,-0.7374,-0.8368,-0.8338,-0.8859,-0.9244,-0.9166,-0.9148,-0.9262,-0.9664,-1.0277,-1.1082,-1.2074,-1.174,-1.181,-1.2936,-1.2091,-1.1782,-1.2558,-1.2802,-1.3094,-1.3784,-1.3796,-1.4147,-1.5015,-1.3634,-1.3611,-1.5375,-1.5019,-1.5262,-1.6375,-1.7321,-1.8333,-1.9423,-1.9516,-1.9703,-1.9966,-2.0068,-2.018,-2.0317,-2.0036,-2.0312,-2.0866,-2.0301,-1.9719,-1.9341,-2.0563,-2.1645,-2.2598,-2.3184,-2.3826,-2.4186,0.0,0.0,0.0,0.0,0.0,0.0,0.0,0.0,0.0,0.0,0.0,0.0,0.0,0.0,0.0,0.0,0.0,0.0,0.0,-0.6166,-0.6417,0.0,0.0,0.0,0.0,0.0,0.0,0.0,0.0,0.0,-0.5274,-0.5241,-0.5127,-0.5045,-0.5295,-0.5086,-0.4521,-0.4177,0.0,0.0,0.0,-0.2389,-0.2345,-0.2123,-0.2009,-0.1917,-0.1827,-0.1713,-0.1612,-0.194,-0.2308,-0.2788,-0.3481,-0.3845,-0.4061,-0.4524,-0.5031,-0.5543,-0.6126,-0.6145,-0.6086,-0.6397,-0.6386,-0.6283,-0.6226,-0.7041,-0.7818,-0.7712,-0.8116,-0.8431,-0.8208,-0.8229,-0.8426,-0.8921,-0.9417,-1.0185,-1.1455,-1.1324,-1.147,-1.2429,-1.18,-1.1497,-1.2076,-1.2037,-1.2216,-1.2598,-1.289,-1.3513,-1.4288,-1.3094,-1.3097,-1.4756,-1.4569,-1.5207,-1.6813,-1.7768,-1.8767,-1.9984,-1.9984,-2.0095,-2.0292,-2.0292,-2.0414,-2.0491,-2.018,-2.0416,-2.0786,-2.0416,-1.9936,-1.9576,-1.9745,-2.0819,-2.2527,-2.3398,-2.4068,-2.4456,0.0,0.0,0.0,0.0,0.0,0.0,0.0,0.0,0.0,-0.8282,-0.7565,-0.7062,0.0,0.0,0.0,0.0,0.0,0.0,0.0,0.0,-0.5601,-0.5826,0.0,0.0,0.0,0.0,0.0,0.0,0.0,0.0,0.0,0.0,0.0,0.0,0.0,0.0,0.0,0.0,0.0,0.0,-0.2958,-0.2859,-0.285,0.0,0.0,-0.1985,-0.1805,-0.1557,-0.1384,-0.2068,-0.2472,-0.2896,-0.4089,-0.4752,-0.5072,-0.4675,-0.5322,-0.6179,-0.6315,-0.6359,-0.64,-0.669,-0.6513,-0.6266,-0.6095,-0.6695,-0.7213,-0.7042,-0.7184,-0.7391,-0.7466,-0.7109,-0.7119,-0.8038,-0.8527,-0.9205,-1.0473,-1.0768,-1.1106,-1.1826,-1.164,-1.164,-1.1911,-1.1778,-1.1722,-1.1978,-1.2646,-1.3226,-1.3667,-1.2845,-1.2957,-1.4333,-1.4333,-1.5567,-1.8073,-1.8454,-1.9163,-2.0292,-2.0292,-2.0292,-2.0292,-2.0292,-2.0388,-2.0432,-2.0432,-2.0515,-2.0591,-2.0498,-2.0474,-2.0416,-1.934,-2.024,-2.2362,-2.3632,-2.425,-2.451,0.0,0.0,0.0,0.0,0.0,0.0,0.0,0.0,0.0,0.0,-0.9243,-0.8165,0.0,0.0,0.0,0.0,0.0,0.0,0.0,0.0,0.0,-0.556,0.0,0.0,0.0,0.0,0.0,0.0,0.0,0.0,0.0,0.0,0.0,0.0,0.0,0.0,0.0,0.0,0.0,-0.3931,-0.3705,-0.345,-0.3155,0.0,0.0,0.0,-0.1616,-0.139,-0.1496,-0.2742,-0.3129,-0.3249,-0.403,-0.4697,-0.5316,-0.5596,-0.5937,-0.6325,-0.662,-0.6679,-0.669,-0.6795,-0.643,-0.6057,-0.6066,-0.6436,-0.6721,-0.6315,-0.6657,-0.6929,-0.6539,-0.6669,-0.7233,-0.8453,-0.8851,-0.9468,-1.1126,-1.16,-1.1896,-1.1926,-1.2252,-1.234,-1.1987,-1.1934,-1.201,-1.221,-1.2327,-1.2494,-1.2586,-1.2851,-1.332,-1.3933,-1.3946,-1.5101,-1.7394,-1.7546,-1.8511,-2.0292,-2.0292,-2.0292,-2.0292,-2.0292,-2.0326,-2.0303,-2.0303,-2.0337,-2.0305,-1.9937,-2.0037,-2.0263,-1.9654,-2.0843,-2.284,-2.2101,-2.29,-2.4469,0.0,0.0,0.0,0.0,0.0,0.0,0.0,-1.0963,-1.0938,-1.1499,-1.0647,-0.9692,-0.8821,-0.7906,-0.7252,0.0,0.0,0.0,0.0,0.0,0.0,0.0,0.0,0.0,0.0,0.0,0.0,0.0,0.0,0.0,0.0,-0.3791,-0.3712,-0.3591,-0.3731,-0.3712,0.0,0.0,-0.3573,-0.3567,-0.3348,-0.3181,0.0,0.0,0.0,0.0,0.0,-0.1362,-0.1472,-0.2705,-0.3267,-0.3582,-0.4437,-0.5173,-0.5816,-0.5725,-0.611,-0.662,-0.6857,-0.6958,-0.6958,-0.6958,-0.656,-0.6103,-0.6075,-0.6039,-0.5965,-0.5687,-0.5814,-0.5958,-0.595,-0.6143,-0.6707,-0.7985,-0.8315,-0.8969,-1.0534,-1.1209,-1.1649,-1.214,-1.2261,-1.2318,-1.2545,-1.2192,-1.2099,-1.2464,-1.2551,-1.261,-1.2921,-1.347,-1.3744,-1.39,-1.4039,-1.4911,-1.6539,-1.7008,-1.8041,-1.9538,-2.0011,-2.0292,-2.0292,-2.0292,-2.0292,-2.0292,-2.0292,-2.0201,-2.0011,-1.9704,-1.9812,-2.0144,-2.0767,-2.1752,-2.2811,-2.3388,-2.4039,-2.4664,0.0,0.0,0.0,0.0,0.0,0.0,0.0,-1.19,-1.1963,-1.2152,-1.1862,-1.1148,-0.9931,-0.8839,-0.792,0.0,0.0,0.0,0.0,0.0,0.0,0.0,0.0,0.0,0.0,0.0,0.0,0.0,0.0,0.0,0.0,0.0,0.0,0.0,-0.3444,-0.3403,-0.3187,-0.3089,-0.3068,0.0,0.0,-0.2816,0.0,0.0,0.0,0.0,0.0,-0.1515,-0.1629,-0.254,-0.3184,-0.3709,-0.4543,-0.546,-0.6139,-0.5758,-0.6183,-0.6905,-0.7085,-0.719,-0.719,-0.7114,-0.671,-0.6248,-0.5968,-0.5686,-0.5427,-0.5173,-0.5055,-0.5104,-0.5394,-0.5655,-0.6165,-0.734,-0.7629,-0.8305,-0.9933,-1.06,-1.1243,-1.2204,-1.2182,-1.2332,-1.2942,-1.2469,-1.2248,-1.2681,-1.2893,-1.3231,-1.3535,-1.4018,-1.4216,-1.4084,-1.4135,-1.4797,-1.6075,-1.6858,-1.788,-1.9163,-1.9911,-2.0292,-2.0292,-2.0292,-2.0292,-2.0292,-2.0292,-2.0102,-1.982,-1.9621,-1.9621,-1.9828,-2.122,-2.1993,-2.2539,-2.4068,-2.4694,-2.4966,0.0,0.0,0.0,0.0,0.0,0.0,0.0,-1.2372,-1.2743,-1.3349,-1.2793,-1.2234,-1.2115,-1.0516,-0.9115,0.0,0.0,0.0,0.0,0.0,0.0,0.0,0.0,0.0,0.0,0.0,0.0,-0.3815,-0.3786,0.0,0.0,0.0,0.0,0.0,0.0,-0.3232,-0.3208,-0.3187,0.0,0.0,0.0,0.0,0.0,0.0,0.0,0.0,0.0,-0.2022,-0.2094,-0.2559,-0.2939,-0.3319,-0.3708,-0.489,-0.6117,-0.6084,-0.6502,-0.7057,-0.7301,-0.7346,-0.7346,-0.7111,-0.6868,-0.6444,-0.5755,-0.5655,-0.5464,-0.4821,-0.4829,-0.4947,-0.4743,-0.5236,-0.6021,-0.6935,-0.7115,-0.7976,-1.0124,-1.057,-1.1022,-1.2176,-1.2661,-1.2837,-1.2766,-1.2631,-1.2588,-1.2687,-1.3598,-1.4077,-1.3845,-1.413,-1.4403,-1.4644,-1.4151,-1.4978,-1.7102,-1.7004,-1.8016,-2.0192,-2.0292,-2.0292,-2.0292,-2.0292,-2.0292,-2.0292,-2.0292,-2.0102,-1.982,-1.9662,-1.9471,-1.9338,-1.9703,-2.0792,-2.1906,-2.1116,-2.2736,-2.5493,0.0,0.0,0.0,0.0,0.0,0.0,-1.21,-1.2626,-1.3065,-1.317,-1.2883,-1.2635,-1.2409,-1.138,-1.0257,-0.9209,0.0,0.0,0.0,0.0,0.0,0.0,0.0,0.0,0.0,0.0,-0.4273,-0.4035,-0.3875,0.0,0.0,0.0,0.0,0.0,0.0,-0.3208,-0.3187,0.0,0.0,0.0,0.0,0.0,0.0,0.0,0.0,0.0,0.0,0.0,-0.2502,-0.2882,-0.3374,-0.3858,-0.4146,-0.4922,-0.5739,-0.5607,-0.6164,-0.6893,-0.7084,-0.7118,-0.7118,-0.7125,-0.6565,-0.5948,-0.5789,-0.5362,-0.4914,-0.4661,-0.4571,-0.4584,-0.4603,-0.4964,-0.5522,-0.6285,-0.6769,-0.7578,-0.8891,-0.9702,-1.0522,-1.176,-1.206,-1.2447,-1.3062,-1.2737,-1.2731,-1.3157,-1.3748,-1.4223,-1.4577,-1.4686,-1.4701,-1.4634,-1.4888,-1.5424,-1.6366,-1.7445,-1.847,-1.9446,-2.0011,-2.0292,-2.0292,-2.0292,-2.0292,-2.0292,-2.0292,-2.0019,-1.9662,-1.9471,-1.9371,-1.9279,-1.9945,-2.1006,-2.2059,-2.2593,-2.3693,-2.4975,0.0,0.0,0.0,0.0,0.0,-1.2226,-1.2007,-1.2737,-1.3182,-1.2896,-1.2896,-1.283,-1.256,-1.1801,-1.0941,-1.0088,-0.8539,0.0,0.0,0.0,0.0,0.0,0.0,0.0,0.0,0.0,-0.4751,-0.4606,-0.4422,-0.4267,0.0,0.0,-0.3752,-0.3632,0.0,0.0,0.0,0.0,0.0,0.0,0.0,0.0,0.0,0.0,0.0,0.0,0.0,0.0,0.0,0.0,0.0,-0.3825,-0.4139,-0.463,-0.5137,-0.5347,-0.6004,-0.6717,-0.6834,-0.698,-0.7096,-0.7103,-0.6545,-0.5884,-0.5834,-0.5216,-0.4619,-0.444,-0.435,-0.4312,-0.4382,-0.4711,-0.5213,-0.5814,-0.646,-0.7203,-0.8002,-0.8952,-1.0025,-1.1124,-1.1395,-1.1954,-1.3079,-1.2977,-1.3049,-1.3711,-1.4019,-1.4447,-1.5107,-1.4937,-1.4838,-1.4743,-1.5291,-1.5734,-1.6099,-1.7873,-1.8875,-1.9255,-1.992,-2.0292,-2.0292,-2.0292,-2.0292,-2.0292,-2.0292,-2.0127,-1.9779,-1.9463,-1.9512,-1.9895,-2.0694,-2.1753,-2.2872,-2.4058,-2.4642,-2.4747,0.0,0.0,0.0,0.0,0.0,0.0,-1.1919,-1.2705,-1.3182,-1.2838,-1.2873,-1.2896,-1.2896,-1.1765,-1.0989,-1.0989,-0.9392,0.0,0.0,0.0,0.0,0.0,0.0,0.0,0.0,0.0,-0.5583,-0.5583,-0.5583,-0.5583,-0.5583,-0.5372,-0.5076,-0.4641,0.0,0.0,0.0,0.0,0.0,0.0,0.0,0.0,0.0,0.0,0.0,0.0,0.0,0.0,0.0,0.0,0.0,0.0,0.0,-0.3721,-0.4337,-0.545,-0.6204,-0.6621,-0.6672,-0.7074,-0.7407,-0.7019,-0.6797,-0.6476,-0.5793,-0.5327,-0.4877,-0.4088,-0.4117,-0.4209,-0.3952,-0.4519,-0.5159,-0.5604,-0.6089,-0.6781,-0.7957,-0.8708,-0.9485,-1.0429,-1.0787,-1.1446,-1.2631,-1.3212,-1.3683,-1.4224,-1.4571,-1.4823,-1.5114,-1.4754,-1.4721,-1.5008,-1.5181,-1.588,-1.7183,-1.801,-1.9003,-2.0292,-2.0292,-2.0292,-2.0292,-2.0292,-2.0292,-2.0292,-2.0292,-2.0326,-2.0269,-1.9563,-2.0121,-2.1353,-2.159,-2.2815,-2.447,-2.4523,-2.4861,-2.5202,0.0,0.0,0.0,0.0,0.0,0.0,0.0,-1.2186,-1.2675,-1.2289,-1.2572,-1.2738,-1.2451,-1.1202,-1.0315,-1.0147,-0.8842,0.0,0.0,0.0,0.0,0.0,0.0,0.0,0.0,0.0,-0.5745,-0.6019,-0.5876,-0.5918,-0.6137,-0.5556,-0.5219,-0.5094,-0.4499,-0.3917,0.0,0.0,0.0,0.0,0.0,0.0,0.0,0.0,0.0,0.0,0.0,0.0,0.0,0.0,0.0,0.0,0.0,0.0,0.0,-0.4868,-0.5413,-0.5914,-0.6096,-0.6195,-0.6269,-0.6396,-0.5918,-0.5449,-0.5286,-0.4885,-0.4487,-0.4215,-0.4226,-0.429,-0.4182,-0.4627,-0.5159,-0.5647,-0.6083,-0.6661,-0.745,-0.8431,-0.9479,-1.0422,-1.1843,-1.2825,-1.3161,-1.3328,-1.3683,-1.4235,-1.4229,-1.4453,-1.5031,-1.4498,-1.4103,-1.4161,-1.5588,-1.6492,-1.6951,-1.8766,-1.9892,-2.0292,-2.0292,-2.0292,-2.0292,-2.0292,-2.0292,-2.0292,-2.0335,-2.0286,-2.0237,-1.9712,-2.002,-2.1063,-2.2372,-2.3185,-2.3595,-2.427,-2.4666,-2.4757,0.0,0.0,0.0,0.0,0.0,0.0,0.0,-1.1737,-1.2077,-1.1709,-1.1798,-1.1749,-1.1528,-1.0184,-0.9281,-0.9114,-0.8235,0.0,0.0,0.0,0.0,0.0,0.0,0.0,-0.6278,-0.6337,-0.6551,-0.6841,-0.671,-0.6725,-0.6852,-0.6474,-0.6059,-0.5659,-0.5283,-0.4587,0.0,0.0,0.0,0.0,0.0,0.0,-0.2794,0.0,0.0,0.0,0.0,0.0,0.0,0.0,0.0,0.0,0.0,0.0,0.0,0.0,-0.4796,-0.5214,-0.5499,-0.5681,-0.5797,-0.5966,-0.549,-0.4975,-0.5101,-0.4701,-0.4285,-0.4166,-0.422,-0.4312,-0.4312,-0.4676,-0.5191,-0.5717,-0.6137,-0.6722,-0.7599,-0.8514,-0.955,-1.0768,-1.2333,-1.328,-1.318,-1.3499,-1.3932,-1.4285,-1.4284,-1.437,-1.4823,-1.4316,-1.3907,-1.3711,-1.5722,-1.6861,-1.6981,-1.9159,-2.0292,-2.0292,-2.0292,-2.0292,-2.0292,-2.0292,-2.0292,-2.0292,-2.0326,-2.0053,0.0,-1.9604,-1.9904,-2.042,-2.2126,-2.3313,-2.4009,-2.4378,-2.4569,-2.4594,0.0,0.0,0.0,0.0,0.0,0.0,0.0,-1.1309,-1.141,-1.1069,-1.0618,-1.0293,-1.0257,-0.8927,-0.803,-0.8041,0.0,0.0,0.0,0.0,0.0,0.0,0.0,0.0,-0.7411,-0.7661,-0.7822,-0.7944,-0.797,-0.7923,-0.7751,-0.7887,-0.7412,-0.6431,-0.6098,-0.5335,0.0,0.0,0.0,0.0,-0.2794,-0.2794,0.0,0.0,0.0,0.0,0.0,0.0,0.0,0.0,0.0,0.0,0.0,0.0,0.0,0.0,0.0,0.0,0.0,-0.5417,-0.581,-0.5592,-0.5289,-0.5071,-0.5056,-0.4654,0.0,-0.3968,-0.4144,-0.4307,-0.4307,-0.4714,-0.5273,-0.5911,-0.6245,-0.6899,-0.8213,-0.8919,-0.987,-1.1434,-1.2563,-1.3021,-1.2791,-1.3744,-1.4291,-1.4334,-1.4545,-1.4582,-1.4328,-1.4297,-1.4087,-1.3665,-1.5686,-1.6884,-1.7191,-1.9274,-2.0292,-2.0292,-2.0292,-2.0292,-2.0292,-2.0292,-2.0292,-2.0292,-2.0292,-1.977,-1.8951,-1.9446,-1.9553,-1.9703,-2.0997,-2.3114,-2.524,-2.4728,-2.4743,-2.4815,0.0,0.0,0.0,0.0,0.0,0.0,0.0,0.0,0.0,0.0,-1.0389,-1.0149,-0.9725,-0.8373,-0.747,0.0,0.0,0.0,0.0,0.0,0.0,0.0,0.0,0.0,-0.763,-0.8296,-0.856,-0.8444,-0.8757,-0.8989,-0.921,-0.8635,-0.8209,-0.7904,-0.7508,-0.6507,0.0,0.0,0.0,0.0,-0.2794,-0.2794,0.0,0.0,0.0,0.0,-0.3036,-0.3232,0.0,0.0,0.0,0.0,0.0,0.0,0.0,0.0,-0.4323,-0.4382,-0.4463,0.0,-0.5168,-0.4879,-0.476,-0.4666,0.0,-0.4376,-0.4296,-0.4209,-0.4394,-0.4528,-0.4528,-0.5066,-0.562,-0.5965,-0.6379,-0.7094,-0.8423,-1.0149,-1.1692,-1.2847,-1.3399,-1.3746,-1.3882,-1.409,-1.4274,-1.4309,-1.4358,-1.437,-1.4303,-1.4108,-1.4253,-1.4948,-1.6204,-1.6928,-1.7002,-1.9175,-2.0292,-2.0292,-2.0292,-2.0292,-2.0292,-2.0292,-2.0292,-2.0292,-2.0335,-2.0178,-1.9904,-1.9712,-1.9348,-1.8987,-1.9393,-2.1627,-2.4707,-2.4547,-2.4526,-2.442,0.0,0.0,0.0,0.0,0.0,0.0,0.0,0.0,0.0,0.0,0.0,-0.9451,-0.9163,-0.7818,0.0,0.0,0.0,0.0,0.0,0.0,0.0,0.0,0.0,-0.8523,-0.8849,-0.905,-0.9164,-0.9273,-0.9253,-0.9313,-0.9352,-0.9034,-0.8669,-0.8333,-0.7457,-0.6282,0.0,0.0,0.0,-0.2794,-0.2794,0.0,0.0,0.0,0.0,0.0,-0.3139,-0.3413,0.0,-0.3855,-0.4085,-0.4312,0.0,0.0,0.0,0.0,-0.4312,-0.4312,-0.4312,-0.447,-0.4638,-0.4513,-0.4447,-0.4475,-0.4453,-0.4453,-0.4481,-0.4589,-0.4719,-0.4845,-0.5066,-0.5416,-0.5825,-0.6277,-0.6854,-0.783,-0.9268,-1.0861,-1.2167,-1.3056,-1.3442,-1.3845,-1.4149,-1.4236,-1.4298,-1.4298,-1.4298,-1.4298,-1.4298,-1.4165,-1.4337,-1.486,-1.6292,-1.7224,-1.7598,-1.9348,-2.0292,-2.0292,-2.0292,-2.0292,-2.0292,-2.0292,-2.0292,-2.0292,-2.0326,-2.0269,-2.0212,-1.9571,-2.0107,-2.1463,-2.1459,-2.2688,-2.4502,-2.4495,-2.4475,-2.4286,0.0,0.0,0.0,0.0,0.0,0.0,0.0,0.0,0.0,0.0,0.0,0.0,0.0,0.0,0.0,0.0,0.0,0.0,0.0,0.0,0.0,0.0,0.0,-0.8983,-1.007,-0.9842,-0.982,-0.9994,-0.9588,-0.9337,-0.9141,-0.929,-0.8994,-0.8332,-0.688,-0.5691,0.0,0.0,-0.3359,-0.2837,-0.2816,0.0,0.0,0.0,0.0,0.0,0.0,0.0,0.0,-0.3941,-0.4117,-0.4312,-0.4312,0.0,0.0,0.0,0.0,0.0,-0.4312,-0.4388,-0.4441,-0.4367,-0.434,-0.4399,-0.4614,-0.4668,-0.4732,-0.5007,-0.5083,-0.5245,-0.5653,-0.5793,-0.6035,-0.6587,-0.7616,-0.8839,-1.0275,-1.1409,-1.2317,-1.2754,-1.3281,-1.3783,-1.4198,-1.426,-1.4298,-1.4298,-1.4298,-1.4388,-1.4484,-1.4394,-1.4388,-1.4675,-1.6358,-1.7669,-1.8427,-1.9637,-2.0292,-2.0292,-2.0292,-2.0292,-2.0292,-2.0292,-2.0292,-2.0292,-2.0292,-2.0417,-2.0443,-1.9397,-2.1212,-2.4466,-2.4469,-2.4492,-2.4528,-2.4526,-2.4485,-2.4296,0.0,0.0,0.0,0.0,0.0,0.0,0.0,0.0,0.0,0.0,0.0,0.0,0.0,0.0,0.0,0.0,0.0,0.0,0.0,0.0,0.0,0.0,-0.9186,-0.9774,-0.9531,-1.0558,-1.0582,-0.9609,-0.9803,-0.9898,-0.984,-0.9628,-0.9331,-0.8836,-0.7198,-0.6159,-0.5595,-0.4212,-0.3399,-0.3046,-0.288,0.0,0.0,0.0,0.0,0.0,0.0,0.0,0.0,-0.4161,-0.4253,-0.4312,-0.4312,0.0,0.0,0.0,0.0,0.0,-0.4312,-0.4766,-0.5116,-0.4675,-0.456,-0.4619,-0.4893,-0.4947,-0.5012,-0.5206,-0.5421,-0.5653,-0.5916,-0.6299,-0.6561,-0.6668,-0.8457,-1.0118,-1.0831,-1.2425,-1.3448,-1.3379,-1.378,-1.4179,-1.4303,-1.4274,-1.4298,-1.4298,-1.4298,-1.4669,-1.5514,-1.4765,-1.4956,-1.6459,-1.7016,-1.7669,-1.8427,-1.9637,-2.0292,-2.0292,-2.0292,-2.0292,-2.0292,-2.0292,-2.0292,-2.0292,-2.0292,-2.0788,-2.1383,-2.0451,-2.1811,-2.4506,-2.4533,-2.4487,-2.4495,-2.4464,-2.4464,-2.4341,0.0,0.0,0.0,0.0,0.0,0.0,0.0,0.0,0.0,0.0,0.0,0.0,0.0,0.0,0.0,0.0,0.0,0.0,0.0,0.0,0.0,-0.7848,-0.9229,-1.003,-1.0209,-1.0493,-1.054,-1.0272,-1.0128,-1.0045,-1.0045,-0.9754,-0.922,-0.8518,-0.7426,-0.6309,-0.5237,-0.4198,-0.3453,-0.2923,0.0,0.0,0.0,0.0,0.0,0.0,0.0,0.0,0.0,0.0,-0.4312,-0.4312,-0.4312,0.0,0.0,0.0,0.0,0.0,-0.4443,-0.4697,-0.5052,-0.548,-0.5595,-0.5728,-0.6075,-0.6151,-0.6146,-0.6274,-0.6357,-0.6439,-0.639,-0.6748,-0.7426,-0.8572,-0.9647,-1.0676,-1.1702,-1.2319,-1.2845,-1.3401,-1.3713,-1.3944,-1.4256,-1.4298,-1.4298,-1.4298,-1.4765,-1.533,-1.5798,-1.5893,-1.6264,-1.7109,-1.7762,-1.8234,-1.8611,-1.9729,-2.0292,-2.0292,-2.0292,-2.0292,-2.0292,-2.0292,-2.0292,-2.0292,-2.0288,-2.0997,-2.2067,-2.2428,-2.3359,-2.4472,-2.4467,-2.4537,-2.454,-2.454,-2.4145,-2.3587,0.0,0.0,0.0,0.0,0.0,0.0,0.0,0.0,0.0,0.0,0.0,0.0,0.0,0.0,0.0,0.0,0.0,0.0,0.0,0.0,-0.6933,-0.7989,-0.9109,-1.0036,-1.0713,-1.032,-1.0327,-1.0732,-1.0314,-1.0104,-1.0089,-0.9768,-0.912,-0.8313,-0.7669,-0.6518,-0.5029,-0.4285,-0.3577,-0.2929,0.0,0.0,0.0,0.0,0.0,0.0,0.0,0.0,0.0,0.0,0.0,0.0,0.0,0.0,0.0,-0.4312,-0.4318,-0.441,-0.4565,-0.4824,-0.525,-0.617,-0.6339,-0.6478,-0.7062,-0.7101,-0.7051,-0.7153,-0.7211,-0.7161,-0.7025,-0.7365,-0.8348,-1.0143,-1.0615,-1.1214,-1.265,-1.2395,-1.2529,-1.3578,-1.3713,-1.3857,-1.4256,-1.4298,-1.4298,-1.4298,-1.5235,-1.5893,-1.617,-1.6828,-1.7296,-1.7669,-1.8326,-1.8703,-1.8788,-1.982,-2.0292,-2.0292,-2.0292,-2.0292,-2.0292,-2.0292,-2.0292,-2.0283,-2.0344,-2.1016,-2.2368,-2.3839,-2.4461,-2.4533,-2.4495,-2.454,-2.454,-2.454,-2.3803,-2.2869,0.0,0.0,0.0,0.0,0.0,0.0,0.0,0.0,0.0,0.0,0.0,0.0,0.0,0.0,0.0,0.0,0.0,0.0,0.0,0.0,-0.6982,-0.8303,-0.9096,-0.9715,-1.0167,-1.0425,-1.041,-1.0151,-1.0097,-1.0104,-1.0089,-0.9768,-0.9285,-0.8623,-0.7982,-0.6976,-0.5739,-0.4722,-0.3923,-0.3318,-0.2945,0.0,0.0,0.0,0.0,0.0,0.0,0.0,0.0,0.0,0.0,0.0,0.0,0.0,-0.4312,-0.4312,-0.4443,-0.4592,-0.4608,-0.5413,-0.6309,-0.6355,-0.6065,-0.605,-0.7235,-0.7148,-0.6931,-0.736,-0.7484,-0.7531,-0.7747,-0.8321,-0.9058,-1.013,-1.0992,-1.1976,-1.3219,-1.3627,-1.3878,-1.4223,-1.427,-1.4256,-1.4292,-1.4298,-1.4298,-1.4298,-1.5235,-1.617,-1.7102,-1.7016,-1.749,-1.8696,-1.8519,-1.8519,-1.8788,-1.982,-2.0292,-2.0292,-2.0292,-2.0292,-2.0292,-2.0292,-2.0292,-2.0292,-2.0283,-2.0819,-2.1864,-2.3751,-2.4528,-2.4532,-2.4519,-2.454,-2.454,-2.454,-2.3803,-2.2951,0.0,0.0,0.0,0.0,0.0,0.0,0.0,0.0,0.0,0.0,0.0,0.0,0.0,0.0,0.0,0.0,0.0,0.0,0.0,0.0,-0.721,-0.8352,-0.8782,-0.935,-1.0004,-1.0319,-1.0453,-1.0404,-1.0404,-1.0404,-1.0389,-0.9863,-0.9177,-0.8374,-0.7965,-0.6889,-0.5371,-0.4838,-0.4099,-0.3284,-0.3252,-0.3282,0.0,0.0,0.0,0.0,0.0,0.0,0.0,0.0,-0.4312,-0.4312,-0.4312,-0.4312,-0.4312,-0.4464,-0.4544,-0.4711,-0.5157,-0.5745,-0.635,-0.692,-0.681,-0.6838,-0.7954,-0.8078,-0.8009,-0.8328,-0.8374,-0.8401,-0.8514,-0.9432,-1.0363,-1.0875,-1.1661,-1.2511,-1.3349,-1.3152,-1.3257,-1.3981,-1.4052,-1.4112,-1.4298,-1.4298,-1.4298,-1.4298,-1.5235,-1.6264,-1.7296,-1.7677,-1.8334,-1.9455,-1.9371,-1.9363,-1.9455,-2.0011,-2.0292,-2.0292,-2.0292,-2.0292,-2.0292,-2.0292,-2.0292,-2.0283,-2.0926,-2.138,-2.1873,-2.3727,-2.4461,-2.4488,-2.4529,-2.454,-2.454,-2.454,-2.4062,-2.3495,0.0,0.0,0.0,0.0,0.0,0.0,0.0,0.0,0.0,0.0,0.0,0.0,0.0,0.0,0.0,0.0,0.0,0.0,-0.7154,-0.688,-0.7253,-0.8345,-0.8554,-0.8998,-0.9777,-1.0075,-1.0316,-1.0433,-1.0433,-1.0433,-1.0419,-0.987,-0.917,-0.8327,-0.807,-0.7085,-0.56,-0.5181,-0.4502,-0.3714,-0.3644,-0.3618,0.0,0.0,0.0,0.0,0.0,0.0,0.0,0.0,-0.4106,-0.4171,-0.4171,-0.422,-0.4329,-0.4544,-0.4668,-0.4861,-0.5507,-0.5927,-0.6389,-0.7182,-0.7327,-0.7461,-0.8323,-0.8408,-0.8504,-0.8854,-0.898,-0.9076,-0.9119,-1.024,-1.1192,-1.1486,-1.2164,-1.2843,-1.348,-1.2884,-1.2745,-1.3755,-1.3854,-1.3874,-1.4239,-1.4239,-1.4276,-1.426,-1.5201,-1.6168,-1.7102,-1.7956,-1.8812,-1.9754,-1.9845,-1.9845,-1.9928,-2.011,-2.0201,-2.0292,-2.0292,-2.0292,-2.0292,-2.0292,-2.0292,-2.0374,-2.1284,-2.1868,-2.223,-2.3861,-2.4506,-2.454,-2.454,-2.454,-2.454,-2.454,-2.4083,-2.3536,0.0,0.0,0.0,0.0,0.0,0.0,0.0,0.0,0.0,0.0,0.0,0.0,0.0,0.0,0.0,0.0,0.0,0.0,-0.7637,-0.6868,-0.6987,-0.8328,-0.8504,-0.8816,-0.9296,-0.9739,-1.0027,-1.0104,-1.0104,-1.0104,-1.0089,-0.976,-0.9277,-0.8685,-0.8334,-0.7674,-0.6735,-0.5858,-0.5223,-0.4764,-0.4154,-0.3906,-0.3898,0.0,0.0,0.0,0.0,0.0,0.0,0.0,-0.3676,-0.3898,-0.3898,-0.409,-0.4329,-0.4544,-0.4786,-0.511,-0.5598,-0.604,-0.6523,-0.6986,-0.728,-0.7634,-0.8181,-0.8107,-0.811,-0.8851,-0.918,-0.9402,-0.9549,-1.0494,-1.136,-1.1939,-1.2343,-1.2869,-1.3673,-1.2968,-1.2768,-1.3761,-1.3689,-1.3701,-1.416,-1.416,-1.4176,-1.4161,-1.5094,-1.6047,-1.6814,-1.7863,-1.8711,-1.9571,-1.9579,-1.9662,-1.992,-1.992,-2.0011,-2.0283,-2.0292,-2.0292,-2.0292,-2.0292,-2.0292,-2.0382,-2.1311,-2.2213,-2.3193,-2.4129,-2.4522,-2.454,-2.454,-2.454,-2.454,-2.4444,-2.3803,-2.2869,0.0,0.0,0.0,0.0,0.0,0.0,0.0,0.0,0.0,0.0,0.0,0.0,0.0,0.0,0.0,0.0,0.0,0.0,-0.6749,-0.6456,-0.6582,-0.7306,-0.7732,-0.8206,-0.8659,-0.9189,-0.9679,-1.0104,-1.0104,-1.0104,-1.0089,-0.9555,-0.9087,-0.8677,-0.8352,-0.7659,-0.6788,-0.6327,-0.5697,-0.4966,-0.4556,-0.4316,-0.4187,0.0,0.0,0.0,0.0,0.0,0.0,0.0,0.0,0.0,-0.3898,-0.409,-0.4361,-0.4774,-0.4947,-0.518,-0.596,-0.6566,-0.7038,-0.729,-0.7749,-0.8127,-0.8248,-0.8528,-0.8892,-0.9718,-0.9951,-0.9984,-1.0057,-1.0835,-1.142,-1.1508,-1.187,-1.2175,-1.2519,-1.2175,-1.207,-1.2606,-1.2671,-1.2962,-1.361,-1.3701,-1.3822,-1.4176,-1.4455,-1.5291,-1.6713,-1.6907,-1.754,-1.8987,-1.9075,-1.9075,-1.9154,-1.9504,-1.9817,-1.9906,-2.0163,-2.0292,-2.0292,-2.0292,-2.0056,-1.9728,-2.1496,-2.2532,-2.3199,-2.4111,-2.447,-2.4519,-2.4535,-2.4502,-2.4413,-2.4008,-2.3563,-2.3154,0.0,0.0,0.0,0.0,0.0,0.0,0.0,0.0,-0.7559,-0.7588,-0.7627,-0.7598,0.0,0.0,0.0,-0.7471,-0.6647,0.0,-0.6538,-0.5762,-0.5689,-0.6639,-0.683,-0.7241,-0.791,-0.8483,-0.897,-0.9343,-0.9724,-0.9907,-0.9899,-0.9402,-0.8999,-0.867,-0.8348,-0.7824,-0.7135,-0.6704,-0.6152,-0.5591,-0.51,-0.4692,-0.4364,0.0,0.0,0.0,0.0,0.0,0.0,0.0,0.0,0.0,-0.3731,-0.3925,-0.4285,-0.4973,-0.5295,-0.5653,-0.6906,-0.7578,-0.8058,-0.8612,-0.8981,-0.9373,-0.9753,-0.9505,-0.9286,-0.9925,-1.0156,-1.0326,-1.0428,-1.1078,-1.1569,-1.1575,-1.1778,-1.1928,-1.1992,-1.1723,-1.1646,-1.1992,-1.2209,-1.2477,-1.3105,-1.3371,-1.3597,-1.3887,-1.4421,-1.5253,-1.6426,-1.6785,-1.7486,-1.8646,-1.874,-1.8835,-1.8835,-1.9141,-1.9434,-1.9521,-1.9744,-1.9847,-1.9677,-1.9974,-2.0163,-2.0305,-2.2036,-2.3144,-2.3735,-2.4271,-2.4534,-2.4498,-2.4158,-2.4137,-2.4219,-2.3514,-2.3063,-2.2747,0.0,0.0,0.0,0.0,0.0,0.0,0.0,-0.744,-0.7519,-0.7559,-0.7559,-0.7432,0.0,0.0,0.0,-0.7089,-0.7329,-0.7291,-0.6757,-0.5024,-0.4648,-0.6111,-0.5892,-0.6164,-0.7081,-0.7748,-0.8099,-0.8158,-0.908,-0.9526,-0.9519,-0.9226,-0.8926,-0.8633,-0.8304,-0.799,-0.7668,-0.6979,-0.6593,-0.6354,-0.5635,-0.5003,-0.451,-0.4293,0.0,0.0,0.0,0.0,0.0,0.0,0.0,0.0,-0.3451,-0.3681,-0.4099,-0.5144,-0.5755,-0.6459,-0.8044,-0.8812,-0.9388,-1.0409,-1.071,-1.1028,-1.1948,-1.0846,-0.9711,-0.9884,-1.0203,-1.0569,-1.0758,-1.1272,-1.1763,-1.1929,-1.1929,-1.1929,-1.1929,-1.1596,-1.1516,-1.1935,-1.1929,-1.2186,-1.2619,-1.313,-1.35,-1.3573,-1.4702,-1.5677,-1.6338,-1.7384,-1.8075,-1.8357,-1.8631,-1.8734,-1.8734,-1.8768,-1.8862,-1.9119,-1.9153,-1.9084,-1.8852,-1.9558,-2.043,-2.1526,-2.2921,-2.3867,-2.4478,-2.4436,-2.4426,-2.4279,-2.3472,-2.3432,-2.3764,-2.3053,-2.2382,-2.1869,0.0,0.0,0.0,0.0,0.0,0.0,-0.7209,-0.7342,-0.744,-0.744,-0.7264,-0.7107,-0.7086,-0.6859,0.0,-0.6781,-0.6342,-0.6054,-0.6032,-0.5291,-0.4926,-0.5112,-0.531,-0.5752,-0.6495,-0.6856,-0.7262,-0.7821,-0.8538,-0.8882,-0.8882,-0.856,-0.837,-0.829,-0.7968,-0.7777,-0.7668,-0.6979,-0.6666,-0.6514,-0.5345,-0.4766,-0.4572,-0.3917,-0.3525,0.0,0.0,0.0,0.0,0.0,0.0,0.0,-0.3451,-0.3681,-0.4068,-0.4862,-0.6062,-0.7232,-0.7899,-0.9248,-1.0492,-1.0654,-1.1075,-1.1462,-1.1849,-1.1945,-1.2098,-1.2717,-1.2272,-1.1939,-1.224,-1.1821,-1.1429,-1.1429,-1.1435,-1.1435,-1.1435,-1.1682,-1.1768,-1.1516,-1.1768,-1.2015,-1.21,-1.2948,-1.373,-1.4375,-1.5154,-1.6111,-1.7087,-1.7268,-1.7524,-1.8034,-1.8116,-1.8198,-1.8198,-1.8488,-1.8633,-1.8716,-1.9025,-1.9179,-1.9101,-1.9377,-2.0527,-2.2208,-2.2734,-2.3466,-2.4242,-2.3939,-2.37,-2.3432,-2.2977,-2.2938,-2.3043,-2.2352,-2.1949,-2.1561,0.0,0.0,0.0,0.0,0.0,0.0,0.0,0.0,-0.6584,-0.6639,-0.6437,-0.6244,-0.616,-0.6113,0.0,0.0,-0.5732,-0.5549,-0.5478,-0.5226,-0.4953,-0.457,-0.4842,-0.5196,-0.5561,-0.5882,-0.6292,-0.679,-0.7287,-0.7924,-0.8677,-0.8355,-0.8202,-0.8187,-0.7858,-0.7631,-0.7408,-0.6913,-0.6615,-0.6418,-0.5568,-0.5134,-0.4925,-0.4298,-0.3909,-0.3635,-0.3323,0.0,0.0,0.0,0.0,0.0,0.0,0.0,-0.3879,-0.4778,-0.5954,-0.7283,-0.8851,-1.01,-1.1093,-1.1873,-1.2587,-1.3212,-1.3148,-1.3641,-1.4276,-1.4601,-1.3748,-1.3021,-1.3178,-1.2869,-1.2613,-1.2613,-1.2283,-1.194,-1.194,-1.1768,-1.1596,-1.1348,-1.1677,-1.1929,-1.1682,-1.2954,-1.3789,-1.4035,-1.5387,-1.6476,-1.7049,-1.7383,-1.7708,-1.7951,-1.804,-1.804,-1.804,-1.8228,-1.8323,-1.8323,-1.8445,-1.8515,-1.8642,-1.983,-2.0839,-2.1712,-2.2758,-2.3433,-2.369,-2.3277,-2.3184,-2.3132,-2.2388,-2.2288,-2.2492,-2.1728,-2.1322,-2.1194,0.0,0.0,0.0,0.0,0.0,0.0,0.0,0.0,0.0,-0.5733,-0.5541,-0.5329,-0.5099,-0.537,-0.5429,0.0,0.0,0.0,-0.5121,-0.5079,-0.4866,-0.4352,-0.4563,-0.4717,-0.4788,-0.505,-0.537,-0.5723,-0.6054,-0.6937,-0.8268,-0.8107,-0.8034,-0.8026,-0.7814,-0.7529,-0.7168,-0.684,-0.6556,-0.6267,-0.5822,-0.5479,-0.5175,-0.477,-0.443,-0.4067,-0.3562,-0.3244,-0.3045,-0.2893,0.0,0.0,0.0,0.0,-0.3722,-0.4734,-0.5851,-0.7242,-0.9573,-1.0733,-1.1619,-1.3192,-1.4187,-1.4721,-1.4516,-1.5072,-1.5666,-1.5726,-1.472,-1.3957,-1.3957,-1.3957,-1.3957,-1.3957,-1.3372,-1.2954,-1.2954,-1.2363,-1.186,-1.1768,-1.2192,-1.2272,-1.1768,-1.3294,-1.4216,-1.3951,-1.5718,-1.6902,-1.7066,-1.7627,-1.804,-1.804,-1.804,-1.804,-1.804,-1.804,-1.804,-1.804,-1.7781,-1.7874,-1.824,-2.0318,-2.1094,-2.0968,-2.2737,-2.3384,-2.314,-2.2827,-2.2796,-2.2894,-2.1847,-2.1726,-2.2022,-2.1268,-2.0984,-2.0906,0.0,0.0,0.0,0.0,0.0,0.0,0.0,0.0,0.0,0.0,-0.5168,-0.4996,-0.5006,-0.4807,-0.4684,-0.4743,-0.4779,-0.4902,-0.5076,0.0,0.0,-0.4499,-0.4565,-0.4639,-0.4724,-0.476,-0.4959,-0.5356,-0.5716,-0.6135,-0.6635,-0.7119,-0.7321,-0.7328,-0.7609,-0.7529,-0.7168,-0.684,-0.6556,-0.6245,-0.5415,-0.5044,-0.4903,-0.4495,-0.4136,-0.3865,-0.4028,-0.3766,-0.3362,-0.3442,-0.3328,0.0,0.0,0.0,-0.3753,-0.4587,-0.6171,-0.7774,-0.8378,-1.015,-1.2233,-1.3579,-1.4011,-1.4172,-1.4414,-1.4981,-1.5397,-1.5681,-1.5311,-1.4887,-1.4887,-1.4378,-1.3957,-1.3957,-1.3873,-1.3795,-1.3795,-1.4055,-1.4139,-1.3711,-1.4055,-1.4139,-1.3711,-1.4636,-1.547,-1.6198,-1.6886,-1.7635,-1.8371,-1.8121,-1.804,-1.804,-1.804,-1.804,-1.804,-1.804,-1.804,-1.804,-1.7781,-1.8193,-1.9109,-1.9948,-2.0627,-2.1211,-2.2848,-2.3276,-2.282,-2.2652,-2.2335,-2.1983,-2.1824,-2.165,-2.1594,-2.1456,-2.1282,-2.1138,0.0,0.0,0.0,0.0,0.0,0.0,0.0,0.0,0.0,0.0,0.0,-0.3908,-0.3923,-0.3675,-0.3509,-0.3522,-0.3738,-0.3969,-0.4179,-0.4357,-0.4316,-0.4008,-0.4018,-0.4064,-0.4141,-0.4287,-0.4552,-0.4979,-0.5305,-0.5654,0.0,-0.6468,-0.6782,-0.692,-0.7066,-0.6987,-0.668,-0.6534,-0.6285,-0.597,-0.5562,-0.5681,-0.6021,-0.509,-0.5011,-0.5285,-0.4574,-0.4116,-0.3817,-0.3571,-0.3418,-0.3301,-0.3243,0.0,0.0,0.0,-0.5337,-0.6855,-0.8742,-1.1001,-1.2994,-1.3565,-1.4253,-1.4692,-1.4289,-1.48,-1.536,-1.5234,-1.5359,-1.556,-1.5809,-1.5553,-1.5304,-1.5304,-1.5054,-1.472,-1.4636,-1.4468,-1.4216,-1.4041,-1.43,-1.4307,-1.3873,-1.4803,-1.5477,-1.5553,-1.6237,-1.6984,-1.7789,-1.7627,-1.7627,-1.7951,-1.804,-1.804,-1.804,-1.8237,-1.8286,-1.8246,-1.8012,-1.8181,-1.8816,-1.9925,-2.0729,-2.1243,-2.2455,-2.2703,-2.2262,-2.2108,-2.1994,-2.1807,-2.1655,-2.1578,-2.1512,-2.1349,-2.1205,-2.1061,0.0,0.0,0.0,0.0,0.0,0.0,0.0,0.0,0.0,0.0,0.0,-0.312,-0.32,0.0,0.0,0.0,-0.292,-0.3148,-0.338,-0.3694,-0.3777,-0.3584,-0.3577,-0.3584,-0.357,-0.3842,-0.4113,-0.4456,-0.4855,-0.5269,-0.567,-0.5992,-0.6244,-0.6434,-0.6637,-0.6527,-0.6263,-0.6297,-0.608,-0.5792,-0.6065,-0.6557,-0.7054,-0.6133,-0.6213,-0.6612,-0.533,-0.4673,-0.4353,-0.4002,-0.373,-0.3507,-0.3315,-0.3436,0.0,0.0,0.0,-0.611,-0.8973,-1.0982,-1.2453,-1.3184,-1.3975,-1.4509,-1.4282,-1.4662,-1.5035,-1.4962,-1.5205,-1.5614,-1.6024,-1.6257,-1.6394,-1.6319,-1.5982,-1.556,-1.5394,-1.4894,-1.4552,-1.4552,-1.4727,-1.4734,-1.43,-1.5061,-1.5484,-1.5235,-1.5824,-1.6409,-1.7049,-1.7131,-1.7383,-1.7797,-1.7959,-1.804,-1.804,-1.84,-1.8515,-1.8362,-1.8406,-1.8516,-1.8941,-2.0198,-2.0968,-2.1461,-2.2122,-2.2132,-2.1807,-2.1807,-2.1807,-2.1807,-2.1655,-2.1578,-2.1578,-2.1436,-2.1282,-2.1128,0.0,0.0,0.0,0.0,0.0,0.0,0.0,0.0,0.0,0.0,0.0,-0.32,-0.3453,-0.3247,-0.3073,-0.3073,-0.2809,-0.2765,-0.31,-0.3366,-0.3519,-0.3506,-0.3506,0.0,-0.3236,-0.3481,-0.3667,-0.3759,-0.4421,-0.4911,-0.5225,-0.5578,-0.5737,-0.578,-0.6405,-0.6485,-0.6106,-0.6263,-0.6087,-0.5805,-0.6963,-0.735,-0.7295,-0.7557,-0.7493,-0.717,-0.6448,-0.5663,-0.4998,-0.5155,-0.4656,-0.3968,-0.3955,-0.3828,-0.3766,0.0,0.0,0.0,-0.8216,-0.8853,-0.9599,-1.2343,-1.2621,-1.268,-1.4401,-1.4457,-1.4223,-1.4816,-1.4955,-1.5043,-1.5277,-1.5932,-1.6319,-1.617,-1.6237,-1.6319,-1.6087,-1.6004,-1.6004,-1.6004,-1.6004,-1.6004,-1.6004,-1.6004,-1.6252,-1.6574,-1.6476,-1.6558,-1.6952,-1.7221,-1.7392,-1.7392,-1.7797,-1.804,-1.804,-1.84,-1.8425,-1.8019,-1.8991,-1.9677,-2.0098,-2.0789,-2.1471,-2.2124,-2.1939,-2.1807,-2.1807,-2.1807,-2.1807,-2.1807,-2.1807,-2.1807,-2.1807,-2.1807,-2.1731,-2.1807,0.0,0.0,0.0,0.0,0.0,0.0,0.0,0.0,0.0,0.0,0.0,0.0,0.0,-0.2968,-0.2779,-0.2779,-0.2663,-0.2581,-0.2533,-0.2776,-0.293,-0.293,-0.293,-0.2895,-0.2822,-0.313,-0.3393,-0.364,-0.4102,-0.4604,-0.5139,-0.5245,-0.5385,-0.5526,-0.5793,-0.5894,-0.5859,-0.5899,-0.5924,-0.6044,-0.6868,-0.7609,-0.8242,-0.7804,-0.8324,-0.9162,-0.8045,0.0,-0.6796,-0.6487,-0.5691,-0.4744,-0.4173,-0.3958,-0.3951,-0.4193,-0.4683,-0.5539,-0.728,-0.8209,-0.9131,-1.0989,-1.2219,-1.3045,-1.3323,-1.4179,-1.4801,-1.4406,-1.4823,-1.5189,-1.5058,-1.5517,-1.5899,-1.5824,-1.6079,-1.6162,-1.5906,-1.6004,-1.6087,-1.6087,-1.5914,-1.5824,-1.5824,-1.5756,-1.5673,-1.5839,-1.5839,-1.5914,-1.6402,-1.6492,-1.6828,-1.7392,-1.7554,-1.7826,-1.8382,-1.8519,-1.8806,-1.9085,-1.9377,-2.0058,-2.0957,-2.0829,-2.1303,-2.2199,-2.2262,-2.2101,-2.1832,-2.1787,-2.1807,-2.1807,-2.1807,-2.1807,-2.1807,-2.1807,-2.1731,-2.1655,0.0,0.0,0.0,0.0,0.0,0.0,0.0,0.0,-0.3267,-0.3479,0.0,0.0,0.0,0.0,-0.2871,-0.2772,-0.2581,-0.239,-0.2211,-0.2291,-0.2337,-0.2337,-0.2337,-0.2337,-0.2337,-0.2639,-0.2997,-0.3427,-0.377,-0.4256,-0.4914,-0.4914,-0.4968,-0.5109,-0.5205,-0.5377,-0.5614,-0.5638,-0.5783,-0.609,-0.7214,-0.8208,-0.8939,-0.8575,-0.9247,-1.0187,-0.8969,-0.839,-0.8176,-0.7822,-0.7188,-0.6279,-0.5222,-0.4482,-0.4022,-0.4077,-0.4364,-0.4912,-0.6193,-0.7134,-0.8099,-0.9709,-1.1092,-1.2189,-1.2723,-1.3682,-1.4392,-1.4187,-1.4655,-1.5043,-1.4823,-1.5117,-1.5449,-1.556,-1.5831,-1.5914,-1.5658,-1.5756,-1.5839,-1.5839,-1.5748,-1.5575,-1.5575,-1.5506,-1.5431,-1.5431,-1.5431,-1.5514,-1.5846,-1.6004,-1.65,-1.7392,-1.7507,-1.7846,-1.8496,-1.8884,-1.9256,-1.9631,-2.009,-2.0703,-2.144,-2.1379,-2.1694,-2.236,-2.2488,-2.2338,-2.2069,-2.1949,-2.1883,-2.1883,-2.1807,-2.1807,-2.1807,-2.1807,-2.1807,-2.1949,0.0,0.0,0.0,0.0,0.0,0.0,0.0,0.0,-0.2827,-0.3412,0.0,0.0,0.0,0.0,0.0,-0.312,-0.256,-0.2211,-0.2197,-0.1952,-0.1792,-0.1792,-0.1792,-0.1792,-0.1792,-0.2055,-0.248,-0.3066,-0.3407,-0.3871,-0.446,-0.4473,-0.448,-0.4501,-0.4689,-0.502,-0.5372,-0.5474,-0.5621,-0.601,-0.8141,-0.9123,-0.9382,-0.9968,-1.02,-1.0134,-0.9174,-0.8871,-0.8858,-0.9143,-0.9065,-0.8517,-0.7021,-0.5383,-0.3958,-0.3765,-0.3979,-0.4405,0.0,0.0,0.0,-0.8531,-0.918,-0.9914,-1.2731,-1.2921,-1.287,-1.415,-1.4428,-1.4443,-1.4465,-1.4721,-1.4947,-1.535,-1.5553,-1.5628,-1.5401,-1.5401,-1.5401,-1.5401,-1.5409,-1.5416,-1.5401,-1.5416,-1.5423,-1.5416,-1.5423,-1.5431,-1.5431,-1.5846,-1.6492,-1.7302,-1.7705,-1.7971,-1.8221,-1.9446,-1.9949,-1.9543,-2.1242,-2.1822,-2.1538,-2.2317,-2.2692,-2.2596,-2.2467,-2.2499,-2.2606,-2.2273,-2.2101,-2.2101,-2.1883,-2.1807,-2.1807,-2.1807,-2.2176,-2.2777,0.0,0.0,0.0,0.0,0.0,-0.3115,-0.3211,-0.316,-0.3167,0.0,0.0,0.0,-0.3555,-0.3531,-0.3393,-0.312,-0.2729,-0.241,-0.2211,-0.1952,-0.1792,-0.1792,-0.1792,-0.1792,-0.1792,-0.1874,-0.2082,-0.2453,-0.2739,-0.3186,-0.379,-0.4029,-0.4245,-0.4429,-0.4482,-0.4689,-0.499,-0.5515,-0.5875,-0.6365,-0.8494,-0.9362,-0.9492,-1.0471,-1.0823,-1.0768,-1.0471,-1.0069,-0.9762,-1.0292,-0.9466,-0.7876,-0.6179,-0.4886,-0.3998,-0.394,-0.389,-0.395,-0.4371,0.0,0.0,0.0,0.0,0.0,-1.0192,-1.1304,-1.2336,-1.2936,-1.3433,-1.3909,-1.4384,-1.4538,-1.4626,-1.4721,-1.4808,-1.4808,-1.4735,-1.4735,-1.4735,-1.4735,-1.494,-1.4984,-1.4757,-1.516,-1.5328,-1.5094,-1.5292,-1.5431,-1.5431,-1.5846,-1.6137,-1.6132,-1.7172,-1.7797,-1.7925,-1.9399,-2.0348,-2.0713,-2.1579,-2.2133,-2.2392,-2.2531,-2.2681,-2.2916,-2.2841,-2.2885,-2.2853,-2.2348,-2.2004,-2.1897,-2.1787,-2.1807,-2.1807,-2.1655,-2.1655,-2.1883,0.0,0.0,-0.2853,-0.3007,-0.3154,-0.326,-0.3309,-0.3309,-0.3302,0.0,0.0,0.0,-0.3303,-0.3366,-0.3393,-0.3321,-0.2906,-0.262,-0.2579,-0.2197,-0.1965,-0.1965,-0.186,-0.1854,-0.1965,-0.1965,-0.217,-0.2581,-0.2729,-0.3054,-0.3513,-0.3707,-0.3874,-0.4041,-0.4168,-0.4382,-0.4668,-0.5322,-0.5847,-0.6436,-0.8539,-0.9451,-0.963,-1.0447,-1.093,-1.1112,-1.0536,-1.0571,-1.0872,-1.122,-1.0074,-0.8207,-0.6974,-0.5652,-0.4482,-0.411,-0.3919,-0.3868,-0.4095,-0.4467,-0.4982,-0.5741,0.0,0.0,-0.9446,-1.0741,-1.1919,-1.2921,-1.3645,-1.4179,-1.4421,-1.4575,-1.4626,-1.4487,-1.4355,-1.4311,-1.445,-1.4699,-1.4772,-1.4501,-1.4787,-1.4881,-1.4509,-1.4845,-1.5012,-1.4765,-1.5043,-1.5284,-1.5423,-1.568,-1.5831,-1.5797,-1.6926,-1.7736,-1.808,-1.9578,-2.0675,-2.1436,-2.1906,-2.2418,-2.2852,-2.2767,-2.2841,-2.3001,-2.2927,-2.2863,-2.2821,-2.2262,-2.2014,-2.1993,-2.1873,-2.1807,-2.1807,-2.1578,-2.1655,-2.1883,0.0,0.0,-0.2601,-0.3117,-0.3208,-0.3229,-0.3278,-0.3278,-0.3306,0.0,-0.317,-0.3101,-0.3173,-0.3228,-0.3332,-0.3525,-0.301,-0.2781,-0.3,-0.2523,-0.2211,-0.2152,-0.1937,-0.1947,-0.2197,-0.2204,-0.2472,-0.3046,-0.308,-0.3226,-0.3459,-0.3493,-0.3506,-0.3519,-0.3808,-0.4126,-0.4436,-0.4963,-0.5584,-0.6402,-0.8466,-0.9479,-0.9761,-1.0378,-1.0937,-1.1191,-0.9956,-1.0447,-1.1591,-1.1603,-1.0664,-0.9289,-0.8571,-0.7101,-0.5497,-0.4449,-0.4178,-0.4182,-0.4107,-0.4151,-0.4403,-0.5231,-0.5784,0.0,-0.938,-1.0311,-1.1172,-1.3016,-1.3879,-1.4245,-1.407,-1.4267,-1.437,-1.4084,-1.3945,-1.3989,-1.4311,-1.4853,-1.4999,-1.4428,-1.4648,-1.4792,-1.4387,-1.4489,-1.4576,-1.4459,-1.4736,-1.5042,-1.5325,-1.5423,-1.565,-1.6026,-1.6925,-1.7821,-1.8525,-1.9878,-2.0963,-2.1748,-2.2213,-2.2628,-2.3001,-2.3001,-2.3001,-2.3012,-2.2777,-2.2617,-2.2531,-2.2252,-2.2111,-2.2122,-2.1883,-2.1807,-2.1731,-2.1502,-2.1807,-2.2176,-0.2399,-0.2593,-0.2831,-0.3153,-0.3208,-0.3208,-0.3208,-0.3229,-0.3309,-0.3517,-0.3453,-0.333,-0.3135,-0.3043,-0.3012,-0.3104,-0.2807,-0.2574,-0.2455,-0.2439,-0.2246,-0.1815,-0.195,-0.2093,-0.2198,-0.2198,-0.237,-0.2706,-0.2961,-0.3126,-0.3186,-0.34,-0.3506,-0.3506,-0.3566,-0.3908,-0.4409,-0.4529,-0.5221,-0.6478,-0.8929,-0.984,-0.9866,-1.1365,-1.1539,-1.0839,-1.0037,-0.9808,-0.9904,-0.9965,-1.0424,-1.0648,-0.8651,-0.8063,-0.7715,-0.5665,-0.519,-0.5164,-0.4272,-0.408,-0.4162,-0.4343,-0.5054,0.0,-0.6514,-0.7288,-0.8252,-0.9475,-1.0031,-1.0514,-1.1216,-1.1392,-1.1421,-1.1355,-1.2253,-1.3093,-1.3417,-1.3717,-1.3672,-1.3245,-1.3639,-1.3824,-1.3536,-1.4036,-1.4339,-1.4363,-1.4557,-1.4761,-1.4817,-1.5733,-1.6024,-1.574,-1.7438,-1.8612,-1.8985,-2.0187,-2.1228,-2.2008,-2.2445,-2.2703,-2.2777,-2.2927,-2.3023,-2.2992,-2.2799,-2.2574,-2.2391,-2.2197,-2.2004,-2.1886,-2.1787,-2.1731,-2.1502,-2.1359,-2.1205,-2.1078,-0.2333,-0.2509,-0.2728,-0.3135,-0.3208,-0.3208,-0.3208,-0.3317,-0.3382,-0.3358,-0.3276,-0.3149,-0.2984,-0.2917,-0.2901,-0.2906,-0.277,-0.2679,-0.2609,-0.2447,-0.2256,-0.2058,-0.1885,-0.1922,-0.2186,-0.2236,-0.2442,-0.2838,-0.3117,-0.3267,-0.3293,-0.344,-0.3506,-0.3506,-0.3506,-0.3831,-0.4416,-0.4528,-0.5567,-0.7197,-0.8521,-0.9083,-0.9249,-1.0149,-1.0386,-1.0227,-0.9129,-0.9207,-0.9823,-1.0176,-1.0432,-1.0428,-0.9693,-0.9058,-0.827,-0.6627,-0.6152,-0.5865,-0.4542,-0.4124,-0.409,-0.4216,-0.456,0.0,0.0,-0.6614,-0.7428,-0.8645,-0.9264,-0.9737,-1.0258,-1.0477,-1.0587,-1.0587,-1.1617,-1.2319,-1.1847,-1.3135,-1.3881,-1.318,-1.3537,-1.3635,-1.3173,-1.3767,-1.4352,-1.467,-1.5143,-1.5294,-1.472,-1.6139,-1.6708,-1.6121,-1.7743,-1.8946,-1.9668,-2.0517,-2.1088,-2.1471,-2.2101,-2.2241,-2.1918,-2.2467,-2.2724,-2.2671,-2.2488,-2.2348,-2.2218,-2.2035,-2.1863,-2.1614,-2.1645,-2.1578,-2.1425,-2.1138,-2.0834,-2.052,-0.2263,-0.2381,-0.2547,-0.3111,-0.3208,-0.3208,-0.3208,-0.3433,-0.3505,-0.3237,-0.3097,-0.2997,-0.2933,-0.2979,-0.3045,-0.3018,-0.3054,-0.3042,-0.2932,-0.267,-0.2426,-0.2263,-0.1871,-0.1834,-0.2183,-0.2243,-0.2523,-0.3025,-0.3168,-0.3315,-0.3415,-0.3425,-0.3453,-0.3519,-0.3798,-0.409,-0.4442,-0.4987,-0.6156,-0.7685,-0.7901,-0.8499,-0.9306,-0.9285,-0.9723,-1.0089,-0.8462,-0.8692,-0.9949,-1.0478,-1.0264,-0.9905,-1.0458,-0.9913,-0.8725,-0.7377,-0.6979,-0.662,-0.5017,-0.4355,-0.4193,-0.4289,-0.4232,-0.4491,0.0,0.0,0.0,-0.8026,-0.8692,-0.909,-0.9125,-0.9438,-0.9658,-0.9658,-1.0624,-1.1012,-0.9994,-1.2088,-1.3515,-1.2833,-1.3347,-1.3546,-1.291,-1.3539,-1.4236,-1.4794,-1.5462,-1.556,-1.5015,-1.6514,-1.7276,-1.6935,-1.8158,-1.9195,-2.0129,-2.0547,-2.0779,-2.0857,-2.1634,-2.1711,-2.1298,-2.208,-2.2402,-2.2327,-2.2176,-2.2101,-2.2035,-2.1807,-2.1655,-2.1502,-2.1502,-2.1425,-2.1359,-2.0984,-2.0609,-2.0118,-0.2178,-0.2319,-0.249,-0.309,-0.3208,-0.3208,-0.3208,-0.3433,-0.3595,-0.3548,-0.3529,-0.3486,-0.334,-0.344,-0.3604,-0.3742,-0.4047,-0.3848,-0.3039,-0.3391,-0.3072,-0.1829,-0.2051,-0.2209,-0.2193,-0.2201,-0.2387,-0.274,-0.2716,-0.2846,-0.3153,-0.3142,-0.328,-0.3559,-0.4854,-0.507,-0.4509,-0.6099,-0.6771,-0.6926,-0.7667,-0.9574,-1.1844,-1.1719,-1.1702,-1.1467,-0.9129,-0.8471,-0.866,-0.8954,-0.9616,-1.0207,-0.9577,-1.025,-1.0686,-0.7848,-0.7609,-0.7814,-0.5757,-0.4963,-0.4595,-0.4166,-0.4213,-0.4381,-0.4373,0.0,-0.4872,-0.514,0.0,-0.5688,-0.5737,0.0,0.0,-0.6246,-0.7439,-0.8353,-0.8211,-0.9466,-1.054,-1.0781,-1.2212,-1.2934,-1.258,-1.2893,-1.3488,-1.4314,-1.4111,-1.4576,-1.5872,-1.7021,-1.7725,-1.7827,-1.8904,-1.9636,-1.9932,-2.002,-2.0411,-2.1128,-2.1436,-2.1731,-2.2025,-2.2252,-2.2338,-2.2208,-2.2111,-2.2035,-2.1807,-2.1655,-2.1512,-2.1502,-2.1502,-2.1282,-2.0984,-2.0906,-2.0466,-1.9928,-0.18,-0.193,-0.2076,-0.2484,-0.2657,-0.2729,-0.2729,-0.2963,-0.3255,-0.3549,-0.3593,-0.3613,-0.3636,-0.3744,-0.386,-0.3969,-0.3912,-0.3741,-0.3372,-0.3203,-0.286,-0.2318,-0.21,-0.2034,-0.2087,-0.2054,-0.2153,-0.2415,-0.2537,-0.275,-0.3041,-0.3087,-0.3216,-0.3486,-0.4662,-0.4882,-0.4459,-0.6037,-0.7047,-0.7665,-0.8342,-0.9712,-1.1323,-1.0268,-0.9916,-0.9889,-0.943,-0.9443,-0.9757,-1.0205,-1.0244,-1.0406,-1.1276,-1.1093,-1.0305,-0.9282,-0.8811,-0.8303,-0.654,-0.6199,-0.6099,-0.5033,-0.495,-0.495,-0.4223,-0.3968,-0.4005,-0.428,0.0,0.0,0.0,0.0,0.0,0.0,-0.6513,-0.7152,-0.6759,-0.8087,-0.9371,-1.0093,-1.0836,-1.165,-1.2577,-1.3094,-1.3608,-1.4263,-1.4953,-1.5273,-1.5038,-1.708,-1.8297,-1.8371,-1.9565,-2.0411,-2.1031,-2.1031,-2.0954,-2.0789,-2.1272,-2.1339,-2.1021,-2.1558,-2.1797,-2.1818,-2.1883,-2.1807,-2.1655,-2.1502,-2.1359,-2.1128,-2.1128,-2.1061,-2.0906,-2.0741,-2.0223,-1.9595,-0.1327,-0.1545,-0.1788,-0.2056,-0.2261,-0.2413,-0.2526,-0.2692,-0.3032,-0.3544,-0.3662,-0.3707,-0.3897,-0.4124,-0.4297,-0.4379,-0.4239,-0.4102,-0.3907,-0.3442,-0.3072,-0.2879,-0.2327,-0.2079,-0.2191,-0.2019,-0.1968,-0.2038,-0.227,-0.2486,-0.2673,-0.2805,-0.2984,-0.3286,-0.4513,-0.4834,-0.4563,-0.6181,-0.7298,-0.7958,-0.8436,-0.9155,-0.9764,-0.8752,-0.8137,-0.804,-0.8708,-0.9299,-0.979,-1.0262,-1.0152,-1.0058,-1.1713,-1.1242,-1.0094,-1.0246,-0.9836,-0.901,-0.7502,-0.7328,-0.7241,-0.5765,-0.5498,-0.5331,-0.4348,-0.3861,-0.373,-0.4025,-0.4027,0.0,0.0,0.0,-0.4538,0.0,0.0,-0.6015,-0.545,-0.661,0.0,0.0,0.0,-1.027,-1.186,-1.2337,-1.2963,-1.3954,-1.4975,-1.5454,-1.5056,-1.7234,-1.8586,-1.8601,-1.9705,-2.0557,-2.1262,-2.1262,-2.1108,-2.0702,-2.1195,-2.1118,-2.0557,-2.1175,-2.1415,-2.1502,-2.1578,-2.1589,-2.1609,-2.1359,-2.1205,-2.0916,-2.0829,-2.0819,-2.0809,-2.0517,-1.9922,-1.934,-0.0779,-0.1248,-0.1788,-0.2056,-0.2216,-0.2434,-0.2838,-0.2896,-0.3104,-0.364,-0.3732,-0.3897,-0.415,-0.4569,-0.5006,-0.536,-0.5711,-0.5586,-0.4711,-0.464,-0.4243,-0.3323,-0.2893,-0.2688,-0.2692,-0.2225,-0.1882,-0.1616,-0.1764,-0.1823,-0.184,-0.2107,-0.2444,-0.2899,-0.4809,-0.536,-0.4999,-0.6998,-0.7471,-0.701,-0.7541,-0.767,-0.7575,-0.8047,-0.7528,-0.663,-0.6714,-0.6995,-0.7343,-0.7812,-0.8351,-0.9029,-0.9463,-1.0231,-1.0853,-1.0118,-1.0274,-1.0288,-0.8738,-0.8123,-0.7516,-0.6072,-0.5498,-0.5168,-0.4529,-0.4193,-0.4002,-0.4096,-0.3832,-0.3654,-0.3808,0.0,0.0,0.0,0.0,0.0,0.0,0.0,0.0,0.0,0.0,0.0,0.0,-0.9996,-1.0849,-1.3052,-1.336,-1.4448,-1.6775,-1.7696,-1.8236,-1.8371,-1.9003,-1.9539,-1.9942,-1.9942,-2.0333,-2.1205,-2.1205,-2.1282,-2.1425,-2.1512,-2.1492,-2.1405,-2.1272,-2.1466,-2.1737,-2.1158,-2.0916,-2.1003,-2.0731,-2.0644,-2.0518,-2.0088,-1.9658,-1.9374,-0.0872,-0.1082,-0.1333,-0.1415,-0.1552,-0.1792,-0.2224,-0.2449,-0.2723,-0.3199,-0.3368,-0.3559,-0.3724,-0.3923,-0.4091,-0.4337,-0.4327,-0.4281,-0.4197,-0.3958,-0.3729,-0.3437,-0.306,-0.2844,-0.283,-0.2282,-0.196,-0.1862,-0.1724,-0.173,-0.1874,-0.2005,-0.2202,-0.2532,-0.4071,-0.461,-0.4495,-0.6128,-0.6689,-0.646,-0.6382,-0.6621,-0.7086,-0.821,-0.8116,-0.7534,-0.8188,-0.8495,-0.8656,-0.8867,-0.874,-0.8559,-0.9326,-0.9029,-0.8455,-0.8578,-0.8674,-0.8482,-0.7643,-0.7985,-0.821,-0.6737,-0.6562,-0.6513,-0.5495,-0.4896,-0.4542,-0.4563,-0.4198,-0.3883,-0.3915,0.0,0.0,0.0,0.0,0.0,0.0,0.0,0.0,0.0,0.0,0.0,0.0,0.0,-1.1733,-1.2914,-1.414,-1.5336,-1.6541,-1.7042,-1.7669,-1.8368,-1.8935,-1.9512,-2.0089,-2.0245,-2.0489,-2.0809,-2.0654,-2.0809,-2.1108,-2.0954,-2.1041,-2.1272,-2.1108,-2.1128,-2.1255,-2.0994,-2.0829,-2.0741,-2.0644,-2.0391,-2.0117,-1.9971,-1.9648,-1.9324,-0.093,-0.1008,-0.1101,-0.1101,-0.1226,-0.1483,-0.1936,-0.2208,-0.254,-0.3027,-0.3286,-0.3487,-0.3591,-0.3658,-0.3737,-0.3813,-0.373,-0.3779,-0.4007,-0.3774,-0.3688,-0.3822,-0.3375,-0.3164,-0.3391,-0.2637,-0.2259,-0.2249,-0.1899,-0.1694,-0.1612,-0.183,-0.1985,-0.2145,-0.3282,-0.4004,-0.4392,-0.5381,-0.6039,-0.6277,-0.573,-0.5755,-0.6329,-0.7294,-0.7628,-0.759,-0.7929,-0.8232,-0.8461,-0.8599,-0.8432,-0.8299,-0.8929,-0.8475,-0.7825,-0.823,-0.822,-0.8001,-0.739,-0.7844,-0.8115,-0.6799,-0.6809,-0.6885,-0.5926,-0.5487,-0.5212,-0.5042,-0.4644,-0.4299,-0.422,-0.3977,0.0,0.0,0.0,0.0,0.0,-0.3603,0.0,0.0,0.0,0.0,0.0,0.0,0.0,0.0,-1.397,0.0,-1.567,-1.6669,-1.7405,-1.7752,-1.8497,-1.9142,-1.9792,-2.0178,-2.0411,-2.0566,-2.0498,-2.0489,-2.0644,-2.0566,-2.0644,-2.0964,-2.0789,-2.0799,-2.0819,-2.0819,-2.0556,-2.0312,-2.0332,-2.0068,-1.9697,-1.9697,-1.9472,-1.9173,-0.0977,-0.1024,-0.1121,-0.1121,-0.1278,-0.1531,-0.1943,-0.2176,-0.2539,-0.3203,-0.3512,-0.3666,-0.3651,-0.3769,-0.3825,-0.3756,-0.3851,-0.4024,-0.4188,-0.4022,-0.4035,-0.4437,-0.3764,-0.3639,-0.4244,-0.3215,-0.2709,-0.2703,-0.2232,-0.1699,-0.1119,-0.1567,-0.1754,-0.1712,-0.2515,-0.3518,-0.4648,-0.4846,-0.5452,-0.6179,-0.5532,-0.5216,-0.5183,-0.5473,-0.6197,-0.6923,-0.619,-0.6325,-0.6865,-0.6865,-0.7425,-0.8075,-0.8075,-0.8365,-0.8759,-0.8689,-0.8845,-0.8808,-0.7952,-0.7707,-0.7349,-0.6345,-0.6315,-0.6432,-0.5965,-0.6032,-0.611,-0.5661,-0.5269,-0.4975,-0.4733,-0.4415,-0.4155,0.0,0.0,0.0,0.0,0.0,0.0,0.0,0.0,0.0,0.0,0.0,0.0,0.0,0.0,0.0,0.0,-1.6526,-1.7311,-1.6744,-1.7814,-1.8601,-1.903,-1.9578,-2.0098,-2.0566,-2.0566,-2.0489,-2.0342,-2.0264,-2.042,-2.0644,-2.0391,-2.0372,-2.0566,-2.0575,-2.0158,-1.9684,-1.9788,-1.9629,-1.933,-1.933,-1.9143,-1.8942,-0.1211,-0.1259,-0.1319,-0.1319,-0.137,-0.1531,-0.1943,-0.2183,-0.2496,-0.3101,-0.3173,-0.3243,-0.3348,-0.3291,-0.3157,-0.3021,-0.3177,-0.3209,-0.3157,-0.3238,-0.3307,-0.3409,-0.3341,-0.3399,-0.3508,-0.297,-0.2633,-0.2561,-0.2084,-0.1648,-0.1254,-0.1516,-0.156,-0.1431,-0.2202,-0.2941,-0.3679,-0.42,-0.4852,-0.5583,-0.5058,-0.5386,-0.6147,-0.5691,-0.615,-0.6927,-0.6426,-0.6335,-0.649,-0.649,-0.6533,-0.6541,-0.6541,-0.6572,-0.6504,-0.6219,-0.6451,-0.666,-0.6133,-0.625,-0.6626,-0.6841,-0.7113,-0.7438,-0.7903,-0.7961,-0.7939,-0.7804,-0.7393,-0.6829,-0.6019,-0.5646,-0.5136,0.0,0.0,0.0,0.0,0.0,0.0,0.0,0.0,0.0,0.0,0.0,0.0,0.0,0.0,0.0,0.0,-1.5627,-1.5683,-1.661,-1.7415,-1.7966,-1.8321,-1.9109,-1.9696,-2.0098,-1.9775,-2.0098,-2.0974,-2.0264,-2.0411,-2.1031,-2.0301,-1.9992,-1.9934,-1.9727,-1.9438,-1.9145,-1.9213,-1.9252,-1.9213,-1.9354,-1.9483,-1.9584,-0.1261,-0.1307,-0.1419,-0.1631,-0.1497,-0.1532,-0.2024,-0.2291,-0.2636,-0.3138,-0.3276,-0.3301,-0.3207,-0.3217,-0.3101,-0.2758,-0.282,-0.292,-0.3031,-0.2965,-0.299,-0.3152,-0.3298,-0.3379,-0.3387,-0.3067,-0.283,-0.2735,-0.2186,-0.1766,-0.1445,-0.1614,-0.1603,-0.1462,-0.2044,-0.2682,-0.3366,-0.4214,-0.4738,-0.5022,-0.4924,-0.5272,0.0,-0.5607,-0.5845,-0.6356,-0.6073,-0.6103,-0.6338,-0.6338,-0.6203,-0.6132,-0.6132,-0.5949,-0.5679,-0.546,-0.5622,-0.5708,-0.5319,-0.5513,-0.5868,-0.6294,-0.6687,-0.7095,-0.7521,-0.7891,-0.7996,-0.763,-0.7572,-0.7279,-0.6269,-0.6002,-0.5512,0.0,0.0,0.0,0.0,0.0,0.0,0.0,0.0,0.0,0.0,0.0,0.0,0.0,0.0,0.0,0.0,0.0,-1.5046,-1.5922,-1.6625,-1.7179,-1.7508,-1.8088,-1.8581,-1.901,-1.8865,-1.9096,-1.9707,-1.924,-1.9249,-1.9773,-1.9372,-1.9182,-1.9069,-1.9228,-1.9141,-1.8987,-1.9254,-1.9379,-1.9474,-1.9359,-1.9663,-2.0161,-0.1171,-0.1283,-0.1518,-0.1897,-0.1611,-0.1481,-0.1986,-0.2427,-0.2899,-0.3418,-0.3702,-0.3668,-0.3318,-0.3377,-0.3323,-0.2833,-0.282,-0.2926,-0.3245,-0.2984,-0.2962,-0.3297,-0.3323,-0.3417,-0.3566,-0.3228,-0.3071,-0.2987,-0.243,-0.1984,-0.1621,-0.1744,-0.1727,-0.161,-0.2013,-0.265,-0.348,-0.4489,-0.4791,-0.4758,-0.4965,-0.5029,-0.502,-0.5282,-0.5457,-0.5559,-0.5559,-0.587,-0.6261,-0.6261,-0.6261,-0.6338,-0.6338,-0.609,-0.5751,-0.5751,-0.567,-0.5453,-0.5176,-0.5132,-0.5228,-0.5458,-0.5881,-0.6239,-0.6324,-0.6958,-0.7315,-0.6545,-0.6899,-0.7028,-0.6048,-0.5759,-0.5413,-0.4652,0.0,0.0,0.0,0.0,0.0,0.0,0.0,0.0,0.0,0.0,0.0,0.0,0.0,0.0,0.0,0.0,-1.481,-1.5239,-1.6026,-1.6453,-1.6641,-1.7024,-1.7429,-1.7797,-1.7989,-1.8035,-1.7952,-1.7877,-1.7886,-1.7961,-1.8202,-1.8175,-1.8165,-1.8778,-1.8948,-1.8884,-1.9456,-1.9628,-1.9541,-1.9365,-1.9759,-2.042,-0.0972,-0.1479,-0.1861,-0.1846,-0.1557,-0.1346,-0.1458,-0.2193,-0.3081,-0.3964,-0.3909,-0.3804,-0.3712,-0.3552,-0.3466,-0.3366,-0.3362,-0.3288,-0.3203,-0.303,-0.2904,-0.2822,-0.2854,-0.3006,-0.3277,-0.3163,-0.3077,-0.3019,-0.2625,-0.2202,-0.1768,-0.1792,-0.1727,-0.161,-0.2013,-0.282,-0.3879,-0.4211,-0.4687,-0.5276,-0.5089,-0.5068,-0.515,-0.5266,-0.53,-0.5398,-0.5559,-0.5789,-0.5941,-0.5941,-0.6099,-0.6338,-0.6338,-0.6244,-0.614,-0.5902,-0.5883,-0.5692,-0.5225,-0.5188,-0.536,-0.5752,-0.6396,-0.7021,-0.692,-0.7539,-0.7933,-0.7429,-0.7306,-0.7074,-0.6355,-0.5293,-0.4652,-0.5088,-0.4948,0.0,0.0,0.0,0.0,0.0,0.0,0.0,0.0,0.0,0.0,0.0,0.0,0.0,0.0,0.0,-1.4073,0.0,-1.7045,-1.709,-1.6319,-1.7368,-1.7849,-1.7729,-1.7779,-1.8175,-1.8839,-1.8184,-1.8035,-1.8369,-1.7888,-1.7596,-1.7424,-1.7521,-1.7543,-1.7605,-1.8395,-1.8566,-1.8432,-1.9034,-1.9628,-2.0161,-0.1015,-0.135,-0.1557,-0.1485,-0.1191,-0.0991,-0.0974,-0.1204,-0.1767,-0.2861,-0.3425,-0.363,-0.3557,-0.3564,-0.3637,-0.3637,-0.3637,-0.3591,-0.3644,-0.3574,-0.3344,-0.3092,-0.3098,-0.3141,-0.2999,-0.2953,-0.2943,-0.2918,-0.2516,-0.2231,-0.2018,-0.1937,-0.1865,-0.1828,-0.2479,-0.3266,-0.4113,-0.4376,-0.4778,-0.5252,-0.5201,-0.5165,-0.5044,-0.5222,-0.5243,-0.5168,-0.5249,-0.5401,-0.5631,-0.586,-0.6099,-0.6338,-0.6338,-0.618,-0.6022,-0.5789,-0.5709,-0.5538,-0.5169,-0.5075,-0.5118,-0.5513,-0.5892,-0.6212,-0.6357,-0.6699,-0.6868,-0.6437,-0.668,-0.675,-0.6217,-0.5478,-0.4935,-0.4904,-0.4912,0.0,0.0,0.0,0.0,0.0,0.0,0.0,0.0,0.0,0.0,0.0,0.0,0.0,0.0,0.0,-1.3389,0.0,-1.6515,-1.6633,-1.6273,-1.6711,-1.6941,-1.6968,-1.7142,-1.7324,-1.7548,-1.7126,-1.7117,-1.7315,-1.7124,-1.6962,-1.6944,-1.737,-1.7696,-1.7969,-1.8633,-1.8834,-1.87,-1.9034,-1.9309,-1.9573,-0.0746,-0.099,-0.1066,-0.0957,-0.0606,-0.0362,-0.034,-0.0072,-0.0361,-0.173,-0.2707,-0.3299,-0.323,-0.3529,-0.3675,-0.3742,-0.3742,-0.3848,-0.4075,-0.3937,-0.369,-0.3407,-0.3397,-0.3278,-0.2967,-0.2894,-0.2896,-0.297,-0.2575,-0.2332,-0.2298,-0.2152,-0.2093,-0.2183,-0.2914,-0.3567,-0.4176,-0.4584,-0.4866,-0.5138,-0.5331,-0.5252,-0.4971,-0.5225,-0.5168,-0.5018,-0.5018,-0.5171,-0.5398,-0.5709,-0.6022,-0.618,-0.618,-0.6099,-0.5941,-0.5712,-0.5556,-0.5398,-0.5093,-0.5021,-0.4941,-0.5214,-0.5297,-0.5325,-0.5371,-0.5542,-0.5583,-0.5146,-0.5609,-0.598,-0.5625,-0.5424,-0.5144,-0.4911,-0.4916,-0.5097,0.0,0.0,0.0,0.0,0.0,0.0,0.0,0.0,0.0,0.0,0.0,0.0,0.0,0.0,0.0,0.0,-1.5551,-1.5713,-1.5913,-1.5894,-1.5909,-1.6094,-1.6392,-1.6333,-1.6132,-1.607,-1.6061,-1.6211,-1.6333,-1.6403,-1.6473,-1.7207,-1.7745,-1.824,-1.8767,-1.91,-1.91,-1.9044,-1.911,-1.9309,0.0302,-0.0264,-0.061,-0.0112,0.0366,0.0709,0.0872,0.1006,0.03,-0.1791,-0.2152,-0.2438,-0.3059,-0.3347,-0.3576,-0.3773,-0.3773,-0.3845,-0.3991,-0.3724,-0.352,-0.3513,-0.3179,-0.3186,-0.3411,-0.3268,-0.3238,-0.3429,-0.311,-0.2856,-0.2665,-0.2404,-0.2408,-0.2631,-0.2902,-0.3412,-0.4142,-0.44,-0.4776,-0.5191,-0.5378,-0.5387,-0.5183,-0.5299,-0.5168,-0.5018,-0.5018,-0.5249,-0.5559,-0.5637,-0.5789,-0.5941,-0.5941,-0.6099,-0.618,-0.5941,-0.5864,-0.5783,-0.5398,-0.5234,-0.5197,-0.4936,-0.5214,-0.5384,-0.4711,-0.4888,-0.5081,-0.4611,-0.4451,-0.4483,-0.4526,-0.4271,-0.4483,-0.5816,-0.5527,-0.5453,-0.6403,0.0,0.0,0.0,0.0,0.0,0.0,-0.5387,0.0,0.0,0.0,0.0,0.0,0.0,0.0,-1.475,-1.4802,-1.478,-1.4786,-1.5268,-1.548,-1.5417,-1.5936,-1.6132,-1.6061,-1.5938,-1.5797,-1.5867,-1.5867,-1.5867,-1.5867,-1.5974,-1.6394,-1.7107,-1.7833,-1.8297,-1.8633,-1.89,-1.9441,-2.0031,0.076,0.0446,0.0351,0.0774,0.0947,0.126,0.1799,0.1975,0.1542,0.0145,-0.0495,-0.097,-0.1228,-0.162,-0.2025,-0.2265,-0.2612,-0.2979,-0.3519,-0.3455,-0.343,-0.3582,-0.3511,-0.3409,-0.3416,-0.3274,-0.3309,-0.3648,-0.3186,-0.2927,-0.2923,-0.2688,-0.2764,-0.3029,-0.3316,-0.3682,-0.3964,-0.4255,-0.4414,-0.455,-0.4979,-0.5084,-0.4968,-0.5451,-0.5476,-0.5168,-0.5168,-0.5171,-0.5249,-0.5401,-0.5712,-0.618,-0.618,-0.618,-0.6261,-0.5941,-0.5786,-0.5634,-0.5398,-0.5246,-0.5079,-0.4955,-0.5057,-0.5146,-0.4814,-0.4867,-0.4781,-0.4442,-0.4126,-0.3916,-0.4193,-0.4237,-0.4332,-0.468,-0.4812,-0.502,-0.5627,0.0,0.0,0.0,0.0,0.0,0.0,0.0,0.0,0.0,0.0,0.0,0.0,0.0,0.0,-1.4345,-1.4898,-1.5207,-1.523,-1.5724,-1.5896,-1.5813,-1.5983,-1.607,-1.5938,-1.5876,-1.5805,-1.5797,-1.6,-1.6211,-1.6491,-1.6482,-1.6899,-1.7598,-1.7852,-1.8462,-1.9198,-1.933,-1.9977,-2.0764,0.1318,0.1149,0.119,0.1574,0.1526,0.1684,0.2312,0.2432,0.2304,0.174,0.1106,0.048,0.0134,-0.0335,-0.0675,-0.0964,-0.1381,-0.1948,-0.2694,-0.2912,-0.31,-0.3178,-0.3455,-0.3401,-0.2872,-0.287,-0.3032,-0.3365,-0.291,-0.2892,-0.3202,-0.2956,-0.2997,-0.3323,-0.3437,-0.3577,-0.376,-0.3911,-0.3935,-0.397,-0.4613,-0.4742,-0.4727,-0.5466,-0.5476,-0.5165,-0.5243,-0.5246,-0.509,-0.5243,-0.5634,-0.6106,-0.618,-0.618,-0.618,-0.5941,-0.5786,-0.5634,-0.5398,-0.514,-0.5046,-0.5007,-0.4991,-0.4963,-0.4963,-0.483,-0.4611,-0.4252,-0.3895,-0.3628,-0.3836,-0.4051,-0.4174,-0.4129,-0.4203,-0.4525,-0.5118,-0.486,0.0,0.0,-0.6198,-0.6294,-0.7543,-0.6597,0.0,0.0,0.0,0.0,0.0,0.0,0.0,-1.3357,-1.3933,-1.4427,-1.5106,-1.5394,-1.57,-1.6,-1.6,-1.5938,-1.5805,-1.5805,-1.5797,-1.5726,-1.5921,-1.6132,-1.6342,-1.6412,-1.689,-1.7725,-1.793,-1.8664,-1.9605,-1.9868,-2.0571,-2.1336,0.1994,0.184,0.1886,0.2378,0.2261,0.2117,0.2264,0.2337,0.2293,0.2375,0.2359,0.1817,0.047,0.0134,-0.0067,-0.0268,-0.0469,-0.0737,-0.1275,-0.2014,-0.2284,-0.1945,-0.2958,-0.2863,-0.1541,-0.2029,-0.244,-0.2645,-0.2442,-0.2746,-0.3485,-0.3157,-0.3168,-0.3487,-0.2998,-0.3016,-0.3392,-0.3432,-0.3549,-0.3853,-0.4215,-0.4426,-0.4538,-0.5118,-0.5087,-0.4779,-0.5165,-0.5321,-0.5321,-0.5321,-0.5401,-0.5637,-0.5864,-0.5941,-0.5941,-0.5941,-0.5864,-0.5786,-0.5398,-0.5225,-0.5084,-0.4985,-0.4925,-0.4836,-0.4836,-0.4683,-0.4464,-0.3818,-0.3635,-0.3567,-0.3436,-0.3507,-0.3856,-0.4775,-0.4094,-0.4038,-0.5491,-0.5282,-0.5382,-0.6452,-0.6524,-0.7215,-0.9066,-0.7796,0.0,0.0,0.0,0.0,0.0,0.0,0.0,-1.1594,-1.1169,-1.189,-1.3884,-1.3847,-1.4489,-1.5805,-1.5805,-1.5805,-1.5805,-1.5805,-1.5655,-1.5497,-1.5275,-1.507,-1.4935,-1.5133,-1.5895,-1.7001,-1.7696,-1.8654,-1.9671,-2.0582,-2.1198,-2.1628,0.2911,0.268,0.2624,0.2493,0.2402,0.2352,0.2274,0.2335,0.2292,0.2238,0.2357,0.2287,0.1947,0.1679,0.1544,0.1542,0.1074,0.047,-0.0067,-0.0604,-0.1074,-0.1344,-0.1882,-0.2026,-0.1567,-0.1805,-0.1995,-0.2135,-0.1973,-0.1958,-0.2089,-0.2402,-0.2615,-0.2765,-0.304,-0.3201,-0.323,-0.3172,-0.3132,-0.3111,-0.3728,-0.4019,-0.4068,-0.4852,-0.4801,-0.4429,-0.4581,-0.4533,-0.4472,-0.4614,-0.4839,-0.5064,-0.5356,-0.5569,-0.5629,-0.5532,-0.542,-0.5321,-0.5164,-0.5024,-0.4897,-0.4779,-0.4803,-0.4811,-0.473,-0.4504,-0.4212,-0.393,-0.3704,-0.3604,-0.352,-0.3589,-0.3701,-0.4079,-0.3934,-0.3885,-0.4319,-0.4343,-0.4552,-0.5252,-0.5461,-0.5948,-0.7233,-0.6887,-0.6856,0.0,0.0,0.0,0.0,0.0,-0.9775,-1.0532,-1.1276,-1.199,-1.2676,-1.3683,-1.4394,-1.4974,-1.5505,-1.5805,-1.5805,-1.5805,-1.5647,-1.5346,-1.5754,-1.6105,-1.6315,-1.6862,-1.7619,-1.8452,-1.8654,-1.9253,-2.0042,-2.0794,-2.1416,-2.199,0.3839,0.3374,0.2984,0.2747,0.2589,0.247,0.2353,0.2335,0.2292,0.2238,0.2288,0.2423,0.2554,0.2421,0.2421,0.2686,0.2217,0.1746,0.1276,0.0604,0.0134,-0.0067,-0.0941,-0.1142,-0.0605,-0.1026,-0.1328,-0.1435,-0.1654,-0.1689,-0.1485,-0.1793,-0.1914,-0.1962,-0.2267,-0.2311,-0.231,-0.2493,-0.2472,-0.2531,-0.3256,-0.3608,-0.3726,-0.4293,-0.43,-0.4017,-0.4094,-0.4054,-0.3928,-0.407,-0.407,-0.4133,-0.4597,-0.4778,-0.477,-0.5228,-0.5288,-0.5187,-0.5108,-0.4967,-0.4822,-0.4745,-0.4675,-0.4678,-0.4533,-0.4286,-0.4066,-0.3927,-0.3787,-0.3628,-0.3642,-0.3626,-0.368,-0.3697,-0.374,-0.3738,-0.3825,-0.3786,-0.4036,-0.4727,-0.5054,-0.5638,-0.6821,-0.7026,-0.7359,-0.8025,0.0,0.0,0.0,-0.9116,-0.9685,-1.0704,-1.1056,-1.1668,-1.2709,-1.345,-1.4099,-1.4824,-1.5497,-1.5805,-1.5805,-1.5805,-1.5788,-1.5762,-1.6245,-1.6655,-1.6991,-1.7472,-1.8094,-1.8664,-1.8664,-1.9121,-1.9835,-2.0835,-2.1569,-2.22,0.4919,0.3992,0.3295,0.3217,0.2821,0.2542,0.2353,0.2332,0.2288,0.2237,0.2221,0.2221,0.2357,0.2424,0.2624,0.3092,0.3025,0.282,0.2484,0.1676,0.1342,0.1614,0.0,-0.0268,0.1076,0.0134,-0.0477,-0.0629,-0.1359,-0.1591,-0.1447,-0.1304,-0.1231,-0.1228,-0.0776,-0.0768,-0.0976,-0.136,-0.1705,-0.2023,-0.2657,-0.3128,-0.3346,-0.3564,-0.3487,-0.3336,-0.3561,-0.3559,-0.3409,-0.3409,-0.3194,-0.2964,-0.3525,-0.35,-0.3532,-0.4953,-0.5399,-0.5405,-0.5101,-0.5017,-0.4934,-0.4712,-0.4618,-0.4461,-0.4266,-0.411,-0.3961,-0.3825,-0.377,-0.3741,-0.3628,-0.3732,-0.376,-0.3622,-0.3542,-0.3607,-0.3882,-0.3698,-0.397,-0.4834,-0.5216,-0.6021,-0.7613,-0.8074,-0.8703,-0.9697,-0.9836,0.0,-0.9634,-0.9173,-0.9771,-1.1554,-1.0551,-1.1105,-1.3535,-1.3164,-1.3665,-1.5204,-1.5576,-1.5797,-1.5805,-1.5805,-1.607,-1.6603,-1.6673,-1.6862,-1.717,-1.7239,-1.7599,-1.8104,-1.8104,-1.8586,-1.9386,-2.0812,-2.167,-2.2225,0.6005,0.5622,0.5157,0.407,0.3776,0.3317,0.2419,0.2224,0.2238,0.2231,0.2221,0.2221,0.2357,0.2424,0.249,0.2822,0.282,0.282,0.2822,0.2285,0.195,0.2085,0.1344,0.1142,0.148,0.1076,0.0674,0.0204,0.0342,0.0274,0.0,-0.0343,-0.048,-0.0342,-0.0748,-0.1019,-0.1086,-0.1146,-0.1282,-0.136,-0.1528,-0.1688,-0.1772,-0.1733,-0.158,-0.1345,-0.1371,-0.1434,-0.148,-0.1551,-0.1644,-0.1663,-0.1831,-0.1698,-0.1929,-0.3968,-0.4627,-0.4697,-0.4624,-0.4604,-0.4585,-0.4585,-0.4425,-0.4363,-0.4383,-0.4175,-0.3961,-0.3825,-0.3818,-0.3721,-0.3532,-0.3668,-0.3705,-0.3571,-0.3707,-0.3763,-0.3715,-0.3722,-0.4084,-0.5093,-0.5384,-0.5914,-0.6915,-0.786,-0.8373,-0.829,-0.9007,-0.9516,-0.9574,-0.9496,-0.9475,-0.9633,-1.0071,-1.0663,-1.1254,-1.2505,-1.3818,-1.5204,-1.5275,-1.5505,-1.5805,-1.5805,-1.607,-1.6603,-1.7226,-1.7696,-1.822,-1.8777,-1.8988,-1.8998,-1.9441,-1.977,-2.0226,-2.1467,-2.2151,-2.2579,0.7011,0.6549,0.5928,0.5231,0.4594,0.4036,0.336,0.2779,0.2429,0.2429,0.2287,0.2221,0.2288,0.2288,0.2356,0.2555,0.2755,0.2889,0.3023,0.2757,0.269,0.269,0.2217,0.1949,0.1949,0.1613,0.1277,0.1008,0.121,0.1278,0.1145,0.0672,0.0538,0.0739,0.0134,-0.0067,-0.0134,-0.047,-0.0542,-0.048,-0.0835,-0.0979,-0.0981,-0.0782,-0.0633,-0.0551,-0.0419,-0.042,-0.0558,-0.062,-0.0699,-0.0711,-0.0968,-0.09,-0.0905,-0.2299,-0.2825,-0.3186,-0.4204,-0.4119,-0.3899,-0.4267,-0.4346,-0.4317,-0.4379,-0.4276,-0.411,-0.4026,-0.3995,-0.3889,-0.3689,-0.3789,-0.3793,-0.3677,-0.3761,-0.4,-0.414,-0.4301,-0.4599,-0.5336,-0.5761,-0.6198,-0.6793,-0.7762,-0.8436,-0.8459,-0.9129,-0.9619,-0.9746,-0.9679,-0.9715,-1.0024,-0.9981,-1.0288,-1.0875,-1.2345,-1.3528,-1.4394,-1.4768,-1.5141,-1.5505,-1.5505,-1.6123,-1.7285,-1.7628,-1.8307,-1.9187,-1.9462,-1.9473,-1.9341,-1.9911,-2.0172,-2.042,-2.1978,-2.2652,-2.2967,0.7936,0.7145,0.6513,0.636,0.5457,0.4727,0.456,0.3743,0.3101,0.2894,0.2621,0.2354,0.2221,0.2221,0.2221,0.2357,0.269,0.2958,0.3023,0.3092,0.3159,0.3226,0.2753,0.2551,0.2551,0.2083,0.1816,0.1681,0.1748,0.1816,0.1884,0.1614,0.1547,0.1681,0.1344,0.1143,0.1143,0.047,0.0273,0.0417,-0.0208,-0.0416,-0.0417,-0.007,-0.0069,-0.0134,0.0135,0.0206,0.007,0.0,0.0138,0.021,-0.0272,-0.0203,0.0,-0.0473,-0.0696,-0.122,-0.3369,-0.3348,-0.2844,-0.3648,-0.3828,-0.3828,-0.3828,-0.3961,-0.4061,-0.3966,-0.4072,-0.4075,-0.3896,-0.3867,-0.3893,-0.3791,-0.3867,-0.4168,-0.4588,-0.4757,-0.4916,-0.5256,-0.5909,-0.6478,-0.6896,-0.7855,-0.8708,-0.9246,-0.962,-0.9846,-0.9922,-0.9771,-1.0084,-1.0898,-0.9948,-1.0062,-1.131,-1.2352,-1.3011,-1.3302,-1.4122,-1.4776,-1.5267,-1.5267,-1.6306,-1.8104,-1.8037,-1.8787,-1.9868,-1.9671,-1.9473,-1.9341,-1.9911,-2.0172,-2.042,-2.2224,-2.2967,-2.322,0.8546,0.8262,0.7773,0.6939,0.6391,0.5901,0.5183,0.4857,0.4431,0.368,0.348,0.3149,0.2287,0.2221,0.2221,0.2221,0.2423,0.2624,0.2956,0.3023,0.3092,0.3226,0.3092,0.3092,0.3092,0.3025,0.269,0.2087,0.242,0.2284,0.1884,0.2018,0.2087,0.2087,0.1681,0.1547,0.148,0.1076,0.0944,0.1015,0.0879,0.0811,0.0811,0.1015,0.1147,0.1281,0.1381,0.1467,0.1541,0.1255,0.1418,0.1587,0.1194,0.1344,0.1505,0.0489,0.0838,0.1054,-0.0976,-0.1534,-0.1526,-0.1619,-0.1608,-0.1608,-0.1608,-0.2277,-0.2904,-0.2641,-0.3347,-0.3942,-0.3682,-0.3844,-0.4006,-0.3704,-0.4012,-0.4209,-0.3801,-0.3706,-0.3898,-0.4329,-0.519,-0.6023,-0.6839,-0.7927,-0.8856,-0.9246,-0.9322,-0.9549,-0.9846,-0.9846,-0.9862,-0.9824,-1.0014,-1.0443,-1.1105,-1.1996,-1.2586,-1.3011,-1.376,-1.4697,-1.5692,-1.5692,-1.6724,-1.8442,-1.8327,-1.8865,-1.9868,-1.9671,-1.9473,-1.9341,-1.9911,-2.0366,-2.0892,-2.1553,-2.231,-2.3017,0.9013,0.8692,0.8249,0.7799,0.7195,0.6607,0.6192,0.5706,0.5203,0.4803,0.4602,0.414,0.3151,0.295,0.2684,0.2085,0.2087,0.2288,0.2555,0.2824,0.3023,0.3092,0.3159,0.3226,0.3226,0.3226,0.3027,0.2758,0.2891,0.2824,0.2622,0.2488,0.2487,0.242,0.2085,0.1951,0.1884,0.1547,0.1425,0.1582,0.1375,0.1238,0.1306,0.1445,0.1499,0.1482,0.157,0.173,0.1748,0.1447,0.1466,0.1635,0.1383,0.1522,0.1603,0.1306,0.0821,0.0273,-0.0068,-0.0683,-0.1158,-0.1143,-0.1072,-0.1072,-0.0938,-0.1339,-0.1695,-0.1841,-0.2377,-0.2868,-0.3139,-0.3579,-0.3859,-0.3524,-0.3992,-0.4279,-0.4134,-0.4064,-0.4285,-0.4731,-0.5081,-0.5616,-0.6465,-0.6846,-0.7464,-0.8556,-0.8546,-0.877,-0.9544,-0.9695,-0.9695,-0.962,-0.9992,-1.0513,-1.1242,-1.1922,-1.2372,-1.2586,-1.3818,-1.476,-1.548,-1.5895,-1.6862,-1.824,-1.8259,-1.8808,-1.9539,-1.9473,-1.9605,-1.9911,-2.042,-2.0996,-2.1628,-2.2372,-2.2884,-2.3271,0.925,0.8763,0.8327,0.8255,0.7604,0.7098,0.7166,0.656,0.6063,0.5862,0.5723,0.5259,0.4207,0.4005,0.3542,0.2618,0.2485,0.2485,0.2421,0.2824,0.3023,0.3023,0.3159,0.3226,0.3226,0.3226,0.3226,0.3226,0.3226,0.3226,0.3226,0.2956,0.282,0.282,0.2487,0.2287,0.2287,0.1883,0.184,0.2014,0.1597,0.1458,0.1458,0.1527,0.1438,0.1344,0.148,0.1637,0.173,0.1422,0.1364,0.1453,0.1286,0.1277,0.1345,0.1748,0.0738,-0.0201,0.0603,0.0201,-0.0402,-0.0335,-0.0335,-0.0268,-0.0134,-0.0335,-0.0612,-0.0934,-0.1307,-0.1769,-0.2488,-0.3057,-0.3394,-0.3377,-0.3785,-0.4147,-0.4287,-0.429,-0.437,-0.466,-0.4766,-0.5002,-0.5619,-0.5538,-0.5999,-0.7399,-0.7383,-0.7766,-0.8856,-0.9084,-0.9382,-0.9765,-1.0067,-1.0582,-1.131,-1.1996,-1.2305,-1.2298,-1.368,-1.4617,-1.5054,-1.5604,-1.6576,-1.7833,-1.7978,-1.8519,-1.9396,-1.9473,-1.9911,-2.0624,-2.0933,-2.1491,-2.2163,-2.2992,-2.3258,-2.339,0.9024,0.8582,0.8225,0.7893,0.7636,0.7484,0.762,0.7606,0.7326,0.6719,0.6584,0.6252,0.5259,0.5193,0.4932,0.4342,0.4278,0.3949,0.3023,0.3092,0.3159,0.3023,0.3159,0.3226,0.3226,0.3226,0.3226,0.3226,0.3226,0.3226,0.3226,0.3159,0.3159,0.3159,0.2822,0.2686,0.2619,0.2287,0.2157,0.2161,0.1755,0.1552,0.1552,0.1281,0.1212,0.1277,0.1344,0.1549,0.1821,0.1413,0.1549,0.1754,0.1278,0.121,0.1344,0.1547,0.1681,0.1681,0.1748,0.1748,0.1748,0.1883,0.1951,0.1951,0.1951,0.1141,0.0476,0.0575,-0.0145,-0.1107,-0.1864,-0.2193,-0.254,-0.3224,-0.3342,-0.3344,-0.3415,-0.3201,-0.3117,-0.2963,-0.368,-0.4144,-0.3986,-0.4611,-0.5231,-0.5764,-0.5761,-0.6377,-0.7838,-0.7914,-0.8675,-1.0415,-1.0282,-1.0513,-1.1111,-1.1929,-1.2305,-1.2305,-1.3193,-1.3985,-1.4609,-1.4474,-1.5463,-1.7148,-1.7189,-1.818,-1.9803,-1.9955,-2.042,-2.106,-2.106,-2.1491,-2.2101,-2.2175,-2.2616,-2.3138,0.9691,0.9027,0.8477,0.8132,0.7797,0.7526,0.7591,0.7727,0.7792,0.7517,0.7717,0.7447,0.6392,0.6191,0.5789,0.4929,0.4734,0.4538,0.4143,0.4087,0.3758,0.3023,0.3025,0.3092,0.3092,0.3092,0.3023,0.2889,0.3023,0.3092,0.3092,0.3159,0.3226,0.3226,0.3092,0.3023,0.2956,0.2621,0.2487,0.2487,0.2085,0.1951,0.1951,0.1547,0.1412,0.148,0.1277,0.1344,0.148,0.1277,0.1344,0.148,0.121,0.1143,0.121,0.1277,0.1344,0.148,0.1681,0.1681,0.1749,0.1951,0.2018,0.2096,0.2339,0.2071,0.154,0.0737,0.0223,-0.0602,-0.187,-0.243,-0.2778,-0.2935,-0.3062,-0.3165,-0.2997,-0.2918,-0.2844,-0.282,-0.3059,-0.3446,-0.391,-0.3679,-0.391,-0.5154,-0.4919,-0.5455,-0.7149,-0.8075,-0.9069,-1.0282,-1.0212,-1.0812,-1.2003,-1.2224,-1.2526,-1.3046,-1.3695,-1.4122,-1.4402,-1.4752,-1.5525,-1.6655,-1.7425,-1.818,-1.8977,-2.0215,-2.0869,-2.1123,-2.1553,-2.2113,-2.2689,-2.2689,-2.2823,-2.3078,0.9926,0.9242,0.8601,0.8235,0.7815,0.7521,0.7521,0.7722,0.7922,0.7987,0.8247,0.8177,0.7456,0.7321,0.6915,0.5986,0.5793,0.5529,0.52,0.4878,0.4287,0.3222,0.3357,0.3424,0.3224,0.3489,0.3422,0.3021,0.3422,0.3489,0.3291,0.3625,0.3625,0.3426,0.3491,0.3424,0.3092,0.2956,0.2889,0.282,0.2488,0.2354,0.2287,0.1951,0.1817,0.1749,0.1546,0.1613,0.1747,0.1613,0.168,0.1747,0.1479,0.1277,0.1143,0.1143,0.121,0.1277,0.1547,0.1614,0.1681,0.1951,0.2018,0.2097,0.2345,0.244,0.2131,0.1259,0.0976,0.0533,-0.078,-0.1568,-0.2016,-0.2099,-0.2377,-0.2634,-0.2622,-0.2534,-0.2589,-0.2747,-0.2746,-0.2979,-0.3602,-0.3212,-0.3366,-0.4533,-0.4457,-0.5074,-0.6619,-0.8304,-0.9377,-0.9911,-1.0363,-1.1186,-1.2526,-1.2378,-1.2673,-1.3419,-1.3768,-1.4057,-1.4266,-1.4609,-1.5313,-1.6315,-1.7151,-1.7852,-1.8509,-2.0085,-2.0985,-2.1365,-2.2002,-2.2628,-2.3078,-2.3078,-2.3125,-2.3305,0.9509,0.9022,0.8641,0.8117,0.7722,0.7521,0.7521,0.7596,0.7797,0.7987,0.8107,0.8306,0.8447,0.8517,0.8317,0.7731,0.7731,0.7199,0.6005,0.5404,0.461,0.3553,0.4223,0.4359,0.3825,0.4486,0.4486,0.3825,0.4486,0.4486,0.3825,0.4688,0.4622,0.3825,0.4156,0.382,0.3023,0.3159,0.3226,0.3159,0.2822,0.2686,0.2686,0.2354,0.2221,0.2221,0.2351,0.2551,0.2686,0.2686,0.2822,0.2889,0.2153,0.1614,0.1277,0.1277,0.148,0.1614,0.1614,0.1614,0.1681,0.2087,0.2221,0.2223,0.2223,0.2202,0.2263,0.2324,0.2382,0.2209,0.1717,0.0862,0.0078,-0.047,-0.1177,-0.1728,-0.2118,-0.2038,-0.2117,-0.2746,-0.2589,-0.2589,-0.2747,-0.3366,-0.383,-0.383,-0.4535,-0.5389,-0.6163,-0.8376,-0.9523,-0.9301,-1.0657,-1.1706,-1.2298,-1.2305,-1.2599,-1.32,-1.32,-1.3484,-1.4057,-1.3905,-1.4625,-1.6132,-1.6245,-1.7179,-1.8593,-1.9683,-2.0719,-2.1705,-2.2408,-2.2848,-2.3078,-2.3078,-2.3412,-2.38,1.0639,0.9933,0.9288,0.8473,0.7852,0.7521,0.7521,0.7596,0.7797,0.7987,0.8107,0.8306,0.8447,0.8517,0.8452,0.8257,0.8117,0.7717,0.6868,0.6793,0.633,0.5209,0.5011,0.4749,0.4359,0.4556,0.4489,0.4156,0.4489,0.4556,0.4359,0.4752,0.4749,0.4486,0.4616,0.4483,0.4284,0.4287,0.442,0.4556,0.442,0.4417,0.448,0.4148,0.4018,0.4018,0.3813,0.3744,0.3811,0.3811,0.388,0.3813,0.3015,0.2418,0.1951,0.1951,0.1884,0.1817,0.1951,0.2287,0.2621,0.2757,0.2861,0.3053,0.3743,0.3551,0.3126,0.2589,0.2003,0.1399,0.0626,0.0392,0.0235,0.0078,0.0078,-0.0078,-0.0784,-0.094,-0.141,-0.2431,-0.2511,-0.2668,-0.2982,-0.2901,-0.3132,-0.3752,-0.4924,-0.6009,-0.6842,-0.8228,-0.9226,-0.9911,-1.0588,-1.1335,-1.2077,-1.2224,-1.2673,-1.3419,-1.3775,-1.3985,-1.4129,-1.441,-1.5313,-1.6618,-1.7415,-1.8315,-1.9386,-2.0944,-2.1451,-2.1302,-2.2049,-2.2555,-2.2848,-2.3305,-2.3412,-2.3471,1.1553,1.0962,1.0346,0.925,0.8613,0.8161,0.7787,0.7787,0.7922,0.7857,0.8047,0.8236,0.8376,0.8447,0.8517,0.8517,0.8242,0.7977,0.7591,0.7591,0.726,0.6531,0.6199,0.5804,0.5348,0.5613,0.5481,0.4948,0.5352,0.5286,0.4954,0.5348,0.5345,0.5014,0.515,0.5017,0.4752,0.4749,0.4882,0.5017,0.5087,0.5153,0.5213,0.508,0.5011,0.5011,0.4875,0.4809,0.4809,0.4878,0.4809,0.4538,0.4079,0.3549,0.3017,0.3017,0.295,0.295,0.3086,0.3485,0.3894,0.4074,0.3927,0.392,0.4485,0.441,0.4015,0.353,0.3103,0.2503,0.1799,0.1408,0.1253,0.1097,0.0862,0.0706,0.0392,-0.0157,-0.0784,-0.1646,-0.2117,-0.2511,-0.2826,-0.3057,-0.36,-0.4686,-0.5699,-0.6553,-0.708,-0.7923,-0.8912,-0.99,-1.0726,-1.1545,-1.2452,-1.2673,-1.2973,-1.3419,-1.3985,-1.4418,-1.4561,-1.5384,-1.6349,-1.7375,-1.8237,-1.8936,-1.9462,-2.0816,-2.1198,-2.0996,-2.1851,-2.2383,-2.2739,-2.3245,-2.3531,-2.3884,1.2269,1.2014,1.1517,1.0321,0.9812,0.9302,0.8361,0.8301,0.8172,0.7857,0.8047,0.8236,0.8236,0.8376,0.8517,0.8447,0.8182,0.8047,0.8172,0.7857,0.7661,0.7526,0.7521,0.7256,0.6531,0.7129,0.6994,0.6067,0.6675,0.6474,0.5609,0.6408,0.6338,0.5543,0.5885,0.5557,0.4758,0.4885,0.4948,0.5014,0.515,0.5286,0.5286,0.5411,0.5474,0.554,0.5679,0.5745,0.5811,0.5951,0.5679,0.5203,0.5203,0.4806,0.4406,0.4406,0.4475,0.4544,0.4558,0.4891,0.5326,0.5819,0.5385,0.4842,0.485,0.4893,0.4989,0.4989,0.5002,0.4846,0.4302,0.3521,0.2895,0.2507,0.1647,0.1098,0.141,0.0549,-0.0157,-0.047,-0.141,-0.2117,-0.2353,-0.3444,-0.4611,-0.5854,-0.6472,-0.6784,-0.6861,-0.7613,-0.8514,-0.9497,-1.0926,-1.2057,-1.3046,-1.3419,-1.3419,-1.3273,-1.4049,-1.4697,-1.5338,-1.6627,-1.7668,-1.8442,-1.89,-1.911,-1.9299,-1.9901,-2.042,-2.0794,-2.1788,-2.2432,-2.28,-2.3138,-2.3872,-2.4738,1.2863,1.2531,1.2097,1.101,1.0501,1.0236,0.9983,0.9551,0.9111,0.8924,0.8624,0.8376,0.8236,0.8376,0.8447,0.8306,0.8112,0.7922,0.7792,0.7857,0.7857,0.7661,0.7792,0.7787,0.7652,0.7396,0.7195,0.7129,0.7326,0.726,0.706,0.726,0.7064,0.6544,0.6679,0.6416,0.602,0.6017,0.6145,0.6276,0.6342,0.6539,0.6741,0.6802,0.6863,0.706,0.7064,0.7064,0.7064,0.7129,0.6666,0.6133,0.6133,0.5672,0.5074,0.5074,0.5008,0.503,0.5145,0.5586,0.6036,0.6472,0.6765,0.6803,0.6664,0.6293,0.5886,0.5886,0.5449,0.4924,0.4846,0.4766,0.4761,0.4606,0.4066,0.3443,0.2971,0.2193,0.1333,0.047,-0.0313,-0.094,-0.1489,-0.2973,-0.391,-0.399,-0.5154,-0.6086,-0.6546,-0.7391,-0.8232,-0.9069,-1.0335,-1.1236,-1.1755,-1.3164,-1.3768,-1.3419,-1.476,-1.5666,-1.614,-1.7531,-1.8824,-1.9901,-1.9901,-2.0226,-2.0869,-2.0955,-2.1146,-2.1451,-2.1714,-2.2445,-2.3471,-2.4021,-2.4483,-2.5007,1.3712,1.351,1.3075,1.1909,1.1564,1.1308,1.0808,1.0438,1.0123,0.9863,0.9691,0.9384,0.8737,0.8941,0.8888,0.8376,0.8117,0.7987,0.7857,0.8112,0.8172,0.8112,0.8495,0.8753,0.8877,0.8301,0.7917,0.7591,0.7722,0.7657,0.7521,0.7521,0.7396,0.7199,0.7199,0.7007,0.6618,0.6618,0.6613,0.6544,0.6675,0.6806,0.6937,0.7007,0.7138,0.7199,0.733,0.7396,0.7521,0.7521,0.726,0.6994,0.7312,0.7111,0.6911,0.7233,0.7109,0.6873,0.6975,0.7078,0.7267,0.7525,0.7728,0.7886,0.759,0.7124,0.6784,0.6784,0.6475,0.6086,0.5622,0.5622,0.5696,0.5464,0.4688,0.4144,0.4142,0.2974,0.1882,0.1568,0.0548,-0.0548,-0.1489,-0.3051,-0.3832,-0.36,-0.4924,-0.5857,-0.6083,-0.6784,-0.7629,-0.8389,-0.9508,-1.0404,-1.1081,-1.2858,-1.3688,-1.355,-1.5384,-1.6367,-1.6627,-1.8345,-1.9441,-2.0053,-2.0495,-2.0944,-2.1273,-2.1221,-2.1323,-2.1483,-2.1968,-2.2577,-2.3264,-2.416,-2.512,-2.6101,1.4413,1.4338,1.3965,1.2886,1.2634,1.2389,1.1578,1.1329,1.1135,1.0801,1.0815,1.0514,0.9551,0.9697,0.9582,0.8894,0.8501,0.8242,0.8112,0.849,0.8748,0.8812,0.9262,0.9582,0.9773,0.9332,0.8759,0.7987,0.8052,0.7922,0.7657,0.7657,0.7657,0.7587,0.7587,0.7396,0.7012,0.7012,0.6811,0.6486,0.6675,0.6741,0.6741,0.6811,0.6881,0.6946,0.7138,0.733,0.7521,0.7521,0.7587,0.7782,0.8296,0.8554,0.8818,0.9379,0.9288,0.9007,0.9089,0.8911,0.876,0.8695,0.8675,0.8448,0.8004,0.7677,0.7561,0.7484,0.7484,0.7326,0.663,0.6549,0.6472,0.6009,0.5151,0.4683,0.5237,0.3752,0.2663,0.2823,0.1175,-0.0392,-0.1489,-0.2974,-0.3756,-0.3519,-0.4768,-0.547,-0.5467,-0.6015,-0.6791,-0.7553,-0.8528,-0.9578,-1.0703,-1.2478,-1.352,-1.389,-1.5948,-1.6941,-1.707,-1.8824,-1.9715,-1.9868,-2.0955,-2.1336,-2.1221,-2.1336,-2.1393,-2.15,-2.2419,-2.293,-2.321,-2.4329,-2.5675,-2.7055,1.4272,1.4131,1.3957,1.3456,1.3285,1.3172,1.3139,1.2696,1.2197,1.1819,1.1454,1.108,1.064,1.0395,1.0205,1.0205,0.964,0.9134,0.8742,0.9256,0.9709,0.997,0.9843,0.9709,0.9518,0.9646,0.9524,0.9081,0.8635,0.8382,0.8382,0.8382,0.8187,0.7917,0.7917,0.7722,0.7396,0.7396,0.7204,0.6815,0.6881,0.6811,0.6675,0.6741,0.6811,0.6946,0.7138,0.733,0.7521,0.7521,0.7907,0.8361,0.849,0.8877,0.9432,0.9796,0.9892,0.9952,1.0401,1.048,1.0353,1.0027,0.9712,0.918,0.8286,0.7936,0.7723,0.7561,0.7484,0.7484,0.7565,0.8016,0.8169,0.7565,0.7391,0.7076,0.6479,0.5774,0.5151,0.4465,0.1954,0.0078,-0.047,-0.2037,-0.2823,-0.243,-0.321,-0.4068,-0.4766,-0.5237,-0.5864,-0.6714,-0.7403,-0.8604,-1.0456,-1.2065,-1.3757,-1.5471,-1.6473,-1.7028,-1.7335,-1.8566,-1.9704,-2.0775,-2.1094,-2.1273,-2.1388,-2.1803,-2.2127,-2.2493,-2.3182,-2.3949,-2.4759,-2.5339,-2.6001,-2.6561,1.506,1.4882,1.4652,1.3831,1.3588,1.3583,1.3484,1.326,1.3009,1.2887,1.2634,1.2266,1.1578,1.1017,1.0773,1.0954,1.0627,1.0368,1.0173,1.0696,1.1024,1.0899,1.1156,1.1226,1.0975,1.0667,1.0415,1.0225,0.9779,0.9524,0.9524,0.9582,0.9512,0.9378,0.9378,0.9186,0.8865,0.8865,0.8672,0.835,0.835,0.8345,0.8215,0.7642,0.7707,0.8032,0.7722,0.8047,0.8431,0.8166,0.849,0.9134,0.9518,0.9885,1.0295,1.0942,1.1007,1.0899,1.1281,1.1178,1.096,1.0858,1.0657,1.0357,0.9906,0.9155,0.8399,0.7484,0.7407,0.7638,0.8174,0.8551,0.878,0.9089,0.8385,0.7766,0.7625,0.6619,0.5538,0.4611,0.2965,0.1561,0.0705,-0.094,-0.1882,-0.1724,-0.2896,-0.391,-0.4688,-0.5157,-0.6012,-0.7249,-0.7863,-0.877,-1.0115,-1.1742,-1.3142,-1.4386,-1.518,-1.6367,-1.7755,-1.87,-1.9639,-2.0495,-2.1451,-2.1815,-2.1815,-2.2421,-2.278,-2.3025,-2.3638,-2.4567,-2.57,-2.6104,-2.6944,-2.7884]}]]